Illinois River (Oklahoma), Watts (07195500)

StateOklahomaLatestLow (371 cfs)
RiverIllinois RiverRatingObservedEstimated
Updated2020-08-11 19:30 (50 minutes ago)Flood - The river is flooding. Obstacles can be treacherous or deadly. The river should be avoided at this stage for casual trips and definitely for the inexperienced. Trips should be attempted only with protective gear and equipment.Flood(none)2254
Discharge371 cfs (median: 190 cfs)High - The river is high and potentially dangerous, especially for the young and / or inexperienced. Normal stream obstacles are sometimes difficult to navigate. Extended distances can be attempted, but canoe travel may not be advisable.High(none)1122
Height2.97 feetGood - Conditions are ideal for a canoe or kayak. Boats typically will drag on fewer than one-quarter of riffles, if at all, and portages are unnecessary or rare. Normal float lengths can be attempted without a problem.Good(none)574
TrendRising (rising over 24 hours)Low - River is low but can still be floated. Some riffles are okay but most come with significant dragging and might need a portage. Float lengths should be reduced to accommodate low flow, dragging, and portages.Low(none)371
USGSExternal icon USGS Site (External icon Google Maps)Poor - River is too low to float comfortably. Most or all riffles will drag or must be portaged and some obstacles (such as slick shelf rock) cause undue problems. Avoid the river at this stage for casual paddling trips.Poor(none)178

Trending Data

Plot Image

Trips for Illinois River (Oklahoma), Watts (07195500)

DateStartEndDistanceConditionDischargeHeightFishingDetails

A total of 0 rows are displayed.

Condition Descriptions

Fishing Conditions

Fish Species

Notes

Classic Trip List

The classic River Trips application is still available for use. It is updated with the new system using a data retrofit. It is no longer maintained. The original River Trips application is no longer updated (as of 1 Dec 2016) but can be checked for errors or for the condition of the data before it was converted to the new system.

Gauge Data Table

<
ObservationHeightDischargeMaximum
Discharge
Minimum
Discharge
Mean
Discharge
P05P10P20P25P50
(Median)
P75P80P90P95
2020-08-11 19:30 2.97 371 2770 (2008) 33 (1956) 274 48 73 106 120 190 290 311 486 840
2020-08-11 18:30 2.96 368 2770 (2008) 33 (1956) 274 48 73 106 120 190 290 311 486 840
2020-08-11 17:30 2.94 361 2770 (2008) 33 (1956) 274 48 73 106 120 190 290 311 486 840
2020-08-11 16:30 2.94 361 2770 (2008) 33 (1956) 274 48 73 106 120 190 290 311 486 840
2020-08-11 15:30 2.94 361 2770 (2008) 33 (1956) 274 48 73 106 120 190 290 311 486 840
2020-08-11 14:30 2.95 364 2770 (2008) 33 (1956) 274 48 73 106 120 190 290 311 486 840
2020-08-11 13:30 2.93 357 2770 (2008) 33 (1956) 274 48 73 106 120 190 290 311 486 840
2020-08-11 12:30 2.87 337 2770 (2008) 33 (1956) 274 48 73 106 120 190 290 311 486 840
2020-08-11 11:30 2.87 337 2770 (2008) 33 (1956) 274 48 73 106 120 190 290 311 486 840
2020-08-11 10:30 2.87 337 2770 (2008) 33 (1956) 274 48 73 106 120 190 290 311 486 840
2020-08-11 09:30 2.86 333 2770 (2008) 33 (1956) 274 48 73 106 120 190 290 311 486 840
2020-08-11 08:30 2.87 337 2770 (2008) 33 (1956) 274 48 73 106 120 190 290 311 486 840
2020-08-11 07:30 2.87 337 2770 (2008) 33 (1956) 274 48 73 106 120 190 290 311 486 840
2020-08-11 06:30 2.87 337 2770 (2008) 33 (1956) 274 48 73 106 120 190 290 311 486 840
2020-08-11 05:30 2.88 340 2770 (2008) 33 (1956) 274 48 73 106 120 190 290 311 486 840
2020-08-11 04:30 2.88 340 2770 (2008) 33 (1956) 274 48 73 106 120 190 290 311 486 840
2020-08-11 03:30 2.88 340 2770 (2008) 33 (1956) 274 48 73 106 120 190 290 311 486 840
2020-08-11 02:30 2.88 340 2770 (2008) 33 (1956) 274 48 73 106 120 190 290 311 486 840
2020-08-11 01:30 2.88 340 2770 (2008) 33 (1956) 274 48 73 106 120 190 290 311 486 840
2020-08-11 00:30 2.89 343 2770 (2008) 33 (1956) 274 48 73 106 120 190 290 311 486 840
2020-08-10 23:30 2.89 343 2070 (2008) 28 (1956) 279 44 70 108 118 172 285 335 517 1250
2020-08-10 22:30 2.89 343 2070 (2008) 28 (1956) 279 44 70 108 118 172 285 335 517 1250
2020-08-10 21:30 2.90 347 2070 (2008) 28 (1956) 279 44 70 108 118 172 285 335 517 1250
2020-08-10 20:30 2.90 347 2070 (2008) 28 (1956) 279 44 70 108 118 172 285 335 517 1250
2020-08-10 19:30 2.90 347 2070 (2008) 28 (1956) 279 44 70 108 118 172 285 335 517 1250
2020-08-10 18:30 2.90 347 2070 (2008) 28 (1956) 279 44 70 108 118 172 285 335 517 1250
2020-08-10 17:30 2.91 350 2070 (2008) 28 (1956) 279 44 70 108 118 172 285 335 517 1250
2020-08-10 16:30 2.90 347 2070 (2008) 28 (1956) 279 44 70 108 118 172 285 335 517 1250
2020-08-10 15:30 2.91 350 2070 (2008) 28 (1956) 279 44 70 108 118 172 285 335 517 1250
2020-08-10 14:30 2.91 350 2070 (2008) 28 (1956) 279 44 70 108 118 172 285 335 517 1250
2020-08-10 13:30 2.91 350 2070 (2008) 28 (1956) 279 44 70 108 118 172 285 335 517 1250
2020-08-10 12:30 2.91 350 2070 (2008) 28 (1956) 279 44 70 108 118 172 285 335 517 1250
2020-08-10 11:30 2.91 350 2070 (2008) 28 (1956) 279 44 70 108 118 172 285 335 517 1250
2020-08-10 10:30 2.91 350 2070 (2008) 28 (1956) 279 44 70 108 118 172 285 335 517 1250
2020-08-10 09:30 2.92 354 2070 (2008) 28 (1956) 279 44 70 108 118 172 285 335 517 1250
2020-08-10 08:30 2.92 354 2070 (2008) 28 (1956) 279 44 70 108 118 172 285 335 517 1250
2020-08-10 07:30 2.92 354 2070 (2008) 28 (1956) 279 44 70 108 118 172 285 335 517 1250
2020-08-10 06:30 2.92 354 2070 (2008) 28 (1956) 279 44 70 108 118 172 285 335 517 1250
2020-08-10 05:30 2.93 357 2070 (2008) 28 (1956) 279 44 70 108 118 172 285 335 517 1250
2020-08-10 04:30 2.94 361 2070 (2008) 28 (1956) 279 44 70 108 118 172 285 335 517 1250
2020-08-10 03:30 2.94 361 2070 (2008) 28 (1956) 279 44 70 108 118 172 285 335 517 1250
2020-08-10 02:30 2.95 364 2070 (2008) 28 (1956) 279 44 70 108 118 172 285 335 517 1250
2020-08-10 01:30 2.96 368 2070 (2008) 28 (1956) 279 44 70 108 118 172 285 335 517 1250
2020-08-10 00:30 2.97 371 2070 (2008) 28 (1956) 279 44 70 108 118 172 285 335 517 1250
2020-08-09 23:30 2.97 371 4530 (2013) 31 (1956) 323 43 71 109 123 183 282 326 451 1130
2020-08-09 22:30 2.97 371 4530 (2013) 31 (1956) 323 43 71 109 123 183 282 326 451 1130
2020-08-09 21:30 2.98 375 4530 (2013) 31 (1956) 323 43 71 109 123 183 282 326 451 1130
2020-08-09 20:30 2.99 378 4530 (2013) 31 (1956) 323 43 71 109 123 183 282 326 451 1130
2020-08-09 19:30 2.99 378 4530 (2013) 31 (1956) 323 43 71 109 123 183 282 326 451 1130
2020-08-09 18:30 2.99 378 4530 (2013) 31 (1956) 323 43 71 109 123 183 282 326 451 1130
2020-08-09 17:30 3.00 382 4530 (2013) 31 (1956) 323 43 71 109 123 183 282 326 451 1130
2020-08-09 16:30 3.00 382 4530 (2013) 31 (1956) 323 43 71 109 123 183 282 326 451 1130
2020-08-09 15:30 3.00 382 4530 (2013) 31 (1956) 323 43 71 109 123 183 282 326 451 1130
2020-08-09 14:30 3.01 386 4530 (2013) 31 (1956) 323 43 71 109 123 183 282 326 451 1130
2020-08-09 13:30 3.01 386 4530 (2013) 31 (1956) 323 43 71 109 123 183 282 326 451 1130
2020-08-09 12:30 3.02 389 4530 (2013) 31 (1956) 323 43 71 109 123 183 282 326 451 1130
2020-08-09 11:30 3.02 389 4530 (2013) 31 (1956) 323 43 71 109 123 183 282 326 451 1130
2020-08-09 10:30 3.02 389 4530 (2013) 31 (1956) 323 43 71 109 123 183 282 326 451 1130
2020-08-09 09:30 3.03 393 4530 (2013) 31 (1956) 323 43 71 109 123 183 282 326 451 1130
2020-08-09 08:30 3.03 393 4530 (2013) 31 (1956) 323 43 71 109 123 183 282 326 451 1130
2020-08-09 07:30 3.04 397 4530 (2013) 31 (1956) 323 43 71 109 123 183 282 326 451 1130
2020-08-09 06:30 3.05 400 4530 (2013) 31 (1956) 323 43 71 109 123 183 282 326 451 1130
2020-08-09 05:30 3.06 404 4530 (2013) 31 (1956) 323 43 71 109 123 183 282 326 451 1130
2020-08-09 04:30 3.07 408 4530 (2013) 31 (1956) 323 43 71 109 123 183 282 326 451 1130
2020-08-09 03:30 3.08 411 4530 (2013) 31 (1956) 323 43 71 109 123 183 282 326 451 1130
2020-08-09 02:30 3.09 415 4530 (2013) 31 (1956) 323 43 71 109 123 183 282 326 451 1130
2020-08-09 01:30 3.10 419 4530 (2013) 31 (1956) 323 43 71 109 123 183 282 326 451 1130
2020-08-09 00:30 3.11 423 4530 (2013) 31 (1956) 323 43 71 109 123 183 282 326 451 1130
2020-08-08 23:30 3.12 427 3870 (1958) 33 (1964) 315 43 75 110 122 175 271 332 406 1030
2020-08-08 22:30 3.13 430 3870 (1958) 33 (1964) 315 43 75 110 122 175 271 332 406 1030
2020-08-08 21:30 3.15 438 3870 (1958) 33 (1964) 315 43 75 110 122 175 271 332 406 1030
2020-08-08 20:30 3.17 446 3870 (1958) 33 (1964) 315 43 75 110 122 175 271 332 406 1030
2020-08-08 19:30 3.18 450 3870 (1958) 33 (1964) 315 43 75 110 122 175 271 332 406 1030
2020-08-08 18:30 3.20 458 3870 (1958) 33 (1964) 315 43 75 110 122 175 271 332 406 1030
2020-08-08 17:30 3.22 466 3870 (1958) 33 (1964) 315 43 75 110 122 175 271 332 406 1030
2020-08-08 16:30 3.24 474 3870 (1958) 33 (1964) 315 43 75 110 122 175 271 332 406 1030
2020-08-08 15:30 3.26 482 3870 (1958) 33 (1964) 315 43 75 110 122 175 271 332 406 1030
2020-08-08 14:30 3.28 490 3870 (1958) 33 (1964) 315 43 75 110 122 175 271 332 406 1030
2020-08-08 13:30 3.29 495 3870 (1958) 33 (1964) 315 43 75 110 122 175 271 332 406 1030
2020-08-08 12:30 3.32 507 3870 (1958) 33 (1964) 315 43 75 110 122 175 271 332 406 1030
2020-08-08 11:30 3.34 516 3870 (1958) 33 (1964) 315 43 75 110 122 175 271 332 406 1030
2020-08-08 10:30 3.36 524 3870 (1958) 33 (1964) 315 43 75 110 122 175 271 332 406 1030
2020-08-08 09:30 3.39 537 3870 (1958) 33 (1964) 315 43 75 110 122 175 271 332 406 1030
2020-08-08 08:30 3.42 550 3870 (1958) 33 (1964) 315 43 75 110 122 175 271 332 406 1030
2020-08-08 07:30 3.46 568 3870 (1958) 33 (1964) 315 43 75 110 122 175 271 332 406 1030
2020-08-08 06:30 3.49 582 3870 (1958) 33 (1964) 315 43 75 110 122 175 271 332 406 1030
2020-08-08 05:30 3.51 591 3870 (1958) 33 (1964) 315 43 75 110 122 175 271 332 406 1030
2020-08-08 04:30 3.49 582 3870 (1958) 33 (1964) 315 43 75 110 122 175 271 332 406 1030
2020-08-08 03:30 3.43 555 3870 (1958) 33 (1964) 315 43 75 110 122 175 271 332 406 1030
2020-08-08 02:30 3.30 499 3870 (1958) 33 (1964) 315 43 75 110 122 175 271 332 406 1030
2020-08-08 01:30 3.13 430 3870 (1958) 33 (1964) 315 43 75 110 122 175 271 332 406 1030
2020-08-08 00:30 2.97 371 3870 (1958) 33 (1964) 315 43 75 110 122 175 271 332 406 1030
2020-08-07 23:30 2.94 361 1150 (1992) 34 (1964) 247 46 71 106 122 180 291 322 478 766
2020-08-07 22:30 2.94 361 1150 (1992) 34 (1964) 247 46 71 106 122 180 291 322 478 766
2020-08-07 21:30 2.94 361 1150 (1992) 34 (1964) 247 46 71 106 122 180 291 322 478 766
2020-08-07 20:30 2.94 361 1150 (1992) 34 (1964) 247 46 71 106 122 180 291 322 478 766
2020-08-07 19:30 2.95 364 1150 (1992) 34 (1964) 247 46 71 106 122 180 291 322 478 766
2020-08-07 18:30 2.95 364 1150 (1992) 34 (1964) 247 46 71 106 122 180 291 322 478 766
2020-08-07 17:30 2.95 364 1150 (1992) 34 (1964) 247 46 71 106 122 180 291 322 478 766
2020-08-07 16:30 2.96 368 1150 (1992) 34 (1964) 247 46 71 106 122 180 291 322 478 766
2020-08-07 15:30 2.96 368 1150 (1992) 34 (1964) 247 46 71 106 122 180 291 322 478 766
2020-08-07 14:30 2.96 368 1150 (1992) 34 (1964) 247 46 71 106 122 180 291 322 478 766
2020-08-07 13:30 2.96 368 1150 (1992) 34 (1964) 247 46 71 106 122 180 291 322 478 766
2020-08-07 12:30 2.95 364 1150 (1992) 34 (1964) 247 46 71 106 122 180 291 322 478 766
2020-08-07 11:30 2.95 364 1150 (1992) 34 (1964) 247 46 71 106 122 180 291 322 478 766
2020-08-07 10:30 2.95 364 1150 (1992) 34 (1964) 247 46 71 106 122 180 291 322 478 766
2020-08-07 09:30 2.93 357 1150 (1992) 34 (1964) 247 46 71 106 122 180 291 322 478 766
2020-08-07 08:30 2.92 354 1150 (1992) 34 (1964) 247 46 71 106 122 180 291 322 478 766
2020-08-07 07:30 2.91 350 1150 (1992) 34 (1964) 247 46 71 106 122 180 291 322 478 766
2020-08-07 06:30 2.90 347 1150 (1992) 34 (1964) 247 46 71 106 122 180 291 322 478 766
2020-08-07 05:30 2.90 347 1150 (1992) 34 (1964) 247 46 71 106 122 180 291 322 478 766
2020-08-07 04:30 2.90 347 1150 (1992) 34 (1964) 247 46 71 106 122 180 291 322 478 766
2020-08-07 03:30 2.90 347 1150 (1992) 34 (1964) 247 46 71 106 122 180 291 322 478 766
2020-08-07 02:30 2.90 347 1150 (1992) 34 (1964) 247 46 71 106 122 180 291 322 478 766
2020-08-07 01:30 2.90 347 1150 (1992) 34 (1964) 247 46 71 106 122 180 291 322 478 766
2020-08-07 00:30 2.91 350 1150 (1992) 34 (1964) 247 46 71 106 122 180 291 322 478 766
2020-08-06 23:30 2.91 350 1820 (1992) 34 (1964) 270 49 74 107 111 186 299 336 505 812
2020-08-06 22:30 2.91 350 1820 (1992) 34 (1964) 270 49 74 107 111 186 299 336 505 812
2020-08-06 21:30 2.92 354 1820 (1992) 34 (1964) 270 49 74 107 111 186 299 336 505 812
2020-08-06 20:30 2.92 354 1820 (1992) 34 (1964) 270 49 74 107 111 186 299 336 505 812
2020-08-06 19:30 2.92 354 1820 (1992) 34 (1964) 270 49 74 107 111 186 299 336 505 812
2020-08-06 18:30 2.92 354 1820 (1992) 34 (1964) 270 49 74 107 111 186 299 336 505 812
2020-08-06 17:30 2.91 350 1820 (1992) 34 (1964) 270 49 74 107 111 186 299 336 505 812
2020-08-06 16:30 2.90 347 1820 (1992) 34 (1964) 270 49 74 107 111 186 299 336 505 812
2020-08-06 15:30 2.90 347 1820 (1992) 34 (1964) 270 49 74 107 111 186 299 336 505 812
2020-08-06 14:30 2.90 347 1820 (1992) 34 (1964) 270 49 74 107 111 186 299 336 505 812
2020-08-06 13:30 2.90 347 1820 (1992) 34 (1964) 270 49 74 107 111 186 299 336 505 812
2020-08-06 12:30 2.90 347 1820 (1992) 34 (1964) 270 49 74 107 111 186 299 336 505 812
2020-08-06 11:30 2.90 347 1820 (1992) 34 (1964) 270 49 74 107 111 186 299 336 505 812
2020-08-06 10:30 2.90 347 1820 (1992) 34 (1964) 270 49 74 107 111 186 299 336 505 812
2020-08-06 09:30 2.91 350 1820 (1992) 34 (1964) 270 49 74 107 111 186 299 336 505 812
2020-08-06 08:30 2.91 350 1820 (1992) 34 (1964) 270 49 74 107 111 186 299 336 505 812
2020-08-06 07:30 2.92 354 1820 (1992) 34 (1964) 270 49 74 107 111 186 299 336 505 812
2020-08-06 06:30 2.92 354 1820 (1992) 34 (1964) 270 49 74 107 111 186 299 336 505 812
2020-08-06 05:30 2.92 354 1820 (1992) 34 (1964) 270 49 74 107 111 186 299 336 505 812
2020-08-06 04:30 2.92 354 1820 (1992) 34 (1964) 270 49 74 107 111 186 299 336 505 812
2020-08-06 03:30 2.92 354 1820 (1992) 34 (1964) 270 49 74 107 111 186 299 336 505 812
2020-08-06 02:30 2.92 354 1820 (1992) 34 (1964) 270 49 74 107 111 186 299 336 505 812
2020-08-06 01:30 2.92 354 1820 (1992) 34 (1964) 270 49 74 107 111 186 299 336 505 812
2020-08-06 00:30 2.92 354 1820 (1992) 34 (1964) 270 49 74 107 111 186 299 336 505 812
2020-08-05 23:30 2.92 354 3170 (1992) 36 (1964) 281 54 76 105 112 185 286 329 502 842
2020-08-05 22:30 2.93 357 3170 (1992) 36 (1964) 281 54 76 105 112 185 286 329 502 842
2020-08-05 21:30 2.93 357 3170 (1992) 36 (1964) 281 54 76 105 112 185 286 329 502 842
2020-08-05 20:30 2.93 357 3170 (1992) 36 (1964) 281 54 76 105 112 185 286 329 502 842
2020-08-05 19:30 2.93 357 3170 (1992) 36 (1964) 281 54 76 105 112 185 286 329 502 842
2020-08-05 18:30 2.93 357 3170 (1992) 36 (1964) 281 54 76 105 112 185 286 329 502 842
2020-08-05 17:30 2.93 357 3170 (1992) 36 (1964) 281 54 76 105 112 185 286 329 502 842
2020-08-05 16:30 2.94 361 3170 (1992) 36 (1964) 281 54 76 105 112 185 286 329 502 842
2020-08-05 15:30 2.94 361 3170 (1992) 36 (1964) 281 54 76 105 112 185 286 329 502 842
2020-08-05 14:30 2.94 361 3170 (1992) 36 (1964) 281 54 76 105 112 185 286 329 502 842
2020-08-05 12:30 2.95 364 3170 (1992) 36 (1964) 281 54 76 105 112 185 286 329 502 842
2020-08-05 11:30 2.93 357 3170 (1992) 36 (1964) 281 54 76 105 112 185 286 329 502 842
2020-08-05 10:30 2.93 357 3170 (1992) 36 (1964) 281 54 76 105 112 185 286 329 502 842
2020-08-05 09:30 2.93 357 3170 (1992) 36 (1964) 281 54 76 105 112 185 286 329 502 842
2020-08-05 08:30 2.94 361 3170 (1992) 36 (1964) 281 54 76 105 112 185 286 329 502 842
2020-08-05 07:30 2.94 361 3170 (1992) 36 (1964) 281 54 76 105 112 185 286 329 502 842
2020-08-05 06:30 2.94 361 3170 (1992) 36 (1964) 281 54 76 105 112 185 286 329 502 842
2020-08-05 05:30 2.95 364 3170 (1992) 36 (1964) 281 54 76 105 112 185 286 329 502 842
2020-08-05 04:30 2.94 361 3170 (1992) 36 (1964) 281 54 76 105 112 185 286 329 502 842
2020-08-05 03:30 2.95 364 3170 (1992) 36 (1964) 281 54 76 105 112 185 286 329 502 842
2020-08-05 02:30 2.95 364 3170 (1992) 36 (1964) 281 54 76 105 112 185 286 329 502 842
2020-08-05 01:30 2.96 368 3170 (1992) 36 (1964) 281 54 76 105 112 185 286 329 502 842
2020-08-05 00:30 2.96 368 3170 (1992) 36 (1964) 281 54 76 105 112 185 286 329 502 842
2020-08-04 23:30 2.97 371 2160 (1992) 36 (1964) 307 59 76 107 116 183 292 336 565 1590
2020-08-04 22:30 2.97 371 2160 (1992) 36 (1964) 307 59 76 107 116 183 292 336 565 1590
2020-08-04 21:30 2.98 375 2160 (1992) 36 (1964) 307 59 76 107 116 183 292 336 565 1590
2020-08-04 20:30 2.99 378 2160 (1992) 36 (1964) 307 59 76 107 116 183 292 336 565 1590
2020-08-04 19:30 2.99 378 2160 (1992) 36 (1964) 307 59 76 107 116 183 292 336 565 1590
2020-08-04 18:30 2.98 375 2160 (1992) 36 (1964) 307 59 76 107 116 183 292 336 565 1590
2020-08-04 17:30 2.98 375 2160 (1992) 36 (1964) 307 59 76 107 116 183 292 336 565 1590
2020-08-04 16:30 2.99 378 2160 (1992) 36 (1964) 307 59 76 107 116 183 292 336 565 1590
2020-08-04 15:30 2.99 378 2160 (1992) 36 (1964) 307 59 76 107 116 183 292 336 565 1590
2020-08-04 14:30 2.99 378 2160 (1992) 36 (1964) 307 59 76 107 116 183 292 336 565 1590
2020-08-04 13:30 2.99 378 2160 (1992) 36 (1964) 307 59 76 107 116 183 292 336 565 1590
2020-08-04 12:30 2.99 378 2160 (1992) 36 (1964) 307 59 76 107 116 183 292 336 565 1590
2020-08-04 11:30 2.98 375 2160 (1992) 36 (1964) 307 59 76 107 116 183 292 336 565 1590
2020-08-04 10:30 2.99 408 2160 (1992) 36 (1964) 307 59 76 107 116 183 292 336 565 1590
2020-08-04 09:30 2.99 408 2160 (1992) 36 (1964) 307 59 76 107 116 183 292 336 565 1590
2020-08-04 08:30 2.99 408 2160 (1992) 36 (1964) 307 59 76 107 116 183 292 336 565 1590
2020-08-04 07:30 3.00 411 2160 (1992) 36 (1964) 307 59 76 107 116 183 292 336 565 1590
2020-08-04 06:30 3.00 411 2160 (1992) 36 (1964) 307 59 76 107 116 183 292 336 565 1590
2020-08-04 05:30 3.00 411 2160 (1992) 36 (1964) 307 59 76 107 116 183 292 336 565 1590
2020-08-04 04:30 3.00 411 2160 (1992) 36 (1964) 307 59 76 107 116 183 292 336 565 1590
2020-08-04 03:30 3.00 411 2160 (1992) 36 (1964) 307 59 76 107 116 183 292 336 565 1590
2020-08-04 02:30 2.99 408 2160 (1992) 36 (1964) 307 59 76 107 116 183 292 336 565 1590
2020-08-04 01:30 3.00 411 2160 (1992) 36 (1964) 307 59 76 107 116 183 292 336 565 1590
2020-08-04 00:30 3.00 411 2160 (1992) 36 (1964) 307 59 76 107 116 183 292 336 565 1590
2020-08-03 23:30 3.01 415 1740 (1958) 35 (1964) 263 59 77 106 122 186 289 308 505 758
2020-08-03 22:30 3.01 415 1740 (1958) 35 (1964) 263 59 77 106 122 186 289 308 505 758
2020-08-03 21:30 3.01 415 1740 (1958) 35 (1964) 263 59 77 106 122 186 289 308 505 758
2020-08-03 20:30 3.02 419 1740 (1958) 35 (1964) 263 59 77 106 122 186 289 308 505 758
2020-08-03 19:30 3.03 423 1740 (1958) 35 (1964) 263 59 77 106 122 186 289 308 505 758
2020-08-03 18:30 3.03 423 1740 (1958) 35 (1964) 263 59 77 106 122 186 289 308 505 758
2020-08-03 17:30 3.03 423 1740 (1958) 35 (1964) 263 59 77 106 122 186 289 308 505 758
2020-08-03 16:30 3.03 423 1740 (1958) 35 (1964) 263 59 77 106 122 186 289 308 505 758
2020-08-03 15:30 3.03 423 1740 (1958) 35 (1964) 263 59 77 106 122 186 289 308 505 758
2020-08-03 14:30 3.04 427 1740 (1958) 35 (1964) 263 59 77 106 122 186 289 308 505 758
2020-08-03 13:30 3.04 427 1740 (1958) 35 (1964) 263 59 77 106 122 186 289 308 505 758
2020-08-03 12:30 3.04 427 1740 (1958) 35 (1964) 263 59 77 106 122 186 289 308 505 758
2020-08-03 11:30 3.05 430 1740 (1958) 35 (1964) 263 59 77 106 122 186 289 308 505 758
2020-08-03 10:30 3.05 430 1740 (1958) 35 (1964) 263 59 77 106 122 186 289 308 505 758
2020-08-03 09:30 3.05 430 1740 (1958) 35 (1964) 263 59 77 106 122 186 289 308 505 758
2020-08-03 08:30 3.05 430 1740 (1958) 35 (1964) 263 59 77 106 122 186 289 308 505 758
2020-08-03 07:30 3.06 434 1740 (1958) 35 (1964) 263 59 77 106 122 186 289 308 505 758
2020-08-03 06:30 3.06 434 1740 (1958) 35 (1964) 263 59 77 106 122 186 289 308 505 758
2020-08-03 05:30 3.07 438 1740 (1958) 35 (1964) 263 59 77 106 122 186 289 308 505 758
2020-08-03 04:30 3.07 438 1740 (1958) 35 (1964) 263 59 77 106 122 186 289 308 505 758
2020-08-03 03:30 3.08 442 1740 (1958) 35 (1964) 263 59 77 106 122 186 289 308 505 758
2020-08-03 02:30 3.08 442 1740 (1958) 35 (1964) 263 59 77 106 122 186 289 308 505 758
2020-08-03 01:30 3.09 446 1740 (1958) 35 (1964) 263 59 77 106 122 186 289 308 505 758
2020-08-03 00:30 3.10 450 1740 (1958) 35 (1964) 263 59 77 106 122 186 289 308 505 758
2020-08-02 23:30 3.11 454 3590 (1962) 36 (1964) 327 59 81 106 119 195 298 324 467 845
2020-08-02 22:30 3.11 454 3590 (1962) 36 (1964) 327 59 81 106 119 195 298 324 467 845
2020-08-02 21:30 3.12 458 3590 (1962) 36 (1964) 327 59 81 106 119 195 298 324 467 845
2020-08-02 20:30 3.13 462 3590 (1962) 36 (1964) 327 59 81 106 119 195 298 324 467 845
2020-08-02 19:30 3.14 466 3590 (1962) 36 (1964) 327 59 81 106 119 195 298 324 467 845
2020-08-02 18:30 3.14 466 3590 (1962) 36 (1964) 327 59 81 106 119 195 298 324 467 845
2020-08-02 17:30 3.15 470 3590 (1962) 36 (1964) 327 59 81 106 119 195 298 324 467 845
2020-08-02 16:30 3.15 470 3590 (1962) 36 (1964) 327 59 81 106 119 195 298 324 467 845
2020-08-02 15:30 3.16 474 3590 (1962) 36 (1964) 327 59 81 106 119 195 298 324 467 845
2020-08-02 14:30 3.17 478 3590 (1962) 36 (1964) 327 59 81 106 119 195 298 324 467 845
2020-08-02 13:30 3.18 482 3590 (1962) 36 (1964) 327 59 81 106 119 195 298 324 467 845
2020-08-02 12:30 3.18 482 3590 (1962) 36 (1964) 327 59 81 106 119 195 298 324 467 845
2020-08-02 11:30 3.19 486 3590 (1962) 36 (1964) 327 59 81 106 119 195 298 324 467 845
2020-08-02 10:30 3.19 486 3590 (1962) 36 (1964) 327 59 81 106 119 195 298 324 467 845
2020-08-02 09:30 3.20 490 3590 (1962) 36 (1964) 327 59 81 106 119 195 298 324 467 845
2020-08-02 08:30 3.21 495 3590 (1962) 36 (1964) 327 59 81 106 119 195 298 324 467 845
2020-08-02 07:30 3.22 499 3590 (1962) 36 (1964) 327 59 81 106 119 195 298 324 467 845
2020-08-02 06:30 3.23 503 3590 (1962) 36 (1964) 327 59 81 106 119 195 298 324 467 845
2020-08-02 05:30 3.24 507 3590 (1962) 36 (1964) 327 59 81 106 119 195 298 324 467 845
2020-08-02 04:30 3.25 511 3590 (1962) 36 (1964) 327 59 81 106 119 195 298 324 467 845
2020-08-02 03:30 3.26 516 3590 (1962) 36 (1964) 327 59 81 106 119 195 298 324 467 845
2020-08-02 02:30 3.26 516 3590 (1962) 36 (1964) 327 59 81 106 119 195 298 324 467 845
2020-08-02 01:30 3.27 520 3590 (1962) 36 (1964) 327 59 81 106 119 195 298 324 467 845
2020-08-02 00:30 3.29 529 3590 (1962) 36 (1964) 327 59 81 106 119 195 298 324 467 845
2020-08-01 23:30 3.30 533 4250 (1962) 36 (1964) 357 57 77 118 126 205 325 377 682 1170
2020-08-01 22:30 3.31 537 4250 (1962) 36 (1964) 357 57 77 118 126 205 325 377 682 1170
2020-08-01 21:30 3.33 546 4250 (1962) 36 (1964) 357 57 77 118 126 205 325 377 682 1170
2020-08-01 20:30 3.34 550 4250 (1962) 36 (1964) 357 57 77 118 126 205 325 377 682 1170
2020-08-01 19:30 3.35 555 4250 (1962) 36 (1964) 357 57 77 118 126 205 325 377 682 1170
2020-08-01 18:30 3.36 559 4250 (1962) 36 (1964) 357 57 77 118 126 205 325 377 682 1170
2020-08-01 17:30 3.37 564 4250 (1962) 36 (1964) 357 57 77 118 126 205 325 377 682 1170
2020-08-01 16:30 3.39 573 4250 (1962) 36 (1964) 357 57 77 118 126 205 325 377 682 1170
2020-08-01 15:30 3.40 577 4250 (1962) 36 (1964) 357 57 77 118 126 205 325 377 682 1170
2020-08-01 14:30 3.41 582 4250 (1962) 36 (1964) 357 57 77 118 126 205 325 377 682 1170
2020-08-01 13:30 3.42 586 4250 (1962) 36 (1964) 357 57 77 118 126 205 325 377 682 1170
2020-08-01 12:30 3.43 591 4250 (1962) 36 (1964) 357 57 77 118 126 205 325 377 682 1170
2020-08-01 11:30 3.44 596 4250 (1962) 36 (1964) 357 57 77 118 126 205 325 377 682 1170
2020-08-01 10:30 3.45 600 4250 (1962) 36 (1964) 357 57 77 118 126 205 325 377 682 1170
2020-08-01 09:30 3.46 605 4250 (1962) 36 (1964) 357 57 77 118 126 205 325 377 682 1170
2020-08-01 08:30 3.47 610 4250 (1962) 36 (1964) 357 57 77 118 126 205 325 377 682 1170
2020-08-01 07:30 3.47 610 4250 (1962) 36 (1964) 357 57 77 118 126 205 325 377 682 1170
2020-08-01 06:30 3.48 614 4250 (1962) 36 (1964) 357 57 77 118 126 205 325 377 682 1170
2020-08-01 05:30 3.48 614 4250 (1962) 36 (1964) 357 57 77 118 126 205 325 377 682 1170
2020-08-01 04:30 3.48 614 4250 (1962) 36 (1964) 357 57 77 118 126 205 325 377 682 1170
2020-08-01 03:30 3.49 619 4250 (1962) 36 (1964) 357 57 77 118 126 205 325 377 682 1170
2020-08-01 02:30 3.49 619 4250 (1962) 36 (1964) 357 57 77 118 126 205 325 377 682 1170
2020-08-01 01:30 3.50 624 4250 (1962) 36 (1964) 357 57 77 118 126 205 325 377 682 1170
2020-08-01 00:30 3.50 624 4250 (1962) 36 (1964) 357 57 77 118 126 205 325 377 682 1170
2020-07-31 23:30 3.50 624 2520 (1992) 37 (1964) 333 63 74 121 135 200 330 379 686 1320
2020-07-31 22:30 3.50 624 2520 (1992) 37 (1964) 333 63 74 121 135 200 330 379 686 1320
2020-07-31 21:30 3.50 624 2520 (1992) 37 (1964) 333 63 74 121 135 200 330 379 686 1320
2020-07-31 20:30 3.51 629 2520 (1992) 37 (1964) 333 63 74 121 135 200 330 379 686 1320
2020-07-31 19:30 3.52 633 2520 (1992) 37 (1964) 333 63 74 121 135 200 330 379 686 1320
2020-07-31 18:30 3.54 643 2520 (1992) 37 (1964) 333 63 74 121 135 200 330 379 686 1320
2020-07-31 17:30 3.55 648 2520 (1992) 37 (1964) 333 63 74 121 135 200 330 379 686 1320
2020-07-31 16:30 3.56 653 2520 (1992) 37 (1964) 333 63 74 121 135 200 330 379 686 1320
2020-07-31 15:30 3.58 662 2520 (1992) 37 (1964) 333 63 74 121 135 200 330 379 686 1320
2020-07-31 14:30 3.61 677 2520 (1992) 37 (1964) 333 63 74 121 135 200 330 379 686 1320
2020-07-31 13:30 3.63 687 2520 (1992) 37 (1964) 333 63 74 121 135 200 330 379 686 1320
2020-07-31 12:30 3.67 707 2520 (1992) 37 (1964) 333 63 74 121 135 200 330 379 686 1320
2020-07-31 11:30 3.70 723 2520 (1992) 37 (1964) 333 63 74 121 135 200 330 379 686 1320
2020-07-31 10:30 3.74 743 2520 (1992) 37 (1964) 333 63 74 121 135 200 330 379 686 1320
2020-07-31 09:30 3.78 764 2520 (1992) 37 (1964) 333 63 74 121 135 200 330 379 686 1320
2020-07-31 08:30 3.83 791 2520 (1992) 37 (1964) 333 63 74 121 135 200 330 379 686 1320
2020-07-31 07:30 3.87 813 2520 (1992) 37 (1964) 333 63 74 121 135 200 330 379 686 1320
2020-07-31 06:30 3.92 841 2520 (1992) 37 (1964) 333 63 74 121 135 200 330 379 686 1320
2020-07-31 05:30 3.97 869 2520 (1992) 37 (1964) 333 63 74 121 135 200 330 379 686 1320
2020-07-31 04:30 3.99 880 2520 (1992) 37 (1964) 333 63 74 121 135 200 330 379 686 1320
2020-07-31 03:30 3.98 875 2520 (1992) 37 (1964) 333 63 74 121 135 200 330 379 686 1320
2020-07-31 02:30 3.93 846 2520 (1992) 37 (1964) 333 63 74 121 135 200 330 379 686 1320
2020-07-31 01:30 3.84 797 2520 (1992) 37 (1964) 333 63 74 121 135 200 330 379 686 1320
2020-07-31 00:30 3.65 697 2520 (1992) 37 (1964) 333 63 74 121 135 200 330 379 686 1320
2020-07-30 23:30 3.54 643 1980 (2004) 38 (1964) 299 66 79 126 138 202 344 379 488 1030
2020-07-30 22:30 3.48 614 1980 (2004) 38 (1964) 299 66 79 126 138 202 344 379 488 1030
2020-07-30 21:30 3.43 591 1980 (2004) 38 (1964) 299 66 79 126 138 202 344 379 488 1030
2020-07-30 20:30 3.40 577 1980 (2004) 38 (1964) 299 66 79 126 138 202 344 379 488 1030
2020-07-30 19:30 3.37 564 1980 (2004) 38 (1964) 299 66 79 126 138 202 344 379 488 1030
2020-07-30 18:30 3.35 555 1980 (2004) 38 (1964) 299 66 79 126 138 202 344 379 488 1030
2020-07-30 17:30 3.33 546 1980 (2004) 38 (1964) 299 66 79 126 138 202 344 379 488 1030
2020-07-30 16:30 3.32 542 1980 (2004) 38 (1964) 299 66 79 126 138 202 344 379 488 1030
2020-07-30 15:30 3.31 537 1980 (2004) 38 (1964) 299 66 79 126 138 202 344 379 488 1030
2020-07-30 14:30 3.31 537 1980 (2004) 38 (1964) 299 66 79 126 138 202 344 379 488 1030
2020-07-30 13:30 3.30 533 1980 (2004) 38 (1964) 299 66 79 126 138 202 344 379 488 1030
2020-07-30 12:30 3.29 529 1980 (2004) 38 (1964) 299 66 79 126 138 202 344 379 488 1030
2020-07-30 11:30 3.27 520 1980 (2004) 38 (1964) 299 66 79 126 138 202 344 379 488 1030
2020-07-30 10:30 3.25 511 1980 (2004) 38 (1964) 299 66 79 126 138 202 344 379 488 1030
2020-07-30 09:30 3.23 503 1980 (2004) 38 (1964) 299 66 79 126 138 202 344 379 488 1030
2020-07-30 08:30 3.19 486 1980 (2004) 38 (1964) 299 66 79 126 138 202 344 379 488 1030
2020-07-30 07:30 3.15 470 1980 (2004) 38 (1964) 299 66 79 126 138 202 344 379 488 1030
2020-07-30 06:30 3.11 454 1980 (2004) 38 (1964) 299 66 79 126 138 202 344 379 488 1030
2020-07-30 05:30 3.10 450 1980 (2004) 38 (1964) 299 66 79 126 138 202 344 379 488 1030
2020-07-30 04:30 3.10 450 1980 (2004) 38 (1964) 299 66 79 126 138 202 344 379 488 1030
2020-07-30 03:30 3.10 450 1980 (2004) 38 (1964) 299 66 79 126 138 202 344 379 488 1030
2020-07-30 02:30 3.09 446 1980 (2004) 38 (1964) 299 66 79 126 138 202 344 379 488 1030
2020-07-30 01:30 3.08 442 1980 (2004) 38 (1964) 299 66 79 126 138 202 344 379 488 1030
2020-07-30 00:30 3.09 446 1980 (2004) 38 (1964) 299 66 79 126 138 202 344 379 488 1030
2020-07-29 23:30 3.08 442 3520 (1958) 39 (1964) 304 59 87 121 129 203 369 384 570 657
2020-07-29 22:30 3.08 442 3520 (1958) 39 (1964) 304 59 87 121 129 203 369 384 570 657
2020-07-29 21:30 3.09 446 3520 (1958) 39 (1964) 304 59 87 121 129 203 369 384 570 657
2020-07-29 20:30 3.10 450 3520 (1958) 39 (1964) 304 59 87 121 129 203 369 384 570 657
2020-07-29 19:30 3.10 450 3520 (1958) 39 (1964) 304 59 87 121 129 203 369 384 570 657
2020-07-29 18:30 3.10 450 3520 (1958) 39 (1964) 304 59 87 121 129 203 369 384 570 657
2020-07-29 17:30 3.11 454 3520 (1958) 39 (1964) 304 59 87 121 129 203 369 384 570 657
2020-07-29 16:30 3.12 458 3520 (1958) 39 (1964) 304 59 87 121 129 203 369 384 570 657
2020-07-29 15:30 3.12 458 3520 (1958) 39 (1964) 304 59 87 121 129 203 369 384 570 657
2020-07-29 14:30 3.13 462 3520 (1958) 39 (1964) 304 59 87 121 129 203 369 384 570 657
2020-07-29 13:30 3.12 458 3520 (1958) 39 (1964) 304 59 87 121 129 203 369 384 570 657
2020-07-29 12:30 3.11 454 3520 (1958) 39 (1964) 304 59 87 121 129 203 369 384 570 657
2020-07-29 11:30 3.09 446 3520 (1958) 39 (1964) 304 59 87 121 129 203 369 384 570 657
2020-07-29 10:30 3.10 450 3520 (1958) 39 (1964) 304 59 87 121 129 203 369 384 570 657
2020-07-29 09:30 3.10 450 3520 (1958) 39 (1964) 304 59 87 121 129 203 369 384 570 657
2020-07-29 08:30 3.11 454 3520 (1958) 39 (1964) 304 59 87 121 129 203 369 384 570 657
2020-07-29 07:30 3.12 458 3520 (1958) 39 (1964) 304 59 87 121 129 203 369 384 570 657
2020-07-29 06:30 3.13 462 3520 (1958) 39 (1964) 304 59 87 121 129 203 369 384 570 657
2020-07-29 05:30 3.14 466 3520 (1958) 39 (1964) 304 59 87 121 129 203 369 384 570 657
2020-07-29 04:30 3.15 470 3520 (1958) 39 (1964) 304 59 87 121 129 203 369 384 570 657
2020-07-29 03:30 3.16 474 3520 (1958) 39 (1964) 304 59 87 121 129 203 369 384 570 657
2020-07-29 02:30 3.18 482 3520 (1958) 39 (1964) 304 59 87 121 129 203 369 384 570 657
2020-07-29 01:30 3.19 486 3520 (1958) 39 (1964) 304 59 87 121 129 203 369 384 570 657
2020-07-29 00:30 3.21 495 3520 (1958) 39 (1964) 304 59 87 121 129 203 369 384 570 657
2020-07-28 23:30 3.24 507 2870 (1958) 39 (1964) 335 62 74 117 126 192 317 399 586 1310
2020-07-28 22:30 3.26 516 2870 (1958) 39 (1964) 335 62 74 117 126 192 317 399 586 1310
2020-07-28 21:30 3.28 524 2870 (1958) 39 (1964) 335 62 74 117 126 192 317 399 586 1310
2020-07-28 20:30 3.31 537 2870 (1958) 39 (1964) 335 62 74 117 126 192 317 399 586 1310
2020-07-28 19:30 3.34 550 2870 (1958) 39 (1964) 335 62 74 117 126 192 317 399 586 1310
2020-07-28 18:30 3.38 568 2870 (1958) 39 (1964) 335 62 74 117 126 192 317 399 586 1310
2020-07-28 17:30 3.41 582 2870 (1958) 39 (1964) 335 62 74 117 126 192 317 399 586 1310
2020-07-28 16:30 3.44 596 2870 (1958) 39 (1964) 335 62 74 117 126 192 317 399 586 1310
2020-07-28 15:30 3.46 605 2870 (1958) 39 (1964) 335 62 74 117 126 192 317 399 586 1310
2020-07-28 14:30 3.44 596 2870 (1958) 39 (1964) 335 62 74 117 126 192 317 399 586 1310
2020-07-28 13:30 3.39 573 2870 (1958) 39 (1964) 335 62 74 117 126 192 317 399 586 1310
2020-07-28 12:30 3.26 516 2870 (1958) 39 (1964) 335 62 74 117 126 192 317 399 586 1310
2020-07-28 11:30 3.12 458 2870 (1958) 39 (1964) 335 62 74 117 126 192 317 399 586 1310
2020-07-28 10:30 2.95 393 2870 (1958) 39 (1964) 335 62 74 117 126 192 317 399 586 1310
2020-07-28 09:30 2.91 378 2870 (1958) 39 (1964) 335 62 74 117 126 192 317 399 586 1310
2020-07-28 08:30 2.91 378 2870 (1958) 39 (1964) 335 62 74 117 126 192 317 399 586 1310
2020-07-28 07:30 2.91 378 2870 (1958) 39 (1964) 335 62 74 117 126 192 317 399 586 1310
2020-07-28 06:30 2.91 378 2870 (1958) 39 (1964) 335 62 74 117 126 192 317 399 586 1310
2020-07-28 05:30 2.91 378 2870 (1958) 39 (1964) 335 62 74 117 126 192 317 399 586 1310
2020-07-28 04:30 2.90 375 2870 (1958) 39 (1964) 335 62 74 117 126 192 317 399 586 1310
2020-07-28 03:30 2.90 375 2870 (1958) 39 (1964) 335 62 74 117 126 192 317 399 586 1310
2020-07-28 02:30 2.90 375 2870 (1958) 39 (1964) 335 62 74 117 126 192 317 399 586 1310
2020-07-28 01:30 2.90 375 2870 (1958) 39 (1964) 335 62 74 117 126 192 317 399 586 1310
2020-07-28 00:30 2.91 378 2870 (1958) 39 (1964) 335 62 74 117 126 192 317 399 586 1310
2020-07-27 23:30 2.91 378 2120 (1960) 39 (1964) 328 63 78 118 121 195 312 428 817 1410
2020-07-27 22:30 2.91 378 2120 (1960) 39 (1964) 328 63 78 118 121 195 312 428 817 1410
2020-07-27 21:30 2.92 382 2120 (1960) 39 (1964) 328 63 78 118 121 195 312 428 817 1410
2020-07-27 20:30 2.92 382 2120 (1960) 39 (1964) 328 63 78 118 121 195 312 428 817 1410
2020-07-27 19:30 2.92 382 2120 (1960) 39 (1964) 328 63 78 118 121 195 312 428 817 1410
2020-07-27 18:30 2.92 382 2120 (1960) 39 (1964) 328 63 78 118 121 195 312 428 817 1410
2020-07-27 17:30 2.92 382 2120 (1960) 39 (1964) 328 63 78 118 121 195 312 428 817 1410
2020-07-27 16:30 2.92 382 2120 (1960) 39 (1964) 328 63 78 118 121 195 312 428 817 1410
2020-07-27 15:30 2.92 382 2120 (1960) 39 (1964) 328 63 78 118 121 195 312 428 817 1410
2020-07-27 14:30 2.92 382 2120 (1960) 39 (1964) 328 63 78 118 121 195 312 428 817 1410
2020-07-27 13:30 2.93 386 2120 (1960) 39 (1964) 328 63 78 118 121 195 312 428 817 1410
2020-07-27 12:30 2.93 386 2120 (1960) 39 (1964) 328 63 78 118 121 195 312 428 817 1410
2020-07-27 11:30 2.93 386 2120 (1960) 39 (1964) 328 63 78 118 121 195 312 428 817 1410
2020-07-27 10:30 2.93 386 2120 (1960) 39 (1964) 328 63 78 118 121 195 312 428 817 1410
2020-07-27 09:30 2.93 386 2120 (1960) 39 (1964) 328 63 78 118 121 195 312 428 817 1410
2020-07-27 08:30 2.93 386 2120 (1960) 39 (1964) 328 63 78 118 121 195 312 428 817 1410
2020-07-27 07:30 2.93 386 2120 (1960) 39 (1964) 328 63 78 118 121 195 312 428 817 1410
2020-07-27 06:30 2.93 386 2120 (1960) 39 (1964) 328 63 78 118 121 195 312 428 817 1410
2020-07-27 05:30 2.93 386 2120 (1960) 39 (1964) 328 63 78 118 121 195 312 428 817 1410
2020-07-27 04:30 2.94 389 2120 (1960) 39 (1964) 328 63 78 118 121 195 312 428 817 1410
2020-07-27 03:30 2.94 389 2120 (1960) 39 (1964) 328 63 78 118 121 195 312 428 817 1410
2020-07-27 02:30 2.95 393 2120 (1960) 39 (1964) 328 63 78 118 121 195 312 428 817 1410
2020-07-27 01:30 2.95 393 2120 (1960) 39 (1964) 328 63 78 118 121 195 312 428 817 1410
2020-07-27 00:30 2.96 397 2120 (1960) 39 (1964) 328 63 78 118 121 195 312 428 817 1410
2020-07-26 23:30 2.96 397 12000 (1960) 39 (1964) 465 64 76 111 134 199 294 357 716 1300
2020-07-26 22:30 2.96 397 12000 (1960) 39 (1964) 465 64 76 111 134 199 294 357 716 1300
2020-07-26 21:30 2.97 400 12000 (1960) 39 (1964) 465 64 76 111 134 199 294 357 716 1300
2020-07-26 20:30 2.97 400 12000 (1960) 39 (1964) 465 64 76 111 134 199 294 357 716 1300
2020-07-26 19:30 2.97 400 12000 (1960) 39 (1964) 465 64 76 111 134 199 294 357 716 1300
2020-07-26 18:30 2.98 404 12000 (1960) 39 (1964) 465 64 76 111 134 199 294 357 716 1300
2020-07-26 17:30 2.98 404 12000 (1960) 39 (1964) 465 64 76 111 134 199 294 357 716 1300
2020-07-26 16:30 2.98 404 12000 (1960) 39 (1964) 465 64 76 111 134 199 294 357 716 1300
2020-07-26 15:30 2.98 404 12000 (1960) 39 (1964) 465 64 76 111 134 199 294 357 716 1300
2020-07-26 14:30 2.99 408 12000 (1960) 39 (1964) 465 64 76 111 134 199 294 357 716 1300
2020-07-26 13:30 3.00 411 12000 (1960) 39 (1964) 465 64 76 111 134 199 294 357 716 1300
2020-07-26 12:30 3.01 415 12000 (1960) 39 (1964) 465 64 76 111 134 199 294 357 716 1300
2020-07-26 11:30 3.01 415 12000 (1960) 39 (1964) 465 64 76 111 134 199 294 357 716 1300
2020-07-26 10:30 3.01 415 12000 (1960) 39 (1964) 465 64 76 111 134 199 294 357 716 1300
2020-07-26 09:30 3.01 415 12000 (1960) 39 (1964) 465 64 76 111 134 199 294 357 716 1300
2020-07-26 08:30 3.01 415 12000 (1960) 39 (1964) 465 64 76 111 134 199 294 357 716 1300
2020-07-26 07:30 3.01 415 12000 (1960) 39 (1964) 465 64 76 111 134 199 294 357 716 1300
2020-07-26 06:30 3.01 415 12000 (1960) 39 (1964) 465 64 76 111 134 199 294 357 716 1300
2020-07-26 05:30 3.01 415 12000 (1960) 39 (1964) 465 64 76 111 134 199 294 357 716 1300
2020-07-26 04:30 3.01 415 12000 (1960) 39 (1964) 465 64 76 111 134 199 294 357 716 1300
2020-07-26 03:30 3.01 415 12000 (1960) 39 (1964) 465 64 76 111 134 199 294 357 716 1300
2020-07-26 02:30 3.01 415 12000 (1960) 39 (1964) 465 64 76 111 134 199 294 357 716 1300
2020-07-26 01:30 3.02 419 12000 (1960) 39 (1964) 465 64 76 111 134 199 294 357 716 1300
2020-07-26 00:30 3.02 419 12000 (1960) 39 (1964) 465 64 76 111 134 199 294 357 716 1300
2020-07-25 23:30 3.03 423 23700 (1960) 39 (1964) 657 61 76 123 133 207 288 368 715 1010
2020-07-25 22:30 3.03 423 23700 (1960) 39 (1964) 657 61 76 123 133 207 288 368 715 1010
2020-07-25 21:30 3.04 427 23700 (1960) 39 (1964) 657 61 76 123 133 207 288 368 715 1010
2020-07-25 20:30 3.04 427 23700 (1960) 39 (1964) 657 61 76 123 133 207 288 368 715 1010
2020-07-25 19:30 3.05 430 23700 (1960) 39 (1964) 657 61 76 123 133 207 288 368 715 1010
2020-07-25 18:30 3.05 430 23700 (1960) 39 (1964) 657 61 76 123 133 207 288 368 715 1010
2020-07-25 17:30 3.05 430 23700 (1960) 39 (1964) 657 61 76 123 133 207 288 368 715 1010
2020-07-25 16:30 3.06 434 23700 (1960) 39 (1964) 657 61 76 123 133 207 288 368 715 1010
2020-07-25 15:30 3.06 434 23700 (1960) 39 (1964) 657 61 76 123 133 207 288 368 715 1010
2020-07-25 14:30 3.07 438 23700 (1960) 39 (1964) 657 61 76 123 133 207 288 368 715 1010
2020-07-25 13:30 3.08 442 23700 (1960) 39 (1964) 657 61 76 123 133 207 288 368 715 1010
2020-07-25 12:30 3.08 442 23700 (1960) 39 (1964) 657 61 76 123 133 207 288 368 715 1010
2020-07-25 11:30 3.09 446 23700 (1960) 39 (1964) 657 61 76 123 133 207 288 368 715 1010
2020-07-25 10:30 3.09 446 23700 (1960) 39 (1964) 657 61 76 123 133 207 288 368 715 1010
2020-07-25 09:30 3.09 446 23700 (1960) 39 (1964) 657 61 76 123 133 207 288 368 715 1010
2020-07-25 08:30 3.10 450 23700 (1960) 39 (1964) 657 61 76 123 133 207 288 368 715 1010
2020-07-25 07:30 3.11 454 23700 (1960) 39 (1964) 657 61 76 123 133 207 288 368 715 1010
2020-07-25 06:30 3.11 454 23700 (1960) 39 (1964) 657 61 76 123 133 207 288 368 715 1010
2020-07-25 05:30 3.11 454 23700 (1960) 39 (1964) 657 61 76 123 133 207 288 368 715 1010
2020-07-25 04:30 3.12 458 23700 (1960) 39 (1964) 657 61 76 123 133 207 288 368 715 1010
2020-07-25 03:30 3.12 458 23700 (1960) 39 (1964) 657 61 76 123 133 207 288 368 715 1010
2020-07-25 02:30 3.13 462 23700 (1960) 39 (1964) 657 61 76 123 133 207 288 368 715 1010
2020-07-25 01:30 3.14 466 23700 (1960) 39 (1964) 657 61 76 123 133 207 288 368 715 1010
2020-07-25 00:30 3.15 470 23700 (1960) 39 (1964) 657 61 76 123 133 207 288 368 715 1010
2020-07-24 23:30 3.15 470 2070 (1959) 39 (1964) 299 61 78 122 130 211 281 319 576 1220
2020-07-24 22:30 3.16 474 2070 (1959) 39 (1964) 299 61 78 122 130 211 281 319 576 1220
2020-07-24 21:30 3.17 478 2070 (1959) 39 (1964) 299 61 78 122 130 211 281 319 576 1220
2020-07-24 20:30 3.18 482 2070 (1959) 39 (1964) 299 61 78 122 130 211 281 319 576 1220
2020-07-24 19:30 3.18 482 2070 (1959) 39 (1964) 299 61 78 122 130 211 281 319 576 1220
2020-07-24 18:30 3.19 486 2070 (1959) 39 (1964) 299 61 78 122 130 211 281 319 576 1220
2020-07-24 17:30 3.20 490 2070 (1959) 39 (1964) 299 61 78 122 130 211 281 319 576 1220
2020-07-24 16:30 3.20 490 2070 (1959) 39 (1964) 299 61 78 122 130 211 281 319 576 1220
2020-07-24 15:30 3.21 495 2070 (1959) 39 (1964) 299 61 78 122 130 211 281 319 576 1220
2020-07-24 14:30 3.22 499 2070 (1959) 39 (1964) 299 61 78 122 130 211 281 319 576 1220
2020-07-24 13:30 3.23 503 2070 (1959) 39 (1964) 299 61 78 122 130 211 281 319 576 1220
2020-07-24 12:30 3.24 507 2070 (1959) 39 (1964) 299 61 78 122 130 211 281 319 576 1220
2020-07-24 11:30 3.25 511 2070 (1959) 39 (1964) 299 61 78 122 130 211 281 319 576 1220
2020-07-24 10:30 3.26 516 2070 (1959) 39 (1964) 299 61 78 122 130 211 281 319 576 1220
2020-07-24 09:30 3.27 520 2070 (1959) 39 (1964) 299 61 78 122 130 211 281 319 576 1220
2020-07-24 08:30 3.28 524 2070 (1959) 39 (1964) 299 61 78 122 130 211 281 319 576 1220
2020-07-24 07:30 3.29 529 2070 (1959) 39 (1964) 299 61 78 122 130 211 281 319 576 1220
2020-07-24 06:30 3.30 533 2070 (1959) 39 (1964) 299 61 78 122 130 211 281 319 576 1220
2020-07-24 05:30 3.31 537 2070 (1959) 39 (1964) 299 61 78 122 130 211 281 319 576 1220
2020-07-24 04:30 3.32 542 2070 (1959) 39 (1964) 299 61 78 122 130 211 281 319 576 1220
2020-07-24 03:30 3.34 550 2070 (1959) 39 (1964) 299 61 78 122 130 211 281 319 576 1220
2020-07-24 02:30 3.35 555 2070 (1959) 39 (1964) 299 61 78 122 130 211 281 319 576 1220
2020-07-24 01:30 3.37 564 2070 (1959) 39 (1964) 299 61 78 122 130 211 281 319 576 1220
2020-07-24 00:30 3.39 573 2070 (1959) 39 (1964) 299 61 78 122 130 211 281 319 576 1220
2020-07-23 23:30 3.41 582 7960 (1959) 39 (1984) 390 58 81 119 128 208 309 343 492 1120
2020-07-23 22:30 3.43 591 7960 (1959) 39 (1984) 390 58 81 119 128 208 309 343 492 1120
2020-07-23 21:30 3.46 605 7960 (1959) 39 (1984) 390 58 81 119 128 208 309 343 492 1120
2020-07-23 20:30 3.48 614 7960 (1959) 39 (1984) 390 58 81 119 128 208 309 343 492 1120
2020-07-23 19:30 3.50 624 7960 (1959) 39 (1984) 390 58 81 119 128 208 309 343 492 1120
2020-07-23 18:30 3.52 633 7960 (1959) 39 (1984) 390 58 81 119 128 208 309 343 492 1120
2020-07-23 17:30 3.54 643 7960 (1959) 39 (1984) 390 58 81 119 128 208 309 343 492 1120
2020-07-23 16:30 3.56 653 7960 (1959) 39 (1984) 390 58 81 119 128 208 309 343 492 1120
2020-07-23 15:30 3.58 662 7960 (1959) 39 (1984) 390 58 81 119 128 208 309 343 492 1120
2020-07-23 14:30 3.60 672 7960 (1959) 39 (1984) 390 58 81 119 128 208 309 343 492 1120
2020-07-23 13:30 3.63 687 7960 (1959) 39 (1984) 390 58 81 119 128 208 309 343 492 1120
2020-07-23 12:30 3.65 697 7960 (1959) 39 (1984) 390 58 81 119 128 208 309 343 492 1120
2020-07-23 11:30 3.68 712 7960 (1959) 39 (1984) 390 58 81 119 128 208 309 343 492 1120
2020-07-23 10:30 3.71 728 7960 (1959) 39 (1984) 390 58 81 119 128 208 309 343 492 1120
2020-07-23 09:30 3.75 749 7960 (1959) 39 (1984) 390 58 81 119 128 208 309 343 492 1120
2020-07-23 08:30 3.79 770 7960 (1959) 39 (1984) 390 58 81 119 128 208 309 343 492 1120
2020-07-23 07:30 3.85 802 7960 (1959) 39 (1984) 390 58 81 119 128 208 309 343 492 1120
2020-07-23 06:30 3.91 835 7960 (1959) 39 (1984) 390 58 81 119 128 208 309 343 492 1120
2020-07-23 05:30 3.98 875 7960 (1959) 39 (1984) 390 58 81 119 128 208 309 343 492 1120
2020-07-23 04:30 4.08 933 7960 (1959) 39 (1984) 390 58 81 119 128 208 309 343 492 1120
2020-07-23 03:30 4.20 1010 7960 (1959) 39 (1984) 390 58 81 119 128 208 309 343 492 1120
2020-07-23 02:30 4.35 1100 7960 (1959) 39 (1984) 390 58 81 119 128 208 309 343 492 1120
2020-07-23 01:30 4.50 1200 7960 (1959) 39 (1984) 390 58 81 119 128 208 309 343 492 1120
2020-07-23 00:30 4.71 1350 7960 (1959) 39 (1984) 390 58 81 119 128 208 309 343 492 1120
2020-07-22 23:30 4.97 1540 2430 (2015) 40 (1964) 278 56 82 107 122 195 300 338 469 827
2020-07-22 22:30 5.25 1750 2430 (2015) 40 (1964) 278 56 82 107 122 195 300 338 469 827
2020-07-22 21:30 5.59 2030 2430 (2015) 40 (1964) 278 56 82 107 122 195 300 338 469 827
2020-07-22 20:30 5.93 2320 2430 (2015) 40 (1964) 278 56 82 107 122 195 300 338 469 827
2020-07-22 19:30 6.26 2610 2430 (2015) 40 (1964) 278 56 82 107 122 195 300 338 469 827
2020-07-22 18:30 6.39 2730 2430 (2015) 40 (1964) 278 56 82 107 122 195 300 338 469 827
2020-07-22 17:30 6.36 2700 2430 (2015) 40 (1964) 278 56 82 107 122 195 300 338 469 827
2020-07-22 16:30 5.94 2330 2430 (2015) 40 (1964) 278 56 82 107 122 195 300 338 469 827
2020-07-22 15:30 4.97 1540 2430 (2015) 40 (1964) 278 56 82 107 122 195 300 338 469 827
2020-07-22 14:30 3.51 629 2430 (2015) 40 (1964) 278 56 82 107 122 195 300 338 469 827
2020-07-22 13:30 2.95 393 2430 (2015) 40 (1964) 278 56 82 107 122 195 300 338 469 827
2020-07-22 12:30 2.94 389 2430 (2015) 40 (1964) 278 56 82 107 122 195 300 338 469 827
2020-07-22 11:30 2.95 393 2430 (2015) 40 (1964) 278 56 82 107 122 195 300 338 469 827
2020-07-22 10:30 2.95 393 2430 (2015) 40 (1964) 278 56 82 107 122 195 300 338 469 827
2020-07-22 09:30 2.95 393 2430 (2015) 40 (1964) 278 56 82 107 122 195 300 338 469 827
2020-07-22 08:30 2.95 393 2430 (2015) 40 (1964) 278 56 82 107 122 195 300 338 469 827
2020-07-22 07:30 2.95 393 2430 (2015) 40 (1964) 278 56 82 107 122 195 300 338 469 827
2020-07-22 06:30 2.95 393 2430 (2015) 40 (1964) 278 56 82 107 122 195 300 338 469 827
2020-07-22 05:30 2.95 393 2430 (2015) 40 (1964) 278 56 82 107 122 195 300 338 469 827
2020-07-22 04:30 2.95 393 2430 (2015) 40 (1964) 278 56 82 107 122 195 300 338 469 827
2020-07-22 03:30 2.95 393 2430 (2015) 40 (1964) 278 56 82 107 122 195 300 338 469 827
2020-07-22 02:30 2.95 393 2430 (2015) 40 (1964) 278 56 82 107 122 195 300 338 469 827
2020-07-22 01:30 2.94 389 2430 (2015) 40 (1964) 278 56 82 107 122 195 300 338 469 827
2020-07-22 00:30 2.94 389 2430 (2015) 40 (1964) 278 56 82 107 122 195 300 338 469 827
2020-07-21 23:30 2.94 389 1380 (1958) 37 (1984) 249 56 82 108 117 190 268 333 492 652
2020-07-21 22:30 2.94 389 1380 (1958) 37 (1984) 249 56 82 108 117 190 268 333 492 652
2020-07-21 21:30 2.94 389 1380 (1958) 37 (1984) 249 56 82 108 117 190 268 333 492 652
2020-07-21 20:30 2.95 393 1380 (1958) 37 (1984) 249 56 82 108 117 190 268 333 492 652
2020-07-21 19:30 2.95 393 1380 (1958) 37 (1984) 249 56 82 108 117 190 268 333 492 652
2020-07-21 18:30 2.95 393 1380 (1958) 37 (1984) 249 56 82 108 117 190 268 333 492 652
2020-07-21 17:30 2.95 393 1380 (1958) 37 (1984) 249 56 82 108 117 190 268 333 492 652
2020-07-21 16:30 2.95 393 1380 (1958) 37 (1984) 249 56 82 108 117 190 268 333 492 652
2020-07-21 15:30 2.95 393 1380 (1958) 37 (1984) 249 56 82 108 117 190 268 333 492 652
2020-07-21 14:30 2.95 393 1380 (1958) 37 (1984) 249 56 82 108 117 190 268 333 492 652
2020-07-21 13:30 2.95 393 1380 (1958) 37 (1984) 249 56 82 108 117 190 268 333 492 652
2020-07-21 12:30 2.95 393 1380 (1958) 37 (1984) 249 56 82 108 117 190 268 333 492 652
2020-07-21 11:30 2.95 393 1380 (1958) 37 (1984) 249 56 82 108 117 190 268 333 492 652
2020-07-21 10:30 2.95 393 1380 (1958) 37 (1984) 249 56 82 108 117 190 268 333 492 652
2020-07-21 09:30 2.94 389 1380 (1958) 37 (1984) 249 56 82 108 117 190 268 333 492 652
2020-07-21 08:30 2.94 389 1380 (1958) 37 (1984) 249 56 82 108 117 190 268 333 492 652
2020-07-21 07:30 2.94 389 1380 (1958) 37 (1984) 249 56 82 108 117 190 268 333 492 652
2020-07-21 06:30 2.93 386 1380 (1958) 37 (1984) 249 56 82 108 117 190 268 333 492 652
2020-07-21 05:30 2.93 386 1380 (1958) 37 (1984) 249 56 82 108 117 190 268 333 492 652
2020-07-21 04:30 2.93 386 1380 (1958) 37 (1984) 249 56 82 108 117 190 268 333 492 652
2020-07-21 03:30 2.94 389 1380 (1958) 37 (1984) 249 56 82 108 117 190 268 333 492 652
2020-07-21 02:30 2.94 389 1380 (1958) 37 (1984) 249 56 82 108 117 190 268 333 492 652
2020-07-21 01:30 2.94 389 1380 (1958) 37 (1984) 249 56 82 108 117 190 268 333 492 652
2020-07-21 00:30 2.95 393 1380 (1958) 37 (1984) 249 56 82 108 117 190 268 333 492 652
2020-07-20 23:30 2.95 393 801 (2010) 32 (1984) 240 55 77 108 118 192 279 333 478 676
2020-07-20 22:30 2.95 393 801 (2010) 32 (1984) 240 55 77 108 118 192 279 333 478 676
2020-07-20 21:30 2.95 393 801 (2010) 32 (1984) 240 55 77 108 118 192 279 333 478 676
2020-07-20 20:30 2.95 393 801 (2010) 32 (1984) 240 55 77 108 118 192 279 333 478 676
2020-07-20 19:30 2.96 397 801 (2010) 32 (1984) 240 55 77 108 118 192 279 333 478 676
2020-07-20 18:30 2.96 397 801 (2010) 32 (1984) 240 55 77 108 118 192 279 333 478 676
2020-07-20 17:30 2.96 397 801 (2010) 32 (1984) 240 55 77 108 118 192 279 333 478 676
2020-07-20 16:30 2.95 393 801 (2010) 32 (1984) 240 55 77 108 118 192 279 333 478 676
2020-07-20 15:30 2.95 393 801 (2010) 32 (1984) 240 55 77 108 118 192 279 333 478 676
2020-07-20 14:30 2.96 397 801 (2010) 32 (1984) 240 55 77 108 118 192 279 333 478 676
2020-07-20 13:30 2.96 397 801 (2010) 32 (1984) 240 55 77 108 118 192 279 333 478 676
2020-07-20 12:30 2.95 393 801 (2010) 32 (1984) 240 55 77 108 118 192 279 333 478 676
2020-07-20 11:30 2.95 393 801 (2010) 32 (1984) 240 55 77 108 118 192 279 333 478 676
2020-07-20 10:30 2.95 393 801 (2010) 32 (1984) 240 55 77 108 118 192 279 333 478 676
2020-07-20 09:30 2.95 393 801 (2010) 32 (1984) 240 55 77 108 118 192 279 333 478 676
2020-07-20 08:30 2.95 393 801 (2010) 32 (1984) 240 55 77 108 118 192 279 333 478 676
2020-07-20 07:30 2.95 393 801 (2010) 32 (1984) 240 55 77 108 118 192 279 333 478 676
2020-07-20 06:30 2.95 393 801 (2010) 32 (1984) 240 55 77 108 118 192 279 333 478 676
2020-07-20 05:30 2.96 397 801 (2010) 32 (1984) 240 55 77 108 118 192 279 333 478 676
2020-07-20 04:30 2.96 397 801 (2010) 32 (1984) 240 55 77 108 118 192 279 333 478 676
2020-07-20 03:30 2.96 397 801 (2010) 32 (1984) 240 55 77 108 118 192 279 333 478 676
2020-07-20 02:30 2.97 400 801 (2010) 32 (1984) 240 55 77 108 118 192 279 333 478 676
2020-07-20 01:30 2.97 400 801 (2010) 32 (1984) 240 55 77 108 118 192 279 333 478 676
2020-07-20 00:30 2.97 400 801 (2010) 32 (1984) 240 55 77 108 118 192 279 333 478 676
2020-07-19 23:30 2.98 404 1040 (2010) 42 (1964) 262 58 84 110 123 218 326 343 500 752
2020-07-19 22:30 2.98 404 1040 (2010) 42 (1964) 262 58 84 110 123 218 326 343 500 752
2020-07-19 21:30 2.98 404 1040 (2010) 42 (1964) 262 58 84 110 123 218 326 343 500 752
2020-07-19 20:30 2.98 404 1040 (2010) 42 (1964) 262 58 84 110 123 218 326 343 500 752
2020-07-19 19:30 2.98 404 1040 (2010) 42 (1964) 262 58 84 110 123 218 326 343 500 752
2020-07-19 18:30 2.98 404 1040 (2010) 42 (1964) 262 58 84 110 123 218 326 343 500 752
2020-07-19 17:30 2.99 408 1040 (2010) 42 (1964) 262 58 84 110 123 218 326 343 500 752
2020-07-19 16:30 2.99 408 1040 (2010) 42 (1964) 262 58 84 110 123 218 326 343 500 752
2020-07-19 15:30 2.99 408 1040 (2010) 42 (1964) 262 58 84 110 123 218 326 343 500 752
2020-07-19 14:30 2.99 408 1040 (2010) 42 (1964) 262 58 84 110 123 218 326 343 500 752
2020-07-19 13:30 2.99 408 1040 (2010) 42 (1964) 262 58 84 110 123 218 326 343 500 752
2020-07-19 12:30 3.00 411 1040 (2010) 42 (1964) 262 58 84 110 123 218 326 343 500 752
2020-07-19 11:30 3.00 411 1040 (2010) 42 (1964) 262 58 84 110 123 218 326 343 500 752
2020-07-19 10:30 3.00 411 1040 (2010) 42 (1964) 262 58 84 110 123 218 326 343 500 752
2020-07-19 09:30 3.00 411 1040 (2010) 42 (1964) 262 58 84 110 123 218 326 343 500 752
2020-07-19 08:30 2.99 408 1040 (2010) 42 (1964) 262 58 84 110 123 218 326 343 500 752
2020-07-19 07:30 3.00 411 1040 (2010) 42 (1964) 262 58 84 110 123 218 326 343 500 752
2020-07-19 06:30 3.00 411 1040 (2010) 42 (1964) 262 58 84 110 123 218 326 343 500 752
2020-07-19 05:30 3.00 411 1040 (2010) 42 (1964) 262 58 84 110 123 218 326 343 500 752
2020-07-19 04:30 3.00 411 1040 (2010) 42 (1964) 262 58 84 110 123 218 326 343 500 752
2020-07-19 03:30 3.01 415 1040 (2010) 42 (1964) 262 58 84 110 123 218 326 343 500 752
2020-07-19 02:30 3.01 415 1040 (2010) 42 (1964) 262 58 84 110 123 218 326 343 500 752
2020-07-19 01:30 3.02 419 1040 (2010) 42 (1964) 262 58 84 110 123 218 326 343 500 752
2020-07-19 00:30 3.02 419 1040 (2010) 42 (1964) 262 58 84 110 123 218 326 343 500 752
2020-07-18 23:30 3.02 419 1520 (2010) 42 (1964) 299 64 93 118 130 224 350 398 577 870
2020-07-18 22:30 3.02 419 1520 (2010) 42 (1964) 299 64 93 118 130 224 350 398 577 870
2020-07-18 21:30 3.02 419 1520 (2010) 42 (1964) 299 64 93 118 130 224 350 398 577 870
2020-07-18 20:30 3.03 423 1520 (2010) 42 (1964) 299 64 93 118 130 224 350 398 577 870
2020-07-18 19:30 3.03 423 1520 (2010) 42 (1964) 299 64 93 118 130 224 350 398 577 870
2020-07-18 18:30 3.03 423 1520 (2010) 42 (1964) 299 64 93 118 130 224 350 398 577 870
2020-07-18 17:30 3.03 423 1520 (2010) 42 (1964) 299 64 93 118 130 224 350 398 577 870
2020-07-18 16:30 3.03 423 1520 (2010) 42 (1964) 299 64 93 118 130 224 350 398 577 870
2020-07-18 15:30 3.03 423 1520 (2010) 42 (1964) 299 64 93 118 130 224 350 398 577 870
2020-07-18 14:30 3.04 427 1520 (2010) 42 (1964) 299 64 93 118 130 224 350 398 577 870
2020-07-18 13:30 3.04 427 1520 (2010) 42 (1964) 299 64 93 118 130 224 350 398 577 870
2020-07-18 12:30 3.04 427 1520 (2010) 42 (1964) 299 64 93 118 130 224 350 398 577 870
2020-07-18 11:30 3.04 427 1520 (2010) 42 (1964) 299 64 93 118 130 224 350 398 577 870
2020-07-18 10:30 3.05 430 1520 (2010) 42 (1964) 299 64 93 118 130 224 350 398 577 870
2020-07-18 09:30 3.05 430 1520 (2010) 42 (1964) 299 64 93 118 130 224 350 398 577 870
2020-07-18 08:30 3.05 430 1520 (2010) 42 (1964) 299 64 93 118 130 224 350 398 577 870
2020-07-18 07:30 3.05 430 1520 (2010) 42 (1964) 299 64 93 118 130 224 350 398 577 870
2020-07-18 06:30 3.05 430 1520 (2010) 42 (1964) 299 64 93 118 130 224 350 398 577 870
2020-07-18 05:30 3.05 430 1520 (2010) 42 (1964) 299 64 93 118 130 224 350 398 577 870
2020-07-18 04:30 3.05 430 1520 (2010) 42 (1964) 299 64 93 118 130 224 350 398 577 870
2020-07-18 03:30 3.05 430 1520 (2010) 42 (1964) 299 64 93 118 130 224 350 398 577 870
2020-07-18 02:30 3.06 434 1520 (2010) 42 (1964) 299 64 93 118 130 224 350 398 577 870
2020-07-18 01:30 3.06 434 1520 (2010) 42 (1964) 299 64 93 118 130 224 350 398 577 870
2020-07-18 00:30 3.06 434 1520 (2010) 42 (1964) 299 64 93 118 130 224 350 398 577 870
2020-07-17 23:30 3.06 434 3540 (2010) 44 (1964) 375 67 93 125 136 229 364 444 685 1040
2020-07-17 22:30 3.06 434 3540 (2010) 44 (1964) 375 67 93 125 136 229 364 444 685 1040
2020-07-17 21:30 3.07 438 3540 (2010) 44 (1964) 375 67 93 125 136 229 364 444 685 1040
2020-07-17 20:30 3.07 438 3540 (2010) 44 (1964) 375 67 93 125 136 229 364 444 685 1040
2020-07-17 19:30 3.07 438 3540 (2010) 44 (1964) 375 67 93 125 136 229 364 444 685 1040
2020-07-17 18:30 3.07 438 3540 (2010) 44 (1964) 375 67 93 125 136 229 364 444 685 1040
2020-07-17 17:30 3.07 438 3540 (2010) 44 (1964) 375 67 93 125 136 229 364 444 685 1040
2020-07-17 16:30 3.07 438 3540 (2010) 44 (1964) 375 67 93 125 136 229 364 444 685 1040
2020-07-17 15:30 3.08 442 3540 (2010) 44 (1964) 375 67 93 125 136 229 364 444 685 1040
2020-07-17 14:30 3.08 442 3540 (2010) 44 (1964) 375 67 93 125 136 229 364 444 685 1040
2020-07-17 13:30 3.08 442 3540 (2010) 44 (1964) 375 67 93 125 136 229 364 444 685 1040
2020-07-17 12:30 3.08 442 3540 (2010) 44 (1964) 375 67 93 125 136 229 364 444 685 1040
2020-07-17 11:30 3.08 442 3540 (2010) 44 (1964) 375 67 93 125 136 229 364 444 685 1040
2020-07-17 10:30 3.08 442 3540 (2010) 44 (1964) 375 67 93 125 136 229 364 444 685 1040
2020-07-17 09:30 3.08 442 3540 (2010) 44 (1964) 375 67 93 125 136 229 364 444 685 1040
2020-07-17 08:30 3.08 442 3540 (2010) 44 (1964) 375 67 93 125 136 229 364 444 685 1040
2020-07-17 07:30 3.08 442 3540 (2010) 44 (1964) 375 67 93 125 136 229 364 444 685 1040
2020-07-17 06:30 3.08 442 3540 (2010) 44 (1964) 375 67 93 125 136 229 364 444 685 1040
2020-07-17 05:30 3.08 442 3540 (2010) 44 (1964) 375 67 93 125 136 229 364 444 685 1040
2020-07-17 04:30 3.08 442 3540 (2010) 44 (1964) 375 67 93 125 136 229 364 444 685 1040
2020-07-17 03:30 3.08 442 3540 (2010) 44 (1964) 375 67 93 125 136 229 364 444 685 1040
2020-07-17 02:30 3.08 442 3540 (2010) 44 (1964) 375 67 93 125 136 229 364 444 685 1040
2020-07-17 01:30 3.09 446 3540 (2010) 44 (1964) 375 67 93 125 136 229 364 444 685 1040
2020-07-17 00:30 3.09 446 3540 (2010) 44 (1964) 375 67 93 125 136 229 364 444 685 1040
2020-07-16 23:30 3.09 446 5270 (2010) 46 (1964) 392 63 95 121 133 216 328 385 912 1280
2020-07-16 22:30 3.10 450 5270 (2010) 46 (1964) 392 63 95 121 133 216 328 385 912 1280
2020-07-16 21:30 3.10 450 5270 (2010) 46 (1964) 392 63 95 121 133 216 328 385 912 1280
2020-07-16 20:30 3.11 454 5270 (2010) 46 (1964) 392 63 95 121 133 216 328 385 912 1280
2020-07-16 19:30 3.11 454 5270 (2010) 46 (1964) 392 63 95 121 133 216 328 385 912 1280
2020-07-16 18:30 3.11 454 5270 (2010) 46 (1964) 392 63 95 121 133 216 328 385 912 1280
2020-07-16 17:30 3.11 454 5270 (2010) 46 (1964) 392 63 95 121 133 216 328 385 912 1280
2020-07-16 16:30 3.11 454 5270 (2010) 46 (1964) 392 63 95 121 133 216 328 385 912 1280
2020-07-16 15:30 3.11 454 5270 (2010) 46 (1964) 392 63 95 121 133 216 328 385 912 1280
2020-07-16 14:30 3.11 454 5270 (2010) 46 (1964) 392 63 95 121 133 216 328 385 912 1280
2020-07-16 13:30 3.11 454 5270 (2010) 46 (1964) 392 63 95 121 133 216 328 385 912 1280
2020-07-16 12:30 3.11 454 5270 (2010) 46 (1964) 392 63 95 121 133 216 328 385 912 1280
2020-07-16 11:30 3.11 454 5270 (2010) 46 (1964) 392 63 95 121 133 216 328 385 912 1280
2020-07-16 10:30 3.11 454 5270 (2010) 46 (1964) 392 63 95 121 133 216 328 385 912 1280
2020-07-16 09:30 3.11 454 5270 (2010) 46 (1964) 392 63 95 121 133 216 328 385 912 1280
2020-07-16 08:30 3.11 454 5270 (2010) 46 (1964) 392 63 95 121 133 216 328 385 912 1280
2020-07-16 07:30 3.11 454 5270 (2010) 46 (1964) 392 63 95 121 133 216 328 385 912 1280
2020-07-16 06:30 3.11 454 5270 (2010) 46 (1964) 392 63 95 121 133 216 328 385 912 1280
2020-07-16 05:30 3.11 454 5270 (2010) 46 (1964) 392 63 95 121 133 216 328 385 912 1280
2020-07-16 04:30 3.11 454 5270 (2010) 46 (1964) 392 63 95 121 133 216 328 385 912 1280
2020-07-16 03:30 3.12 458 5270 (2010) 46 (1964) 392 63 95 121 133 216 328 385 912 1280
2020-07-16 02:30 3.12 458 5270 (2010) 46 (1964) 392 63 95 121 133 216 328 385 912 1280
2020-07-16 01:30 3.12 458 5270 (2010) 46 (1964) 392 63 95 121 133 216 328 385 912 1280
2020-07-16 00:30 3.12 458 5270 (2010) 46 (1964) 392 63 95 121 133 216 328 385 912 1280
2020-07-15 23:30 3.12 458 1730 (1961) 48 (1964) 347 59 96 128 148 226 376 409 853 1510
2020-07-15 22:30 3.13 462 1730 (1961) 48 (1964) 347 59 96 128 148 226 376 409 853 1510
2020-07-15 21:30 3.13 462 1730 (1961) 48 (1964) 347 59 96 128 148 226 376 409 853 1510
2020-07-15 20:30 3.14 1730 (1961) 48 (1964) 347 59 96 128 148 226 376 409 853 1510
2020-07-15 19:30 3.14 466 1730 (1961) 48 (1964) 347 59 96 128 148 226 376 409 853 1510
2020-07-15 18:30 3.14 466 1730 (1961) 48 (1964) 347 59 96 128 148 226 376 409 853 1510
2020-07-15 17:30 3.15 470 1730 (1961) 48 (1964) 347 59 96 128 148 226 376 409 853 1510
2020-07-15 16:30 3.15 470 1730 (1961) 48 (1964) 347 59 96 128 148 226 376 409 853 1510
2020-07-15 15:30 3.15 470 1730 (1961) 48 (1964) 347 59 96 128 148 226 376 409 853 1510
2020-07-15 14:30 3.15 470 1730 (1961) 48 (1964) 347 59 96 128 148 226 376 409 853 1510
2020-07-15 13:30 3.15 470 1730 (1961) 48 (1964) 347 59 96 128 148 226 376 409 853 1510
2020-07-15 12:30 3.15 470 1730 (1961) 48 (1964) 347 59 96 128 148 226 376 409 853 1510
2020-07-15 11:30 3.15 470 1730 (1961) 48 (1964) 347 59 96 128 148 226 376 409 853 1510
2020-07-15 10:30 3.16 474 1730 (1961) 48 (1964) 347 59 96 128 148 226 376 409 853 1510
2020-07-15 09:30 3.16 474 1730 (1961) 48 (1964) 347 59 96 128 148 226 376 409 853 1510
2020-07-15 08:30 3.16 474 1730 (1961) 48 (1964) 347 59 96 128 148 226 376 409 853 1510
2020-07-15 07:30 3.16 474 1730 (1961) 48 (1964) 347 59 96 128 148 226 376 409 853 1510
2020-07-15 06:30 3.16 474 1730 (1961) 48 (1964) 347 59 96 128 148 226 376 409 853 1510
2020-07-15 05:30 3.16 474 1730 (1961) 48 (1964) 347 59 96 128 148 226 376 409 853 1510
2020-07-15 04:30 3.16 474 1730 (1961) 48 (1964) 347 59 96 128 148 226 376 409 853 1510
2020-07-15 03:30 3.16 474 1730 (1961) 48 (1964) 347 59 96 128 148 226 376 409 853 1510
2020-07-15 02:30 3.17 478 1730 (1961) 48 (1964) 347 59 96 128 148 226 376 409 853 1510
2020-07-15 01:30 3.17 478 1730 (1961) 48 (1964) 347 59 96 128 148 226 376 409 853 1510
2020-07-15 00:30 3.17 478 1730 (1961) 48 (1964) 347 59 96 128 148 226 376 409 853 1510
2020-07-14 23:30 3.18 482 4950 (1972) 51 (1964) 480 62 97 126 147 244 381 397 797 2750
2020-07-14 22:30 3.18 482 4950 (1972) 51 (1964) 480 62 97 126 147 244 381 397 797 2750
2020-07-14 21:30 3.18 482 4950 (1972) 51 (1964) 480 62 97 126 147 244 381 397 797 2750
2020-07-14 20:30 3.19 486 4950 (1972) 51 (1964) 480 62 97 126 147 244 381 397 797 2750
2020-07-14 19:30 3.19 486 4950 (1972) 51 (1964) 480 62 97 126 147 244 381 397 797 2750
2020-07-14 18:30 3.19 486 4950 (1972) 51 (1964) 480 62 97 126 147 244 381 397 797 2750
2020-07-14 17:30 3.19 486 4950 (1972) 51 (1964) 480 62 97 126 147 244 381 397 797 2750
2020-07-14 16:30 3.19 486 4950 (1972) 51 (1964) 480 62 97 126 147 244 381 397 797 2750
2020-07-14 15:30 3.19 486 4950 (1972) 51 (1964) 480 62 97 126 147 244 381 397 797 2750
2020-07-14 14:30 3.20 490 4950 (1972) 51 (1964) 480 62 97 126 147 244 381 397 797 2750
2020-07-14 13:30 3.20 490 4950 (1972) 51 (1964) 480 62 97 126 147 244 381 397 797 2750
2020-07-14 12:30 3.21 495 4950 (1972) 51 (1964) 480 62 97 126 147 244 381 397 797 2750
2020-07-14 11:30 3.21 495 4950 (1972) 51 (1964) 480 62 97 126 147 244 381 397 797 2750
2020-07-14 10:30 3.21 495 4950 (1972) 51 (1964) 480 62 97 126 147 244 381 397 797 2750
2020-07-14 09:30 3.22 499 4950 (1972) 51 (1964) 480 62 97 126 147 244 381 397 797 2750
2020-07-14 08:30 3.21 495 4950 (1972) 51 (1964) 480 62 97 126 147 244 381 397 797 2750
2020-07-14 07:30 3.21 495 4950 (1972) 51 (1964) 480 62 97 126 147 244 381 397 797 2750
2020-07-14 06:30 3.21 495 4950 (1972) 51 (1964) 480 62 97 126 147 244 381 397 797 2750
2020-07-14 05:30 3.20 490 4950 (1972) 51 (1964) 480 62 97 126 147 244 381 397 797 2750
2020-07-14 04:30 3.20 490 4950 (1972) 51 (1964) 480 62 97 126 147 244 381 397 797 2750
2020-07-14 03:30 3.20 490 4950 (1972) 51 (1964) 480 62 97 126 147 244 381 397 797 2750
2020-07-14 02:30 3.20 490 4950 (1972) 51 (1964) 480 62 97 126 147 244 381 397 797 2750
2020-07-14 01:30 3.21 495 4950 (1972) 51 (1964) 480 62 97 126 147 244 381 397 797 2750
2020-07-14 00:30 3.21 495 4950 (1972) 51 (1964) 480 62 97 126 147 244 381 397 797 2750
2020-07-13 23:30 3.21 495 10100 (1958) 51 (1964) 679 67 105 129 173 255 353 400 816 5240
2020-07-13 22:30 3.21 495 10100 (1958) 51 (1964) 679 67 105 129 173 255 353 400 816 5240
2020-07-13 21:30 3.22 499 10100 (1958) 51 (1964) 679 67 105 129 173 255 353 400 816 5240
2020-07-13 20:30 3.22 499 10100 (1958) 51 (1964) 679 67 105 129 173 255 353 400 816 5240
2020-07-13 19:30 3.22 499 10100 (1958) 51 (1964) 679 67 105 129 173 255 353 400 816 5240
2020-07-13 18:30 3.22 499 10100 (1958) 51 (1964) 679 67 105 129 173 255 353 400 816 5240
2020-07-13 17:30 3.22 499 10100 (1958) 51 (1964) 679 67 105 129 173 255 353 400 816 5240
2020-07-13 16:30 3.23 503 10100 (1958) 51 (1964) 679 67 105 129 173 255 353 400 816 5240
2020-07-13 15:30 3.23 503 10100 (1958) 51 (1964) 679 67 105 129 173 255 353 400 816 5240
2020-07-13 14:30 3.23 503 10100 (1958) 51 (1964) 679 67 105 129 173 255 353 400 816 5240
2020-07-13 13:30 3.23 503 10100 (1958) 51 (1964) 679 67 105 129 173 255 353 400 816 5240
2020-07-13 12:30 3.23 503 10100 (1958) 51 (1964) 679 67 105 129 173 255 353 400 816 5240
2020-07-13 11:30 3.24 507 10100 (1958) 51 (1964) 679 67 105 129 173 255 353 400 816 5240
2020-07-13 10:30 3.24 507 10100 (1958) 51 (1964) 679 67 105 129 173 255 353 400 816 5240
2020-07-13 09:30 3.24 507 10100 (1958) 51 (1964) 679 67 105 129 173 255 353 400 816 5240
2020-07-13 08:30 3.24 507 10100 (1958) 51 (1964) 679 67 105 129 173 255 353 400 816 5240
2020-07-13 07:30 3.24 507 10100 (1958) 51 (1964) 679 67 105 129 173 255 353 400 816 5240
2020-07-13 06:30 3.24 507 10100 (1958) 51 (1964) 679 67 105 129 173 255 353 400 816 5240
2020-07-13 05:30 3.25 511 10100 (1958) 51 (1964) 679 67 105 129 173 255 353 400 816 5240
2020-07-13 04:30 3.25 511 10100 (1958) 51 (1964) 679 67 105 129 173 255 353 400 816 5240
2020-07-13 03:30 3.26 516 10100 (1958) 51 (1964) 679 67 105 129 173 255 353 400 816 5240
2020-07-13 02:30 3.26 516 10100 (1958) 51 (1964) 679 67 105 129 173 255 353 400 816 5240
2020-07-13 01:30 3.27 520 10100 (1958) 51 (1964) 679 67 105 129 173 255 353 400 816 5240
2020-07-13 00:30 3.28 524 10100 (1958) 51 (1964) 679 67 105 129 173 255 353 400 816 5240
2020-07-12 23:30 3.29 529 13600 (1958) 51 (1964) 520 71 112 133 163 219 361 381 581 1480
2020-07-12 22:30 3.30 533 13600 (1958) 51 (1964) 520 71 112 133 163 219 361 381 581 1480
2020-07-12 21:30 3.31 537 13600 (1958) 51 (1964) 520 71 112 133 163 219 361 381 581 1480
2020-07-12 20:30 3.32 542 13600 (1958) 51 (1964) 520 71 112 133 163 219 361 381 581 1480
2020-07-12 19:30 3.33 546 13600 (1958) 51 (1964) 520 71 112 133 163 219 361 381 581 1480
2020-07-12 18:30 3.34 550 13600 (1958) 51 (1964) 520 71 112 133 163 219 361 381 581 1480
2020-07-12 17:30 3.34 550 13600 (1958) 51 (1964) 520 71 112 133 163 219 361 381 581 1480
2020-07-12 16:30 3.34 550 13600 (1958) 51 (1964) 520 71 112 133 163 219 361 381 581 1480
2020-07-12 15:30 3.35 555 13600 (1958) 51 (1964) 520 71 112 133 163 219 361 381 581 1480
2020-07-12 14:30 3.35 555 13600 (1958) 51 (1964) 520 71 112 133 163 219 361 381 581 1480
2020-07-12 13:30 3.35 555 13600 (1958) 51 (1964) 520 71 112 133 163 219 361 381 581 1480
2020-07-12 12:30 3.35 555 13600 (1958) 51 (1964) 520 71 112 133 163 219 361 381 581 1480
2020-07-12 11:30 3.36 559 13600 (1958) 51 (1964) 520 71 112 133 163 219 361 381 581 1480
2020-07-12 10:30 3.36 559 13600 (1958) 51 (1964) 520 71 112 133 163 219 361 381 581 1480
2020-07-12 09:30 3.37 564 13600 (1958) 51 (1964) 520 71 112 133 163 219 361 381 581 1480
2020-07-12 08:30 3.38 568 13600 (1958) 51 (1964) 520 71 112 133 163 219 361 381 581 1480
2020-07-12 07:30 3.38 568 13600 (1958) 51 (1964) 520 71 112 133 163 219 361 381 581 1480
2020-07-12 06:30 3.39 573 13600 (1958) 51 (1964) 520 71 112 133 163 219 361 381 581 1480
2020-07-12 05:30 3.40 577 13600 (1958) 51 (1964) 520 71 112 133 163 219 361 381 581 1480
2020-07-12 04:30 3.41 582 13600 (1958) 51 (1964) 520 71 112 133 163 219 361 381 581 1480
2020-07-12 03:30 3.42 586 13600 (1958) 51 (1964) 520 71 112 133 163 219 361 381 581 1480
2020-07-12 02:30 3.43 591 13600 (1958) 51 (1964) 520 71 112 133 163 219 361 381 581 1480
2020-07-12 01:30 3.45 600 13600 (1958) 51 (1964) 520 71 112 133 163 219 361 381 581 1480
2020-07-12 00:30 3.46 605 13600 (1958) 51 (1964) 520 71 112 133 163 219 361 381 581 1480
2020-07-11 23:30 3.48 614 3500 (2015) 52 (1964) 380 78 113 138 157 220 375 405 682 1270
2020-07-11 22:30 3.51 629 3500 (2015) 52 (1964) 380 78 113 138 157 220 375 405 682 1270
2020-07-11 21:30 3.51 629 3500 (2015) 52 (1964) 380 78 113 138 157 220 375 405 682 1270
2020-07-11 20:30 3.36 559 3500 (2015) 52 (1964) 380 78 113 138 157 220 375 405 682 1270
2020-07-11 19:30 3.37 564 3500 (2015) 52 (1964) 380 78 113 138 157 220 375 405 682 1270
2020-07-11 18:30 3.38 568 3500 (2015) 52 (1964) 380 78 113 138 157 220 375 405 682 1270
2020-07-11 17:30 3.39 573 3500 (2015) 52 (1964) 380 78 113 138 157 220 375 405 682 1270
2020-07-11 16:30 3.40 577 3500 (2015) 52 (1964) 380 78 113 138 157 220 375 405 682 1270
2020-07-11 15:30 3.41 582 3500 (2015) 52 (1964) 380 78 113 138 157 220 375 405 682 1270
2020-07-11 14:30 3.43 591 3500 (2015) 52 (1964) 380 78 113 138 157 220 375 405 682 1270
2020-07-11 13:30 3.43 591 3500 (2015) 52 (1964) 380 78 113 138 157 220 375 405 682 1270
2020-07-11 12:30 3.44 596 3500 (2015) 52 (1964) 380 78 113 138 157 220 375 405 682 1270
2020-07-11 11:30 3.44 596 3500 (2015) 52 (1964) 380 78 113 138 157 220 375 405 682 1270
2020-07-11 10:30 3.45 600 3500 (2015) 52 (1964) 380 78 113 138 157 220 375 405 682 1270
2020-07-11 09:30 3.45 600 3500 (2015) 52 (1964) 380 78 113 138 157 220 375 405 682 1270
2020-07-11 08:30 3.46 605 3500 (2015) 52 (1964) 380 78 113 138 157 220 375 405 682 1270
2020-07-11 07:30 3.47 610 3500 (2015) 52 (1964) 380 78 113 138 157 220 375 405 682 1270
2020-07-11 06:30 3.48 614 3500 (2015) 52 (1964) 380 78 113 138 157 220 375 405 682 1270
2020-07-11 05:30 3.49 619 3500 (2015) 52 (1964) 380 78 113 138 157 220 375 405 682 1270
2020-07-11 04:30 3.50 624 3500 (2015) 52 (1964) 380 78 113 138 157 220 375 405 682 1270
2020-07-11 03:30 3.52 633 3500 (2015) 52 (1964) 380 78 113 138 157 220 375 405 682 1270
2020-07-11 02:30 3.53 638 3500 (2015) 52 (1964) 380 78 113 138 157 220 375 405 682 1270
2020-07-11 01:30 3.54 643 3500 (2015) 52 (1964) 380 78 113 138 157 220 375 405 682 1270
2020-07-11 00:30 3.56 653 3500 (2015) 52 (1964) 380 78 113 138 157 220 375 405 682 1270
2020-07-10 23:30 3.58 662 9740 (2015) 53 (1964) 491 77 117 145 160 223 369 418 731 1110
2020-07-10 22:30 3.59 667 9740 (2015) 53 (1964) 491 77 117 145 160 223 369 418 731 1110
2020-07-10 21:30 3.61 677 9740 (2015) 53 (1964) 491 77 117 145 160 223 369 418 731 1110
2020-07-10 20:30 3.64 692 9740 (2015) 53 (1964) 491 77 117 145 160 223 369 418 731 1110
2020-07-10 19:30 3.66 702 9740 (2015) 53 (1964) 491 77 117 145 160 223 369 418 731 1110
2020-07-10 18:30 3.68 712 9740 (2015) 53 (1964) 491 77 117 145 160 223 369 418 731 1110
2020-07-10 17:30 3.70 723 9740 (2015) 53 (1964) 491 77 117 145 160 223 369 418 731 1110
2020-07-10 16:30 3.73 738 9740 (2015) 53 (1964) 491 77 117 145 160 223 369 418 731 1110
2020-07-10 15:30 3.75 749 9740 (2015) 53 (1964) 491 77 117 145 160 223 369 418 731 1110
2020-07-10 14:30 3.78 764 9740 (2015) 53 (1964) 491 77 117 145 160 223 369 418 731 1110
2020-07-10 13:30 3.81 780 9740 (2015) 53 (1964) 491 77 117 145 160 223 369 418 731 1110
2020-07-10 12:30 3.83 791 9740 (2015) 53 (1964) 491 77 117 145 160 223 369 418 731 1110
2020-07-10 11:30 3.86 807 9740 (2015) 53 (1964) 491 77 117 145 160 223 369 418 731 1110
2020-07-10 10:30 3.87 813 9740 (2015) 53 (1964) 491 77 117 145 160 223 369 418 731 1110
2020-07-10 09:30 3.88 818 9740 (2015) 53 (1964) 491 77 117 145 160 223 369 418 731 1110
2020-07-10 08:30 3.87 813 9740 (2015) 53 (1964) 491 77 117 145 160 223 369 418 731 1110
2020-07-10 07:30 3.84 797 9740 (2015) 53 (1964) 491 77 117 145 160 223 369 418 731 1110
2020-07-10 06:30 3.78 764 9740 (2015) 53 (1964) 491 77 117 145 160 223 369 418 731 1110
2020-07-10 05:30 3.72 733 9740 (2015) 53 (1964) 491 77 117 145 160 223 369 418 731 1110
2020-07-10 04:30 3.68 712 9740 (2015) 53 (1964) 491 77 117 145 160 223 369 418 731 1110
2020-07-10 03:30 3.68 712 9740 (2015) 53 (1964) 491 77 117 145 160 223 369 418 731 1110
2020-07-10 02:30 3.70 723 9740 (2015) 53 (1964) 491 77 117 145 160 223 369 418 731 1110
2020-07-10 01:30 3.73 738 9740 (2015) 53 (1964) 491 77 117 145 160 223 369 418 731 1110
2020-07-10 00:30 3.75 749 9740 (2015) 53 (1964) 491 77 117 145 160 223 369 418 731 1110
2020-07-09 23:30 3.76 754 5820 (2015) 51 (1964) 427 82 114 147 162 233 379 411 830 1270
2020-07-09 22:30 3.75 749 5820 (2015) 51 (1964) 427 82 114 147 162 233 379 411 830 1270
2020-07-09 21:30 3.72 733 5820 (2015) 51 (1964) 427 82 114 147 162 233 379 411 830 1270
2020-07-09 20:30 3.65 697 5820 (2015) 51 (1964) 427 82 114 147 162 233 379 411 830 1270
2020-07-09 19:30 3.55 648 5820 (2015) 51 (1964) 427 82 114 147 162 233 379 411 830 1270
2020-07-09 18:30 3.52 633 5820 (2015) 51 (1964) 427 82 114 147 162 233 379 411 830 1270
2020-07-09 17:30 3.49 619 5820 (2015) 51 (1964) 427 82 114 147 162 233 379 411 830 1270
2020-07-09 16:30 3.47 610 5820 (2015) 51 (1964) 427 82 114 147 162 233 379 411 830 1270
2020-07-09 15:30 3.45 600 5820 (2015) 51 (1964) 427 82 114 147 162 233 379 411 830 1270
2020-07-09 14:30 3.44 596 5820 (2015) 51 (1964) 427 82 114 147 162 233 379 411 830 1270
2020-07-09 13:30 3.42 586 5820 (2015) 51 (1964) 427 82 114 147 162 233 379 411 830 1270
2020-07-09 12:30 3.40 577 5820 (2015) 51 (1964) 427 82 114 147 162 233 379 411 830 1270
2020-07-09 11:30 3.40 577 5820 (2015) 51 (1964) 427 82 114 147 162 233 379 411 830 1270
2020-07-09 10:30 3.39 573 5820 (2015) 51 (1964) 427 82 114 147 162 233 379 411 830 1270
2020-07-09 09:30 3.15 470 5820 (2015) 51 (1964) 427 82 114 147 162 233 379 411 830 1270
2020-07-09 08:30 3.15 470 5820 (2015) 51 (1964) 427 82 114 147 162 233 379 411 830 1270
2020-07-09 07:30 3.15 470 5820 (2015) 51 (1964) 427 82 114 147 162 233 379 411 830 1270
2020-07-09 06:30 3.16 474 5820 (2015) 51 (1964) 427 82 114 147 162 233 379 411 830 1270
2020-07-09 05:30 3.16 474 5820 (2015) 51 (1964) 427 82 114 147 162 233 379 411 830 1270
2020-07-09 04:30 3.17 478 5820 (2015) 51 (1964) 427 82 114 147 162 233 379 411 830 1270
2020-07-09 03:30 3.17 478 5820 (2015) 51 (1964) 427 82 114 147 162 233 379 411 830 1270
2020-07-09 02:30 3.17 478 5820 (2015) 51 (1964) 427 82 114 147 162 233 379 411 830 1270
2020-07-09 01:30 3.17 478 5820 (2015) 51 (1964) 427 82 114 147 162 233 379 411 830 1270
2020-07-09 00:30 3.18 482 5820 (2015) 51 (1964) 427 82 114 147 162 233 379 411 830 1270
2020-07-08 23:30 3.18 482 6810 (2015) 55 (1964) 418 87 99 145 164 244 401 435 741 1100
2020-07-08 22:30 3.18 482 6810 (2015) 55 (1964) 418 87 99 145 164 244 401 435 741 1100
2020-07-08 21:30 3.18 482 6810 (2015) 55 (1964) 418 87 99 145 164 244 401 435 741 1100
2020-07-08 20:30 3.19 486 6810 (2015) 55 (1964) 418 87 99 145 164 244 401 435 741 1100
2020-07-08 19:30 3.19 486 6810 (2015) 55 (1964) 418 87 99 145 164 244 401 435 741 1100
2020-07-08 18:30 3.19 486 6810 (2015) 55 (1964) 418 87 99 145 164 244 401 435 741 1100
2020-07-08 17:30 3.19 486 6810 (2015) 55 (1964) 418 87 99 145 164 244 401 435 741 1100
2020-07-08 16:30 3.19 486 6810 (2015) 55 (1964) 418 87 99 145 164 244 401 435 741 1100
2020-07-08 15:30 3.19 486 6810 (2015) 55 (1964) 418 87 99 145 164 244 401 435 741 1100
2020-07-08 14:30 3.20 490 6810 (2015) 55 (1964) 418 87 99 145 164 244 401 435 741 1100
2020-07-08 13:30 3.20 490 6810 (2015) 55 (1964) 418 87 99 145 164 244 401 435 741 1100
2020-07-08 12:30 3.21 495 6810 (2015) 55 (1964) 418 87 99 145 164 244 401 435 741 1100
2020-07-08 11:30 3.21 495 6810 (2015) 55 (1964) 418 87 99 145 164 244 401 435 741 1100
2020-07-08 10:30 3.22 499 6810 (2015) 55 (1964) 418 87 99 145 164 244 401 435 741 1100
2020-07-08 09:30 3.22 499 6810 (2015) 55 (1964) 418 87 99 145 164 244 401 435 741 1100
2020-07-08 08:30 3.22 499 6810 (2015) 55 (1964) 418 87 99 145 164 244 401 435 741 1100
2020-07-08 07:30 3.22 499 6810 (2015) 55 (1964) 418 87 99 145 164 244 401 435 741 1100
2020-07-08 06:30 3.23 503 6810 (2015) 55 (1964) 418 87 99 145 164 244 401 435 741 1100
2020-07-08 05:30 3.23 503 6810 (2015) 55 (1964) 418 87 99 145 164 244 401 435 741 1100
2020-07-08 04:30 3.24 507 6810 (2015) 55 (1964) 418 87 99 145 164 244 401 435 741 1100
2020-07-08 03:30 3.24 507 6810 (2015) 55 (1964) 418 87 99 145 164 244 401 435 741 1100
2020-07-08 02:30 3.26 516 6810 (2015) 55 (1964) 418 87 99 145 164 244 401 435 741 1100
2020-07-08 01:30 3.27 520 6810 (2015) 55 (1964) 418 87 99 145 164 244 401 435 741 1100
2020-07-08 00:30 3.28 524 6810 (2015) 55 (1964) 418 87 99 145 164 244 401 435 741 1100
2020-07-07 23:30 3.29 529 1860 (2019) 56 (1964) 366 90 106 148 170 259 422 472 948 1070
2020-07-07 22:30 3.29 529 1860 (2019) 56 (1964) 366 90 106 148 170 259 422 472 948 1070
2020-07-07 21:30 3.27 520 1860 (2019) 56 (1964) 366 90 106 148 170 259 422 472 948 1070
2020-07-07 20:30 3.27 520 1860 (2019) 56 (1964) 366 90 106 148 170 259 422 472 948 1070
2020-07-07 19:30 3.27 520 1860 (2019) 56 (1964) 366 90 106 148 170 259 422 472 948 1070
2020-07-07 18:30 3.27 520 1860 (2019) 56 (1964) 366 90 106 148 170 259 422 472 948 1070
2020-07-07 17:30 3.27 520 1860 (2019) 56 (1964) 366 90 106 148 170 259 422 472 948 1070
2020-07-07 16:30 3.28 524 1860 (2019) 56 (1964) 366 90 106 148 170 259 422 472 948 1070
2020-07-07 15:30 3.28 524 1860 (2019) 56 (1964) 366 90 106 148 170 259 422 472 948 1070
2020-07-07 14:30 3.28 524 1860 (2019) 56 (1964) 366 90 106 148 170 259 422 472 948 1070
2020-07-07 13:30 3.29 529 1860 (2019) 56 (1964) 366 90 106 148 170 259 422 472 948 1070
2020-07-07 12:30 3.30 533 1860 (2019) 56 (1964) 366 90 106 148 170 259 422 472 948 1070
2020-07-07 11:30 3.30 533 1860 (2019) 56 (1964) 366 90 106 148 170 259 422 472 948 1070
2020-07-07 10:30 3.30 533 1860 (2019) 56 (1964) 366 90 106 148 170 259 422 472 948 1070
2020-07-07 09:30 3.31 537 1860 (2019) 56 (1964) 366 90 106 148 170 259 422 472 948 1070
2020-07-07 08:30 3.32 542 1860 (2019) 56 (1964) 366 90 106 148 170 259 422 472 948 1070
2020-07-07 07:30 3.33 546 1860 (2019) 56 (1964) 366 90 106 148 170 259 422 472 948 1070
2020-07-07 06:30 3.33 546 1860 (2019) 56 (1964) 366 90 106 148 170 259 422 472 948 1070
2020-07-07 05:30 3.34 550 1860 (2019) 56 (1964) 366 90 106 148 170 259 422 472 948 1070
2020-07-07 04:30 3.34 550 1860 (2019) 56 (1964) 366 90 106 148 170 259 422 472 948 1070
2020-07-07 03:30 3.35 555 1860 (2019) 56 (1964) 366 90 106 148 170 259 422 472 948 1070
2020-07-07 02:30 3.36 559 1860 (2019) 56 (1964) 366 90 106 148 170 259 422 472 948 1070
2020-07-07 01:30 3.37 564 1860 (2019) 56 (1964) 366 90 106 148 170 259 422 472 948 1070
2020-07-07 00:30 3.39 573 1860 (2019) 56 (1964) 366 90 106 148 170 259 422 472 948 1070
2020-07-06 23:30 3.40 577 1340 (2004) 63 (1964) 369 90 111 153 168 245 438 491 887 1170
2020-07-06 22:30 3.42 586 1340 (2004) 63 (1964) 369 90 111 153 168 245 438 491 887 1170
2020-07-06 21:30 3.43 591 1340 (2004) 63 (1964) 369 90 111 153 168 245 438 491 887 1170
2020-07-06 20:30 3.45 600 1340 (2004) 63 (1964) 369 90 111 153 168 245 438 491 887 1170
2020-07-06 19:30 3.46 605 1340 (2004) 63 (1964) 369 90 111 153 168 245 438 491 887 1170
2020-07-06 18:30 3.47 610 1340 (2004) 63 (1964) 369 90 111 153 168 245 438 491 887 1170
2020-07-06 17:30 3.48 614 1340 (2004) 63 (1964) 369 90 111 153 168 245 438 491 887 1170
2020-07-06 16:30 3.48 614 1340 (2004) 63 (1964) 369 90 111 153 168 245 438 491 887 1170
2020-07-06 15:30 3.49 619 1340 (2004) 63 (1964) 369 90 111 153 168 245 438 491 887 1170
2020-07-06 14:30 3.48 614 1340 (2004) 63 (1964) 369 90 111 153 168 245 438 491 887 1170
2020-07-06 13:30 3.48 614 1340 (2004) 63 (1964) 369 90 111 153 168 245 438 491 887 1170
2020-07-06 12:30 3.48 614 1340 (2004) 63 (1964) 369 90 111 153 168 245 438 491 887 1170
2020-07-06 11:30 3.48 614 1340 (2004) 63 (1964) 369 90 111 153 168 245 438 491 887 1170
2020-07-06 10:30 3.46 605 1340 (2004) 63 (1964) 369 90 111 153 168 245 438 491 887 1170
2020-07-06 09:30 3.45 600 1340 (2004) 63 (1964) 369 90 111 153 168 245 438 491 887 1170
2020-07-06 08:30 3.43 591 1340 (2004) 63 (1964) 369 90 111 153 168 245 438 491 887 1170
2020-07-06 07:30 3.42 586 1340 (2004) 63 (1964) 369 90 111 153 168 245 438 491 887 1170
2020-07-06 06:30 3.42 586 1340 (2004) 63 (1964) 369 90 111 153 168 245 438 491 887 1170
2020-07-06 05:30 3.43 591 1340 (2004) 63 (1964) 369 90 111 153 168 245 438 491 887 1170
2020-07-06 04:30 3.44 596 1340 (2004) 63 (1964) 369 90 111 153 168 245 438 491 887 1170
2020-07-06 03:30 3.45 600 1340 (2004) 63 (1964) 369 90 111 153 168 245 438 491 887 1170
2020-07-06 02:30 3.46 605 1340 (2004) 63 (1964) 369 90 111 153 168 245 438 491 887 1170
2020-07-06 01:30 3.48 614 1340 (2004) 63 (1964) 369 90 111 153 168 245 438 491 887 1170
2020-07-06 00:30 3.50 624 1340 (2004) 63 (1964) 369 90 111 153 168 245 438 491 887 1170
2020-07-05 23:30 3.53 638 2020 (2004) 71 (1964) 405 94 116 154 175 251 539 565 812 1480
2020-07-05 22:30 3.55 648 2020 (2004) 71 (1964) 405 94 116 154 175 251 539 565 812 1480
2020-07-05 21:30 3.57 657 2020 (2004) 71 (1964) 405 94 116 154 175 251 539 565 812 1480
2020-07-05 20:30 3.58 662 2020 (2004) 71 (1964) 405 94 116 154 175 251 539 565 812 1480
2020-07-05 19:30 3.59 667 2020 (2004) 71 (1964) 405 94 116 154 175 251 539 565 812 1480
2020-07-05 18:30 3.60 672 2020 (2004) 71 (1964) 405 94 116 154 175 251 539 565 812 1480
2020-07-05 17:30 3.61 677 2020 (2004) 71 (1964) 405 94 116 154 175 251 539 565 812 1480
2020-07-05 16:30 3.60 672 2020 (2004) 71 (1964) 405 94 116 154 175 251 539 565 812 1480
2020-07-05 15:30 3.60 672 2020 (2004) 71 (1964) 405 94 116 154 175 251 539 565 812 1480
2020-07-05 14:30 3.58 662 2020 (2004) 71 (1964) 405 94 116 154 175 251 539 565 812 1480
2020-07-05 13:30 3.58 662 2020 (2004) 71 (1964) 405 94 116 154 175 251 539 565 812 1480
2020-07-05 12:30 3.59 667 2020 (2004) 71 (1964) 405 94 116 154 175 251 539 565 812 1480
2020-07-05 11:30 3.62 682 2020 (2004) 71 (1964) 405 94 116 154 175 251 539 565 812 1480
2020-07-05 10:30 3.64 692 2020 (2004) 71 (1964) 405 94 116 154 175 251 539 565 812 1480
2020-07-05 09:30 3.67 707 2020 (2004) 71 (1964) 405 94 116 154 175 251 539 565 812 1480
2020-07-05 08:30 3.69 717 2020 (2004) 71 (1964) 405 94 116 154 175 251 539 565 812 1480
2020-07-05 07:30 3.72 733 2020 (2004) 71 (1964) 405 94 116 154 175 251 539 565 812 1480
2020-07-05 06:30 3.74 743 2020 (2004) 71 (1964) 405 94 116 154 175 251 539 565 812 1480
2020-07-05 05:30 3.76 754 2020 (2004) 71 (1964) 405 94 116 154 175 251 539 565 812 1480
2020-07-05 04:30 3.78 764 2020 (2004) 71 (1964) 405 94 116 154 175 251 539 565 812 1480
2020-07-05 03:30 3.78 764 2020 (2004) 71 (1964) 405 94 116 154 175 251 539 565 812 1480
2020-07-05 02:30 3.77 759 2020 (2004) 71 (1964) 405 94 116 154 175 251 539 565 812 1480
2020-07-05 01:30 3.73 738 2020 (2004) 71 (1964) 405 94 116 154 175 251 539 565 812 1480
2020-07-05 00:30 3.63 687 2020 (2004) 71 (1964) 405 94 116 154 175 251 539 565 812 1480
2020-07-04 23:30 3.50 624 5130 (2004) 75 (1964) 487 89 121 162 171 264 520 639 1020 1650
2020-07-04 22:30 3.39 573 5130 (2004) 75 (1964) 487 89 121 162 171 264 520 639 1020 1650
2020-07-04 21:30 3.35 555 5130 (2004) 75 (1964) 487 89 121 162 171 264 520 639 1020 1650
2020-07-04 20:30 3.34 550 5130 (2004) 75 (1964) 487 89 121 162 171 264 520 639 1020 1650
2020-07-04 19:30 3.34 550 5130 (2004) 75 (1964) 487 89 121 162 171 264 520 639 1020 1650
2020-07-04 18:30 3.35 555 5130 (2004) 75 (1964) 487 89 121 162 171 264 520 639 1020 1650
2020-07-04 17:30 3.35 555 5130 (2004) 75 (1964) 487 89 121 162 171 264 520 639 1020 1650
2020-07-04 16:30 3.37 564 5130 (2004) 75 (1964) 487 89 121 162 171 264 520 639 1020 1650
2020-07-04 15:30 3.38 568 5130 (2004) 75 (1964) 487 89 121 162 171 264 520 639 1020 1650
2020-07-04 14:30 3.39 573 5130 (2004) 75 (1964) 487 89 121 162 171 264 520 639 1020 1650
2020-07-04 13:30 3.40 577 5130 (2004) 75 (1964) 487 89 121 162 171 264 520 639 1020 1650
2020-07-04 12:30 3.41 582 5130 (2004) 75 (1964) 487 89 121 162 171 264 520 639 1020 1650
2020-07-04 11:30 3.42 586 5130 (2004) 75 (1964) 487 89 121 162 171 264 520 639 1020 1650
2020-07-04 10:30 3.42 586 5130 (2004) 75 (1964) 487 89 121 162 171 264 520 639 1020 1650
2020-07-04 09:30 3.43 591 5130 (2004) 75 (1964) 487 89 121 162 171 264 520 639 1020 1650
2020-07-04 08:30 3.43 591 5130 (2004) 75 (1964) 487 89 121 162 171 264 520 639 1020 1650
2020-07-04 07:30 3.43 591 5130 (2004) 75 (1964) 487 89 121 162 171 264 520 639 1020 1650
2020-07-04 06:30 3.42 586 5130 (2004) 75 (1964) 487 89 121 162 171 264 520 639 1020 1650
2020-07-04 05:30 3.41 582 5130 (2004) 75 (1964) 487 89 121 162 171 264 520 639 1020 1650
2020-07-04 04:30 3.42 586 5130 (2004) 75 (1964) 487 89 121 162 171 264 520 639 1020 1650
2020-07-04 03:30 3.39 573 5130 (2004) 75 (1964) 487 89 121 162 171 264 520 639 1020 1650
2020-07-04 02:30 3.42 586 5130 (2004) 75 (1964) 487 89 121 162 171 264 520 639 1020 1650
2020-07-04 01:30 3.46 605 5130 (2004) 75 (1964) 487 89 121 162 171 264 520 639 1020 1650
2020-07-04 00:30 3.51 629 5130 (2004) 75 (1964) 487 89 121 162 171 264 520 639 1020 1650
2020-07-03 23:30 3.41 582 9870 (2004) 78 (1964) 611 92 127 157 194 288 435 512 1380 2390
2020-07-03 22:30 3.41 582 9870 (2004) 78 (1964) 611 92 127 157 194 288 435 512 1380 2390
2020-07-03 21:30 3.38 568 9870 (2004) 78 (1964) 611 92 127 157 194 288 435 512 1380 2390
2020-07-03 20:30 3.39 573 9870 (2004) 78 (1964) 611 92 127 157 194 288 435 512 1380 2390
2020-07-03 19:30 3.40 577 9870 (2004) 78 (1964) 611 92 127 157 194 288 435 512 1380 2390
2020-07-03 18:30 3.40 577 9870 (2004) 78 (1964) 611 92 127 157 194 288 435 512 1380 2390
2020-07-03 17:30 3.40 577 9870 (2004) 78 (1964) 611 92 127 157 194 288 435 512 1380 2390
2020-07-03 16:30 3.37 564 9870 (2004) 78 (1964) 611 92 127 157 194 288 435 512 1380 2390
2020-07-03 15:30 3.33 546 9870 (2004) 78 (1964) 611 92 127 157 194 288 435 512 1380 2390
2020-07-03 14:30 3.27 520 9870 (2004) 78 (1964) 611 92 127 157 194 288 435 512 1380 2390
2020-07-03 13:30 3.20 490 9870 (2004) 78 (1964) 611 92 127 157 194 288 435 512 1380 2390
2020-07-03 12:30 3.15 470 9870 (2004) 78 (1964) 611 92 127 157 194 288 435 512 1380 2390
2020-07-03 11:30 3.13 462 9870 (2004) 78 (1964) 611 92 127 157 194 288 435 512 1380 2390
2020-07-03 10:30 3.12 458 9870 (2004) 78 (1964) 611 92 127 157 194 288 435 512 1380 2390
2020-07-03 09:30 3.11 454 9870 (2004) 78 (1964) 611 92 127 157 194 288 435 512 1380 2390
2020-07-03 08:30 3.11 454 9870 (2004) 78 (1964) 611 92 127 157 194 288 435 512 1380 2390
2020-07-03 07:30 3.11 454 9870 (2004) 78 (1964) 611 92 127 157 194 288 435 512 1380 2390
2020-07-03 06:30 3.10 450 9870 (2004) 78 (1964) 611 92 127 157 194 288 435 512 1380 2390
2020-07-03 05:30 3.10 450 9870 (2004) 78 (1964) 611 92 127 157 194 288 435 512 1380 2390
2020-07-03 04:30 3.10 450 9870 (2004) 78 (1964) 611 92 127 157 194 288 435 512 1380 2390
2020-07-03 03:30 3.10 450 9870 (2004) 78 (1964) 611 92 127 157 194 288 435 512 1380 2390
2020-07-03 02:30 3.09 446 9870 (2004) 78 (1964) 611 92 127 157 194 288 435 512 1380 2390
2020-07-03 01:30 3.10 450 9870 (2004) 78 (1964) 611 92 127 157 194 288 435 512 1380 2390
2020-07-03 00:30 3.10 450 9870 (2004) 78 (1964) 611 92 127 157 194 288 435 512 1380 2390
2020-07-02 23:30 3.10 450 6020 (1968) 84 (1964) 528 93 126 177 203 303 433 527 935 1940
2020-07-02 22:30 3.11 454 6020 (1968) 84 (1964) 528 93 126 177 203 303 433 527 935 1940
2020-07-02 21:30 3.10 450 6020 (1968) 84 (1964) 528 93 126 177 203 303 433 527 935 1940
2020-07-02 20:30 3.11 454 6020 (1968) 84 (1964) 528 93 126 177 203 303 433 527 935 1940
2020-07-02 19:30 3.11 454 6020 (1968) 84 (1964) 528 93 126 177 203 303 433 527 935 1940
2020-07-02 18:30 3.11 454 6020 (1968) 84 (1964) 528 93 126 177 203 303 433 527 935 1940
2020-07-02 17:30 3.11 454 6020 (1968) 84 (1964) 528 93 126 177 203 303 433 527 935 1940
2020-07-02 16:30 3.11 454 6020 (1968) 84 (1964) 528 93 126 177 203 303 433 527 935 1940
2020-07-02 15:30 3.12 458 6020 (1968) 84 (1964) 528 93 126 177 203 303 433 527 935 1940
2020-07-02 14:30 3.11 454 6020 (1968) 84 (1964) 528 93 126 177 203 303 433 527 935 1940
2020-07-02 13:30 3.11 454 6020 (1968) 84 (1964) 528 93 126 177 203 303 433 527 935 1940
2020-07-02 12:30 3.12 458 6020 (1968) 84 (1964) 528 93 126 177 203 303 433 527 935 1940
2020-07-02 11:30 3.11 454 6020 (1968) 84 (1964) 528 93 126 177 203 303 433 527 935 1940
2020-07-02 10:30 3.12 458 6020 (1968) 84 (1964) 528 93 126 177 203 303 433 527 935 1940
2020-07-02 09:30 3.12 458 6020 (1968) 84 (1964) 528 93 126 177 203 303 433 527 935 1940
2020-07-02 08:30 3.12 458 6020 (1968) 84 (1964) 528 93 126 177 203 303 433 527 935 1940
2020-07-02 07:30 3.12 458 6020 (1968) 84 (1964) 528 93 126 177 203 303 433 527 935 1940
2020-07-02 06:30 3.12 458 6020 (1968) 84 (1964) 528 93 126 177 203 303 433 527 935 1940
2020-07-02 05:30 3.12 458 6020 (1968) 84 (1964) 528 93 126 177 203 303 433 527 935 1940
2020-07-02 04:30 3.12 458 6020 (1968) 84 (1964) 528 93 126 177 203 303 433 527 935 1940
2020-07-02 03:30 3.12 458 6020 (1968) 84 (1964) 528 93 126 177 203 303 433 527 935 1940
2020-07-02 02:30 3.12 458 6020 (1968) 84 (1964) 528 93 126 177 203 303 433 527 935 1940
2020-07-02 01:30 3.12 458 6020 (1968) 84 (1964) 528 93 126 177 203 303 433 527 935 1940
2020-07-02 00:30 3.12 458 6020 (1968) 84 (1964) 528 93 126 177 203 303 433 527 935 1940
2020-07-01 23:30 3.12 458 10900 (1999) 88 (1963) 600 94 127 166 186 309 457 510 724 2320
2020-07-01 22:30 3.12 458 10900 (1999) 88 (1963) 600 94 127 166 186 309 457 510 724 2320
2020-07-01 21:30 3.12 458 10900 (1999) 88 (1963) 600 94 127 166 186 309 457 510 724 2320
2020-07-01 20:30 3.13 462 10900 (1999) 88 (1963) 600 94 127 166 186 309 457 510 724 2320
2020-07-01 19:30 3.13 462 10900 (1999) 88 (1963) 600 94 127 166 186 309 457 510 724 2320
2020-07-01 18:30 3.13 462 10900 (1999) 88 (1963) 600 94 127 166 186 309 457 510 724 2320
2020-07-01 17:30 3.13 462 10900 (1999) 88 (1963) 600 94 127 166 186 309 457 510 724 2320
2020-07-01 16:30 3.13 462 10900 (1999) 88 (1963) 600 94 127 166 186 309 457 510 724 2320
2020-07-01 15:30 3.13 462 10900 (1999) 88 (1963) 600 94 127 166 186 309 457 510 724 2320
2020-07-01 14:30 3.13 462 10900 (1999) 88 (1963) 600 94 127 166 186 309 457 510 724 2320
2020-07-01 13:30 3.13 462 10900 (1999) 88 (1963) 600 94 127 166 186 309 457 510 724 2320
2020-07-01 12:30 3.14 466 10900 (1999) 88 (1963) 600 94 127 166 186 309 457 510 724 2320
2020-07-01 11:30 3.14 466 10900 (1999) 88 (1963) 600 94 127 166 186 309 457 510 724 2320
2020-07-01 10:30 3.14 466 10900 (1999) 88 (1963) 600 94 127 166 186 309 457 510 724 2320
2020-07-01 09:30 3.14 466 10900 (1999) 88 (1963) 600 94 127 166 186 309 457 510 724 2320
2020-07-01 08:30 3.14 466 10900 (1999) 88 (1963) 600 94 127 166 186 309 457 510 724 2320
2020-07-01 07:30 3.14 466 10900 (1999) 88 (1963) 600 94 127 166 186 309 457 510 724 2320
2020-07-01 06:30 3.14 466 10900 (1999) 88 (1963) 600 94 127 166 186 309 457 510 724 2320
2020-07-01 05:30 3.14 466 10900 (1999) 88 (1963) 600 94 127 166 186 309 457 510 724 2320
2020-07-01 04:30 3.14 466 10900 (1999) 88 (1963) 600 94 127 166 186 309 457 510 724 2320
2020-07-01 03:30 3.14 466 10900 (1999) 88 (1963) 600 94 127 166 186 309 457 510 724 2320
2020-07-01 02:30 3.14 466 10900 (1999) 88 (1963) 600 94 127 166 186 309 457 510 724 2320
2020-07-01 01:30 3.14 466 10900 (1999) 88 (1963) 600 94 127 166 186 309 457 510 724 2320
2020-07-01 00:30 3.14 466 10900 (1999) 88 (1963) 600 94 127 166 186 309 457 510 724 2320
2020-06-30 23:30 3.14 466 5740 (1999) 88 (1963) 486 104 133 172 184 307 452 499 646 1080
2020-06-30 22:30 3.14 466 5740 (1999) 88 (1963) 486 104 133 172 184 307 452 499 646 1080
2020-06-30 21:30 3.14 466 5740 (1999) 88 (1963) 486 104 133 172 184 307 452 499 646 1080
2020-06-30 20:30 3.15 470 5740 (1999) 88 (1963) 486 104 133 172 184 307 452 499 646 1080
2020-06-30 19:30 3.15 470 5740 (1999) 88 (1963) 486 104 133 172 184 307 452 499 646 1080
2020-06-30 18:30 3.15 470 5740 (1999) 88 (1963) 486 104 133 172 184 307 452 499 646 1080
2020-06-30 17:30 3.15 470 5740 (1999) 88 (1963) 486 104 133 172 184 307 452 499 646 1080
2020-06-30 16:30 3.15 470 5740 (1999) 88 (1963) 486 104 133 172 184 307 452 499 646 1080
2020-06-30 15:30 3.15 470 5740 (1999) 88 (1963) 486 104 133 172 184 307 452 499 646 1080
2020-06-30 14:30 3.15 470 5740 (1999) 88 (1963) 486 104 133 172 184 307 452 499 646 1080
2020-06-30 13:30 3.15 470 5740 (1999) 88 (1963) 486 104 133 172 184 307 452 499 646 1080
2020-06-30 12:30 3.14 466 5740 (1999) 88 (1963) 486 104 133 172 184 307 452 499 646 1080
2020-06-30 11:30 3.14 466 5740 (1999) 88 (1963) 486 104 133 172 184 307 452 499 646 1080
2020-06-30 10:30 3.14 466 5740 (1999) 88 (1963) 486 104 133 172 184 307 452 499 646 1080
2020-06-30 09:30 3.14 466 5740 (1999) 88 (1963) 486 104 133 172 184 307 452 499 646 1080
2020-06-30 08:30 3.14 466 5740 (1999) 88 (1963) 486 104 133 172 184 307 452 499 646 1080
2020-06-30 07:30 3.14 466 5740 (1999) 88 (1963) 486 104 133 172 184 307 452 499 646 1080
2020-06-30 06:30 3.14 466 5740 (1999) 88 (1963) 486 104 133 172 184 307 452 499 646 1080
2020-06-30 05:30 3.14 466 5740 (1999) 88 (1963) 486 104 133 172 184 307 452 499 646 1080
2020-06-30 04:30 3.14 466 5740 (1999) 88 (1963) 486 104 133 172 184 307 452 499 646 1080
2020-06-30 03:30 3.14 466 5740 (1999) 88 (1963) 486 104 133 172 184 307 452 499 646 1080
2020-06-30 02:30 3.14 466 5740 (1999) 88 (1963) 486 104 133 172 184 307 452 499 646 1080
2020-06-30 01:30 3.14 466 5740 (1999) 88 (1963) 486 104 133 172 184 307 452 499 646 1080
2020-06-30 00:30 3.13 462 5740 (1999) 88 (1963) 486 104 133 172 184 307 452 499 646 1080
2020-06-29 23:30 3.13 462 17600 (2000) 41 (1981) 640 100 126 156 180 302 482 534 775 1190
2020-06-29 22:30 3.14 466 17600 (2000) 41 (1981) 640 100 126 156 180 302 482 534 775 1190
2020-06-29 21:30 3.14 466 17600 (2000) 41 (1981) 640 100 126 156 180 302 482 534 775 1190
2020-06-29 20:30 3.14 466 17600 (2000) 41 (1981) 640 100 126 156 180 302 482 534 775 1190
2020-06-29 19:30 3.14 466 17600 (2000) 41 (1981) 640 100 126 156 180 302 482 534 775 1190
2020-06-29 18:30 3.14 466 17600 (2000) 41 (1981) 640 100 126 156 180 302 482 534 775 1190
2020-06-29 17:30 3.15 470 17600 (2000) 41 (1981) 640 100 126 156 180 302 482 534 775 1190
2020-06-29 16:30 3.15 470 17600 (2000) 41 (1981) 640 100 126 156 180 302 482 534 775 1190
2020-06-29 15:30 3.15 470 17600 (2000) 41 (1981) 640 100 126 156 180 302 482 534 775 1190
2020-06-29 14:30 3.15 470 17600 (2000) 41 (1981) 640 100 126 156 180 302 482 534 775 1190
2020-06-29 13:30 3.15 470 17600 (2000) 41 (1981) 640 100 126 156 180 302 482 534 775 1190
2020-06-29 12:30 3.15 470 17600 (2000) 41 (1981) 640 100 126 156 180 302 482 534 775 1190
2020-06-29 11:30 3.15 470 17600 (2000) 41 (1981) 640 100 126 156 180 302 482 534 775 1190
2020-06-29 10:30 3.15 470 17600 (2000) 41 (1981) 640 100 126 156 180 302 482 534 775 1190
2020-06-29 09:30 3.15 470 17600 (2000) 41 (1981) 640 100 126 156 180 302 482 534 775 1190
2020-06-29 08:30 3.15 470 17600 (2000) 41 (1981) 640 100 126 156 180 302 482 534 775 1190
2020-06-29 07:30 3.15 470 17600 (2000) 41 (1981) 640 100 126 156 180 302 482 534 775 1190
2020-06-29 06:30 3.15 470 17600 (2000) 41 (1981) 640 100 126 156 180 302 482 534 775 1190
2020-06-29 05:30 3.15 470 17600 (2000) 41 (1981) 640 100 126 156 180 302 482 534 775 1190
2020-06-29 04:30 3.15 470 17600 (2000) 41 (1981) 640 100 126 156 180 302 482 534 775 1190
2020-06-29 03:30 3.15 470 17600 (2000) 41 (1981) 640 100 126 156 180 302 482 534 775 1190
2020-06-29 02:30 3.15 470 17600 (2000) 41 (1981) 640 100 126 156 180 302 482 534 775 1190
2020-06-29 01:30 3.16 474 17600 (2000) 41 (1981) 640 100 126 156 180 302 482 534 775 1190
2020-06-29 00:30 3.16 474 17600 (2000) 41 (1981) 640 100 126 156 180 302 482 534 775 1190
2020-06-28 23:30 3.16 474 8200 (2000) 31 (1981) 517 104 135 160 185 302 500 562 831 1450
2020-06-28 22:30 3.16 474 8200 (2000) 31 (1981) 517 104 135 160 185 302 500 562 831 1450
2020-06-28 21:30 3.16 474 8200 (2000) 31 (1981) 517 104 135 160 185 302 500 562 831 1450
2020-06-28 20:30 3.17 478 8200 (2000) 31 (1981) 517 104 135 160 185 302 500 562 831 1450
2020-06-28 19:30 3.17 478 8200 (2000) 31 (1981) 517 104 135 160 185 302 500 562 831 1450
2020-06-28 18:30 3.17 478 8200 (2000) 31 (1981) 517 104 135 160 185 302 500 562 831 1450
2020-06-28 17:30 3.17 478 8200 (2000) 31 (1981) 517 104 135 160 185 302 500 562 831 1450
2020-06-28 16:30 3.18 482 8200 (2000) 31 (1981) 517 104 135 160 185 302 500 562 831 1450
2020-06-28 15:30 3.18 482 8200 (2000) 31 (1981) 517 104 135 160 185 302 500 562 831 1450
2020-06-28 14:30 3.18 482 8200 (2000) 31 (1981) 517 104 135 160 185 302 500 562 831 1450
2020-06-28 13:30 3.18 482 8200 (2000) 31 (1981) 517 104 135 160 185 302 500 562 831 1450
2020-06-28 12:30 3.18 482 8200 (2000) 31 (1981) 517 104 135 160 185 302 500 562 831 1450
2020-06-28 11:30 3.18 482 8200 (2000) 31 (1981) 517 104 135 160 185 302 500 562 831 1450
2020-06-28 10:30 3.18 482 8200 (2000) 31 (1981) 517 104 135 160 185 302 500 562 831 1450
2020-06-28 09:30 3.18 482 8200 (2000) 31 (1981) 517 104 135 160 185 302 500 562 831 1450
2020-06-28 08:30 3.18 482 8200 (2000) 31 (1981) 517 104 135 160 185 302 500 562 831 1450
2020-06-28 07:30 3.18 482 8200 (2000) 31 (1981) 517 104 135 160 185 302 500 562 831 1450
2020-06-28 06:30 3.18 482 8200 (2000) 31 (1981) 517 104 135 160 185 302 500 562 831 1450
2020-06-28 05:30 3.18 482 8200 (2000) 31 (1981) 517 104 135 160 185 302 500 562 831 1450
2020-06-28 04:30 3.18 482 8200 (2000) 31 (1981) 517 104 135 160 185 302 500 562 831 1450
2020-06-28 03:30 3.18 482 8200 (2000) 31 (1981) 517 104 135 160 185 302 500 562 831 1450
2020-06-28 02:30 3.19 486 8200 (2000) 31 (1981) 517 104 135 160 185 302 500 562 831 1450
2020-06-28 01:30 3.19 486 8200 (2000) 31 (1981) 517 104 135 160 185 302 500 562 831 1450
2020-06-28 00:30 3.19 486 8200 (2000) 31 (1981) 517 104 135 160 185 302 500 562 831 1450
2020-06-27 23:30 3.19 486 3730 (2015) 25 (1981) 493 112 139 171 179 294 523 572 1190 1840
2020-06-27 22:30 3.19 486 3730 (2015) 25 (1981) 493 112 139 171 179 294 523 572 1190 1840
2020-06-27 21:30 3.19 486 3730 (2015) 25 (1981) 493 112 139 171 179 294 523 572 1190 1840
2020-06-27 20:30 3.20 490 3730 (2015) 25 (1981) 493 112 139 171 179 294 523 572 1190 1840
2020-06-27 19:30 3.20 490 3730 (2015) 25 (1981) 493 112 139 171 179 294 523 572 1190 1840
2020-06-27 18:30 3.20 490 3730 (2015) 25 (1981) 493 112 139 171 179 294 523 572 1190 1840
2020-06-27 17:30 3.21 495 3730 (2015) 25 (1981) 493 112 139 171 179 294 523 572 1190 1840
2020-06-27 16:30 3.21 495 3730 (2015) 25 (1981) 493 112 139 171 179 294 523 572 1190 1840
2020-06-27 15:30 3.20 490 3730 (2015) 25 (1981) 493 112 139 171 179 294 523 572 1190 1840
2020-06-27 14:30 3.21 495 3730 (2015) 25 (1981) 493 112 139 171 179 294 523 572 1190 1840
2020-06-27 13:30 3.21 495 3730 (2015) 25 (1981) 493 112 139 171 179 294 523 572 1190 1840
2020-06-27 12:30 3.20 490 3730 (2015) 25 (1981) 493 112 139 171 179 294 523 572 1190 1840
2020-06-27 11:30 3.20 490 3730 (2015) 25 (1981) 493 112 139 171 179 294 523 572 1190 1840
2020-06-27 10:30 3.21 495 3730 (2015) 25 (1981) 493 112 139 171 179 294 523 572 1190 1840
2020-06-27 09:30 3.21 495 3730 (2015) 25 (1981) 493 112 139 171 179 294 523 572 1190 1840
2020-06-27 08:30 3.20 490 3730 (2015) 25 (1981) 493 112 139 171 179 294 523 572 1190 1840
2020-06-27 07:30 3.20 490 3730 (2015) 25 (1981) 493 112 139 171 179 294 523 572 1190 1840
2020-06-27 06:30 3.21 495 3730 (2015) 25 (1981) 493 112 139 171 179 294 523 572 1190 1840
2020-06-27 05:30 3.21 495 3730 (2015) 25 (1981) 493 112 139 171 179 294 523 572 1190 1840
2020-06-27 04:30 3.21 495 3730 (2015) 25 (1981) 493 112 139 171 179 294 523 572 1190 1840
2020-06-27 03:30 3.21 495 3730 (2015) 25 (1981) 493 112 139 171 179 294 523 572 1190 1840
2020-06-27 02:30 3.21 495 3730 (2015) 25 (1981) 493 112 139 171 179 294 523 572 1190 1840
2020-06-27 01:30 3.20 490 3730 (2015) 25 (1981) 493 112 139 171 179 294 523 572 1190 1840
2020-06-27 00:30 3.21 495 3730 (2015) 25 (1981) 493 112 139 171 179 294 523 572 1190 1840
2020-06-26 23:30 3.20 490 4550 (1993) 26 (1981) 550 118 137 179 195 300 537 628 1140 2430
2020-06-26 22:30 3.21 495 4550 (1993) 26 (1981) 550 118 137 179 195 300 537 628 1140 2430
2020-06-26 21:30 3.21 495 4550 (1993) 26 (1981) 550 118 137 179 195 300 537 628 1140 2430
2020-06-26 20:30 3.21 495 4550 (1993) 26 (1981) 550 118 137 179 195 300 537 628 1140 2430
2020-06-26 19:30 3.21 495 4550 (1993) 26 (1981) 550 118 137 179 195 300 537 628 1140 2430
2020-06-26 18:30 3.22 499 4550 (1993) 26 (1981) 550 118 137 179 195 300 537 628 1140 2430
2020-06-26 17:30 3.22 499 4550 (1993) 26 (1981) 550 118 137 179 195 300 537 628 1140 2430
2020-06-26 16:30 3.22 499 4550 (1993) 26 (1981) 550 118 137 179 195 300 537 628 1140 2430
2020-06-26 15:30 3.22 499 4550 (1993) 26 (1981) 550 118 137 179 195 300 537 628 1140 2430
2020-06-26 14:30 3.21 495 4550 (1993) 26 (1981) 550 118 137 179 195 300 537 628 1140 2430
2020-06-26 13:30 3.21 495 4550 (1993) 26 (1981) 550 118 137 179 195 300 537 628 1140 2430
2020-06-26 12:30 3.22 499 4550 (1993) 26 (1981) 550 118 137 179 195 300 537 628 1140 2430
2020-06-26 11:30 3.22 499 4550 (1993) 26 (1981) 550 118 137 179 195 300 537 628 1140 2430
2020-06-26 10:30 3.22 499 4550 (1993) 26 (1981) 550 118 137 179 195 300 537 628 1140 2430
2020-06-26 09:30 3.22 499 4550 (1993) 26 (1981) 550 118 137 179 195 300 537 628 1140 2430
2020-06-26 08:30 3.22 499 4550 (1993) 26 (1981) 550 118 137 179 195 300 537 628 1140 2430
2020-06-26 07:30 3.22 499 4550 (1993) 26 (1981) 550 118 137 179 195 300 537 628 1140 2430
2020-06-26 06:30 3.22 499 4550 (1993) 26 (1981) 550 118 137 179 195 300 537 628 1140 2430
2020-06-26 05:30 3.23 503 4550 (1993) 26 (1981) 550 118 137 179 195 300 537 628 1140 2430
2020-06-26 04:30 3.23 503 4550 (1993) 26 (1981) 550 118 137 179 195 300 537 628 1140 2430
2020-06-26 03:30 3.23 503 4550 (1993) 26 (1981) 550 118 137 179 195 300 537 628 1140 2430
2020-06-26 02:30 3.23 503 4550 (1993) 26 (1981) 550 118 137 179 195 300 537 628 1140 2430
2020-06-26 01:30 3.23 503 4550 (1993) 26 (1981) 550 118 137 179 195 300 537 628 1140 2430
2020-06-26 00:30 3.23 503 4550 (1993) 26 (1981) 550 118 137 179 195 300 537 628 1140 2430
2020-06-25 23:30 3.23 503 3670 (2000) 85 (1963) 564 123 137 176 196 334 615 706 1060 2680
2020-06-25 22:30 3.23 503 3670 (2000) 85 (1963) 564 123 137 176 196 334 615 706 1060 2680
2020-06-25 21:30 3.23 503 3670 (2000) 85 (1963) 564 123 137 176 196 334 615 706 1060 2680
2020-06-25 20:30 3.24 507 3670 (2000) 85 (1963) 564 123 137 176 196 334 615 706 1060 2680
2020-06-25 19:30 3.24 507 3670 (2000) 85 (1963) 564 123 137 176 196 334 615 706 1060 2680
2020-06-25 18:30 3.25 511 3670 (2000) 85 (1963) 564 123 137 176 196 334 615 706 1060 2680
2020-06-25 17:30 3.25 511 3670 (2000) 85 (1963) 564 123 137 176 196 334 615 706 1060 2680
2020-06-25 16:30 3.25 511 3670 (2000) 85 (1963) 564 123 137 176 196 334 615 706 1060 2680
2020-06-25 15:30 3.25 511 3670 (2000) 85 (1963) 564 123 137 176 196 334 615 706 1060 2680
2020-06-25 14:30 3.25 511 3670 (2000) 85 (1963) 564 123 137 176 196 334 615 706 1060 2680
2020-06-25 13:30 3.25 511 3670 (2000) 85 (1963) 564 123 137 176 196 334 615 706 1060 2680
2020-06-25 12:30 3.25 511 3670 (2000) 85 (1963) 564 123 137 176 196 334 615 706 1060 2680
2020-06-25 11:30 3.25 511 3670 (2000) 85 (1963) 564 123 137 176 196 334 615 706 1060 2680
2020-06-25 10:30 3.25 511 3670 (2000) 85 (1963) 564 123 137 176 196 334 615 706 1060 2680
2020-06-25 09:30 3.25 511 3670 (2000) 85 (1963) 564 123 137 176 196 334 615 706 1060 2680
2020-06-25 08:30 3.25 511 3670 (2000) 85 (1963) 564 123 137 176 196 334 615 706 1060 2680
2020-06-25 07:30 3.25 511 3670 (2000) 85 (1963) 564 123 137 176 196 334 615 706 1060 2680
2020-06-25 06:30 3.25 511 3670 (2000) 85 (1963) 564 123 137 176 196 334 615 706 1060 2680
2020-06-25 05:30 3.25 511 3670 (2000) 85 (1963) 564 123 137 176 196 334 615 706 1060 2680
2020-06-25 04:30 3.25 511 3670 (2000) 85 (1963) 564 123 137 176 196 334 615 706 1060 2680
2020-06-25 03:30 3.26 516 3670 (2000) 85 (1963) 564 123 137 176 196 334 615 706 1060 2680
2020-06-25 02:30 3.26 516 3670 (2000) 85 (1963) 564 123 137 176 196 334 615 706 1060 2680
2020-06-25 01:30 3.26 516 3670 (2000) 85 (1963) 564 123 137 176 196 334 615 706 1060 2680
2020-06-25 00:30 3.26 516 3670 (2000) 85 (1963) 564 123 137 176 196 334 615 706 1060 2680
2020-06-24 23:30 3.27 520 13900 (2019) 86 (1963) 706 105 131 196 206 351 530 747 1250 1570
2020-06-24 22:30 3.27 520 13900 (2019) 86 (1963) 706 105 131 196 206 351 530 747 1250 1570
2020-06-24 21:30 3.28 524 13900 (2019) 86 (1963) 706 105 131 196 206 351 530 747 1250 1570
2020-06-24 20:30 3.28 524 13900 (2019) 86 (1963) 706 105 131 196 206 351 530 747 1250 1570
2020-06-24 19:30 3.28 524 13900 (2019) 86 (1963) 706 105 131 196 206 351 530 747 1250 1570
2020-06-24 18:30 3.29 529 13900 (2019) 86 (1963) 706 105 131 196 206 351 530 747 1250 1570
2020-06-24 17:30 3.29 529 13900 (2019) 86 (1963) 706 105 131 196 206 351 530 747 1250 1570
2020-06-24 16:30 3.29 529 13900 (2019) 86 (1963) 706 105 131 196 206 351 530 747 1250 1570
2020-06-24 15:30 3.28 524 13900 (2019) 86 (1963) 706 105 131 196 206 351 530 747 1250 1570
2020-06-24 14:30 3.29 529 13900 (2019) 86 (1963) 706 105 131 196 206 351 530 747 1250 1570
2020-06-24 13:30 3.28 524 13900 (2019) 86 (1963) 706 105 131 196 206 351 530 747 1250 1570
2020-06-24 12:30 3.28 524 13900 (2019) 86 (1963) 706 105 131 196 206 351 530 747 1250 1570
2020-06-24 11:30 3.28 524 13900 (2019) 86 (1963) 706 105 131 196 206 351 530 747 1250 1570
2020-06-24 10:30 3.28 524 13900 (2019) 86 (1963) 706 105 131 196 206 351 530 747 1250 1570
2020-06-24 09:30 3.28 524 13900 (2019) 86 (1963) 706 105 131 196 206 351 530 747 1250 1570
2020-06-24 08:30 3.28 524 13900 (2019) 86 (1963) 706 105 131 196 206 351 530 747 1250 1570
2020-06-24 07:30 3.28 524 13900 (2019) 86 (1963) 706 105 131 196 206 351 530 747 1250 1570
2020-06-24 06:30 3.28 524 13900 (2019) 86 (1963) 706 105 131 196 206 351 530 747 1250 1570
2020-06-24 05:30 3.28 524 13900 (2019) 86 (1963) 706 105 131 196 206 351 530 747 1250 1570
2020-06-24 04:30 3.28 524 13900 (2019) 86 (1963) 706 105 131 196 206 351 530 747 1250 1570
2020-06-24 03:30 3.29 529 13900 (2019) 86 (1963) 706 105 131 196 206 351 530 747 1250 1570
2020-06-24 02:30 3.29 529 13900 (2019) 86 (1963) 706 105 131 196 206 351 530 747 1250 1570
2020-06-24 01:30 3.29 529 13900 (2019) 86 (1963) 706 105 131 196 206 351 530 747 1250 1570
2020-06-24 00:30 3.29 529 13900 (2019) 86 (1963) 706 105 131 196 206 351 530 747 1250 1570
2020-06-23 23:30 3.29 529 8150 (2019) 89 (1972) 596 109 130 202 210 303 505 591 836 2010
2020-06-23 22:30 3.29 529 8150 (2019) 89 (1972) 596 109 130 202 210 303 505 591 836 2010
2020-06-23 21:30 3.30 533 8150 (2019) 89 (1972) 596 109 130 202 210 303 505 591 836 2010
2020-06-23 20:30 3.30 533 8150 (2019) 89 (1972) 596 109 130 202 210 303 505 591 836 2010
2020-06-23 19:30 3.30 533 8150 (2019) 89 (1972) 596 109 130 202 210 303 505 591 836 2010
2020-06-23 18:30 3.31 537 8150 (2019) 89 (1972) 596 109 130 202 210 303 505 591 836 2010
2020-06-23 17:30 3.31 537 8150 (2019) 89 (1972) 596 109 130 202 210 303 505 591 836 2010
2020-06-23 16:30 3.31 537 8150 (2019) 89 (1972) 596 109 130 202 210 303 505 591 836 2010
2020-06-23 15:30 3.31 537 8150 (2019) 89 (1972) 596 109 130 202 210 303 505 591 836 2010
2020-06-23 14:30 3.32 542 8150 (2019) 89 (1972) 596 109 130 202 210 303 505 591 836 2010
2020-06-23 13:30 3.31 537 8150 (2019) 89 (1972) 596 109 130 202 210 303 505 591 836 2010
2020-06-23 12:30 3.31 537 8150 (2019) 89 (1972) 596 109 130 202 210 303 505 591 836 2010
2020-06-23 11:30 3.32 542 8150 (2019) 89 (1972) 596 109 130 202 210 303 505 591 836 2010
2020-06-23 10:30 3.31 537 8150 (2019) 89 (1972) 596 109 130 202 210 303 505 591 836 2010
2020-06-23 09:30 3.31 537 8150 (2019) 89 (1972) 596 109 130 202 210 303 505 591 836 2010
2020-06-23 08:30 3.30 533 8150 (2019) 89 (1972) 596 109 130 202 210 303 505 591 836 2010
2020-06-23 07:30 3.30 533 8150 (2019) 89 (1972) 596 109 130 202 210 303 505 591 836 2010
2020-06-23 06:30 3.30 533 8150 (2019) 89 (1972) 596 109 130 202 210 303 505 591 836 2010
2020-06-23 05:30 3.30 533 8150 (2019) 89 (1972) 596 109 130 202 210 303 505 591 836 2010
2020-06-23 04:30 3.30 533 8150 (2019) 89 (1972) 596 109 130 202 210 303 505 591 836 2010
2020-06-23 03:30 3.30 533 8150 (2019) 89 (1972) 596 109 130 202 210 303 505 591 836 2010
2020-06-23 02:30 3.30 533 8150 (2019) 89 (1972) 596 109 130 202 210 303 505 591 836 2010
2020-06-23 01:30 3.30 533 8150 (2019) 89 (1972) 596 109 130 202 210 303 505 591 836 2010
2020-06-23 00:30 3.30 533 8150 (2019) 89 (1972) 596 109 130 202 210 303 505 591 836 2010
2020-06-22 23:30 3.30 533 17400 (2000) 92 (1972) 775 113 136 193 210 300 552 662 876 2850
2020-06-22 22:30 3.31 537 17400 (2000) 92 (1972) 775 113 136 193 210 300 552 662 876 2850
2020-06-22 21:30 3.31 537 17400 (2000) 92 (1972) 775 113 136 193 210 300 552 662 876 2850
2020-06-22 20:30 3.32 542 17400 (2000) 92 (1972) 775 113 136 193 210 300 552 662 876 2850
2020-06-22 19:30 3.32 542 17400 (2000) 92 (1972) 775 113 136 193 210 300 552 662 876 2850
2020-06-22 18:30 3.32 542 17400 (2000) 92 (1972) 775 113 136 193 210 300 552 662 876 2850
2020-06-22 17:30 3.33 546 17400 (2000) 92 (1972) 775 113 136 193 210 300 552 662 876 2850
2020-06-22 16:30 3.33 546 17400 (2000) 92 (1972) 775 113 136 193 210 300 552 662 876 2850
2020-06-22 15:30 3.43 582 17400 (2000) 92 (1972) 775 113 136 193 210 300 552 662 876 2850
2020-06-22 14:30 3.43 582 17400 (2000) 92 (1972) 775 113 136 193 210 300 552 662 876 2850
2020-06-22 13:30 3.43 582 17400 (2000) 92 (1972) 775 113 136 193 210 300 552 662 876 2850
2020-06-22 12:30 3.43 582 17400 (2000) 92 (1972) 775 113 136 193 210 300 552 662 876 2850
2020-06-22 11:30 3.43 582 17400 (2000) 92 (1972) 775 113 136 193 210 300 552 662 876 2850
2020-06-22 10:30 3.43 582 17400 (2000) 92 (1972) 775 113 136 193 210 300 552 662 876 2850
2020-06-22 09:30 3.43 582 17400 (2000) 92 (1972) 775 113 136 193 210 300 552 662 876 2850
2020-06-22 08:30 3.43 582 17400 (2000) 92 (1972) 775 113 136 193 210 300 552 662 876 2850
2020-06-22 07:30 3.43 582 17400 (2000) 92 (1972) 775 113 136 193 210 300 552 662 876 2850
2020-06-22 06:30 3.43 582 17400 (2000) 92 (1972) 775 113 136 193 210 300 552 662 876 2850
2020-06-22 05:30 3.43 582 17400 (2000) 92 (1972) 775 113 136 193 210 300 552 662 876 2850
2020-06-22 04:30 3.43 582 17400 (2000) 92 (1972) 775 113 136 193 210 300 552 662 876 2850
2020-06-22 03:30 3.43 582 17400 (2000) 92 (1972) 775 113 136 193 210 300 552 662 876 2850
2020-06-22 02:30 3.43 582 17400 (2000) 92 (1972) 775 113 136 193 210 300 552 662 876 2850
2020-06-22 01:30 3.43 582 17400 (2000) 92 (1972) 775 113 136 193 210 300 552 662 876 2850
2020-06-22 00:30 3.43 582 17400 (2000) 92 (1972) 775 113 136 193 210 300 552 662 876 2850
2020-06-21 23:30 3.43 582 18200 (2000) 94 (1963) 780 118 144 204 213 281 624 712 1070 2520
2020-06-21 22:30 3.44 586 18200 (2000) 94 (1963) 780 118 144 204 213 281 624 712 1070 2520
2020-06-21 21:30 3.44 586 18200 (2000) 94 (1963) 780 118 144 204 213 281 624 712 1070 2520
2020-06-21 20:30 3.44 586 18200 (2000) 94 (1963) 780 118 144 204 213 281 624 712 1070 2520
2020-06-21 19:30 3.45 591 18200 (2000) 94 (1963) 780 118 144 204 213 281 624 712 1070 2520
2020-06-21 18:30 3.45 591 18200 (2000) 94 (1963) 780 118 144 204 213 281 624 712 1070 2520
2020-06-21 17:30 3.45 591 18200 (2000) 94 (1963) 780 118 144 204 213 281 624 712 1070 2520
2020-06-21 16:30 3.45 591 18200 (2000) 94 (1963) 780 118 144 204 213 281 624 712 1070 2520
2020-06-21 15:30 3.45 591 18200 (2000) 94 (1963) 780 118 144 204 213 281 624 712 1070 2520
2020-06-21 14:30 3.46 596 18200 (2000) 94 (1963) 780 118 144 204 213 281 624 712 1070 2520
2020-06-21 13:30 3.46 596 18200 (2000) 94 (1963) 780 118 144 204 213 281 624 712 1070 2520
2020-06-21 12:30 3.46 596 18200 (2000) 94 (1963) 780 118 144 204 213 281 624 712 1070 2520
2020-06-21 11:30 3.46 596 18200 (2000) 94 (1963) 780 118 144 204 213 281 624 712 1070 2520
2020-06-21 10:30 3.46 596 18200 (2000) 94 (1963) 780 118 144 204 213 281 624 712 1070 2520
2020-06-21 09:30 3.45 591 18200 (2000) 94 (1963) 780 118 144 204 213 281 624 712 1070 2520
2020-06-21 08:30 3.45 591 18200 (2000) 94 (1963) 780 118 144 204 213 281 624 712 1070 2520
2020-06-21 07:30 3.45 591 18200 (2000) 94 (1963) 780 118 144 204 213 281 624 712 1070 2520
2020-06-21 06:30 3.45 591 18200 (2000) 94 (1963) 780 118 144 204 213 281 624 712 1070 2520
2020-06-21 05:30 3.45 591 18200 (2000) 94 (1963) 780 118 144 204 213 281 624 712 1070 2520
2020-06-21 04:30 3.46 596 18200 (2000) 94 (1963) 780 118 144 204 213 281 624 712 1070 2520
2020-06-21 03:30 3.46 596 18200 (2000) 94 (1963) 780 118 144 204 213 281 624 712 1070 2520
2020-06-21 02:30 3.46 596 18200 (2000) 94 (1963) 780 118 144 204 213 281 624 712 1070 2520
2020-06-21 01:30 3.46 596 18200 (2000) 94 (1963) 780 118 144 204 213 281 624 712 1070 2520
2020-06-21 00:30 3.46 596 18200 (2000) 94 (1963) 780 118 144 204 213 281 624 712 1070 2520
2020-06-20 23:30 3.47 600 6600 (2015) 91 (1963) 605 109 145 212 227 314 641 758 1280 1990
2020-06-20 22:30 3.47 600 6600 (2015) 91 (1963) 605 109 145 212 227 314 641 758 1280 1990
2020-06-20 21:30 3.48 605 6600 (2015) 91 (1963) 605 109 145 212 227 314 641 758 1280 1990
2020-06-20 20:30 3.48 605 6600 (2015) 91 (1963) 605 109 145 212 227 314 641 758 1280 1990
2020-06-20 19:30 3.48 605 6600 (2015) 91 (1963) 605 109 145 212 227 314 641 758 1280 1990
2020-06-20 18:30 3.48 605 6600 (2015) 91 (1963) 605 109 145 212 227 314 641 758 1280 1990
2020-06-20 17:30 3.48 605 6600 (2015) 91 (1963) 605 109 145 212 227 314 641 758 1280 1990
2020-06-20 16:30 3.49 610 6600 (2015) 91 (1963) 605 109 145 212 227 314 641 758 1280 1990
2020-06-20 15:30 3.49 610 6600 (2015) 91 (1963) 605 109 145 212 227 314 641 758 1280 1990
2020-06-20 14:30 3.49 610 6600 (2015) 91 (1963) 605 109 145 212 227 314 641 758 1280 1990
2020-06-20 13:30 3.49 610 6600 (2015) 91 (1963) 605 109 145 212 227 314 641 758 1280 1990
2020-06-20 12:30 3.49 610 6600 (2015) 91 (1963) 605 109 145 212 227 314 641 758 1280 1990
2020-06-20 11:30 3.49 610 6600 (2015) 91 (1963) 605 109 145 212 227 314 641 758 1280 1990
2020-06-20 10:30 3.49 610 6600 (2015) 91 (1963) 605 109 145 212 227 314 641 758 1280 1990
2020-06-20 09:30 3.49 610 6600 (2015) 91 (1963) 605 109 145 212 227 314 641 758 1280 1990
2020-06-20 08:30 3.49 610 6600 (2015) 91 (1963) 605 109 145 212 227 314 641 758 1280 1990
2020-06-20 07:30 3.48 605 6600 (2015) 91 (1963) 605 109 145 212 227 314 641 758 1280 1990
2020-06-20 06:30 3.48 605 6600 (2015) 91 (1963) 605 109 145 212 227 314 641 758 1280 1990
2020-06-20 05:30 3.48 605 6600 (2015) 91 (1963) 605 109 145 212 227 314 641 758 1280 1990
2020-06-20 04:30 3.48 605 6600 (2015) 91 (1963) 605 109 145 212 227 314 641 758 1280 1990
2020-06-20 03:30 3.47 600 6600 (2015) 91 (1963) 605 109 145 212 227 314 641 758 1280 1990
2020-06-20 02:30 3.48 605 6600 (2015) 91 (1963) 605 109 145 212 227 314 641 758 1280 1990
2020-06-20 01:30 3.48 605 6600 (2015) 91 (1963) 605 109 145 212 227 314 641 758 1280 1990
2020-06-20 00:30 3.48 605 6600 (2015) 91 (1963) 605 109 145 212 227 314 641 758 1280 1990
2020-06-19 23:30 3.49 610 14800 (2015) 96 (1963) 759 112 163 214 230 303 682 829 1150 2400
2020-06-19 22:30 3.49 610 14800 (2015) 96 (1963) 759 112 163 214 230 303 682 829 1150 2400
2020-06-19 21:30 3.50 614 14800 (2015) 96 (1963) 759 112 163 214 230 303 682 829 1150 2400
2020-06-19 20:30 3.50 614 14800 (2015) 96 (1963) 759 112 163 214 230 303 682 829 1150 2400
2020-06-19 19:30 3.50 614 14800 (2015) 96 (1963) 759 112 163 214 230 303 682 829 1150 2400
2020-06-19 18:30 3.51 619 14800 (2015) 96 (1963) 759 112 163 214 230 303 682 829 1150 2400
2020-06-19 17:30 3.50 614 14800 (2015) 96 (1963) 759 112 163 214 230 303 682 829 1150 2400
2020-06-19 16:30 3.51 619 14800 (2015) 96 (1963) 759 112 163 214 230 303 682 829 1150 2400
2020-06-19 15:30 3.51 619 14800 (2015) 96 (1963) 759 112 163 214 230 303 682 829 1150 2400
2020-06-19 14:30 3.51 619 14800 (2015) 96 (1963) 759 112 163 214 230 303 682 829 1150 2400
2020-06-19 13:30 3.51 619 14800 (2015) 96 (1963) 759 112 163 214 230 303 682 829 1150 2400
2020-06-19 11:30 13.20 11200 14800 (2015) 96 (1963) 759 112 163 214 230 303 682 829 1150 2400
2020-06-19 11:00 3.52 624 14800 (2015) 96 (1963) 759 112 163 214 230 303 682 829 1150 2400
2020-06-19 10:30 3.52 624 14800 (2015) 96 (1963) 759 112 163 214 230 303 682 829 1150 2400
2020-06-19 09:30 3.52 624 14800 (2015) 96 (1963) 759 112 163 214 230 303 682 829 1150 2400
2020-06-19 08:30 3.53 629 14800 (2015) 96 (1963) 759 112 163 214 230 303 682 829 1150 2400
2020-06-19 07:30 3.53 629 14800 (2015) 96 (1963) 759 112 163 214 230 303 682 829 1150 2400
2020-06-19 06:30 3.53 629 14800 (2015) 96 (1963) 759 112 163 214 230 303 682 829 1150 2400
2020-06-19 05:30 3.53 629 14800 (2015) 96 (1963) 759 112 163 214 230 303 682 829 1150 2400
2020-06-19 04:30 3.53 629 14800 (2015) 96 (1963) 759 112 163 214 230 303 682 829 1150 2400
2020-06-19 03:30 3.53 629 14800 (2015) 96 (1963) 759 112 163 214 230 303 682 829 1150 2400
2020-06-19 02:30 3.53 629 14800 (2015) 96 (1963) 759 112 163 214 230 303 682 829 1150 2400
2020-06-19 01:30 3.53 629 14800 (2015) 96 (1963) 759 112 163 214 230 303 682 829 1150 2400
2020-06-19 00:30 3.53 629 14800 (2015) 96 (1963) 759 112 163 214 230 303 682 829 1150 2400
2020-06-18 23:30 3.54 633 8740 (2000) 98 (1963) 653 108 169 208 227 344 674 886 1290 1920
2020-06-18 22:30 3.54 633 8740 (2000) 98 (1963) 653 108 169 208 227 344 674 886 1290 1920
2020-06-18 21:30 3.54 633 8740 (2000) 98 (1963) 653 108 169 208 227 344 674 886 1290 1920
2020-06-18 20:30 3.55 638 8740 (2000) 98 (1963) 653 108 169 208 227 344 674 886 1290 1920
2020-06-18 19:30 3.55 638 8740 (2000) 98 (1963) 653 108 169 208 227 344 674 886 1290 1920
2020-06-18 18:30 3.56 643 8740 (2000) 98 (1963) 653 108 169 208 227 344 674 886 1290 1920
2020-06-18 17:30 3.56 643 8740 (2000) 98 (1963) 653 108 169 208 227 344 674 886 1290 1920
2020-06-18 16:30 3.56 643 8740 (2000) 98 (1963) 653 108 169 208 227 344 674 886 1290 1920
2020-06-18 15:30 3.56 643 8740 (2000) 98 (1963) 653 108 169 208 227 344 674 886 1290 1920
2020-06-18 14:30 3.56 643 8740 (2000) 98 (1963) 653 108 169 208 227 344 674 886 1290 1920
2020-06-18 13:30 3.57 648 8740 (2000) 98 (1963) 653 108 169 208 227 344 674 886 1290 1920
2020-06-18 12:30 3.57 648 8740 (2000) 98 (1963) 653 108 169 208 227 344 674 886 1290 1920
2020-06-18 11:30 3.57 648 8740 (2000) 98 (1963) 653 108 169 208 227 344 674 886 1290 1920
2020-06-18 10:30 3.57 648 8740 (2000) 98 (1963) 653 108 169 208 227 344 674 886 1290 1920
2020-06-18 09:30 3.58 653 8740 (2000) 98 (1963) 653 108 169 208 227 344 674 886 1290 1920
2020-06-18 08:30 3.58 653 8740 (2000) 98 (1963) 653 108 169 208 227 344 674 886 1290 1920
2020-06-18 07:30 3.59 657 8740 (2000) 98 (1963) 653 108 169 208 227 344 674 886 1290 1920
2020-06-18 06:30 3.59 657 8740 (2000) 98 (1963) 653 108 169 208 227 344 674 886 1290 1920
2020-06-18 05:30 3.60 662 8740 (2000) 98 (1963) 653 108 169 208 227 344 674 886 1290 1920
2020-06-18 04:30 3.60 662 8740 (2000) 98 (1963) 653 108 169 208 227 344 674 886 1290 1920
2020-06-18 03:30 3.61 667 8740 (2000) 98 (1963) 653 108 169 208 227 344 674 886 1290 1920
2020-06-18 02:30 3.62 672 8740 (2000) 98 (1963) 653 108 169 208 227 344 674 886 1290 1920
2020-06-18 01:30 3.63 677 8740 (2000) 98 (1963) 653 108 169 208 227 344 674 886 1290 1920
2020-06-18 00:30 3.64 682 8740 (2000) 98 (1963) 653 108 169 208 227 344 674 886 1290 1920
2020-06-17 23:30 3.66 692 4130 (2000) 86 (1976) 635 104 158 206 226 358 735 830 1150 3080
2020-06-17 22:30 3.67 697 4130 (2000) 86 (1976) 635 104 158 206 226 358 735 830 1150 3080
2020-06-17 21:30 3.68 702 4130 (2000) 86 (1976) 635 104 158 206 226 358 735 830 1150 3080
2020-06-17 20:30 3.70 712 4130 (2000) 86 (1976) 635 104 158 206 226 358 735 830 1150 3080
2020-06-17 19:30 3.71 717 4130 (2000) 86 (1976) 635 104 158 206 226 358 735 830 1150 3080
2020-06-17 18:30 3.73 728 4130 (2000) 86 (1976) 635 104 158 206 226 358 735 830 1150 3080
2020-06-17 17:30 3.72 723 4130 (2000) 86 (1976) 635 104 158 206 226 358 735 830 1150 3080
2020-06-17 16:30 3.71 717 4130 (2000) 86 (1976) 635 104 158 206 226 358 735 830 1150 3080
2020-06-17 15:30 3.69 707 4130 (2000) 86 (1976) 635 104 158 206 226 358 735 830 1150 3080
2020-06-17 14:30 3.66 692 4130 (2000) 86 (1976) 635 104 158 206 226 358 735 830 1150 3080
2020-06-17 13:30 3.64 682 4130 (2000) 86 (1976) 635 104 158 206 226 358 735 830 1150 3080
2020-06-17 12:30 3.62 672 4130 (2000) 86 (1976) 635 104 158 206 226 358 735 830 1150 3080
2020-06-17 11:30 3.60 662 4130 (2000) 86 (1976) 635 104 158 206 226 358 735 830 1150 3080
2020-06-17 10:30 3.59 657 4130 (2000) 86 (1976) 635 104 158 206 226 358 735 830 1150 3080
2020-06-17 09:30 3.59 657 4130 (2000) 86 (1976) 635 104 158 206 226 358 735 830 1150 3080
2020-06-17 08:30 3.58 653 4130 (2000) 86 (1976) 635 104 158 206 226 358 735 830 1150 3080
2020-06-17 07:30 3.58 653 4130 (2000) 86 (1976) 635 104 158 206 226 358 735 830 1150 3080
2020-06-17 06:30 3.58 653 4130 (2000) 86 (1976) 635 104 158 206 226 358 735 830 1150 3080
2020-06-17 05:30 3.58 653 4130 (2000) 86 (1976) 635 104 158 206 226 358 735 830 1150 3080
2020-06-17 04:30 3.58 653 4130 (2000) 86 (1976) 635 104 158 206 226 358 735 830 1150 3080
2020-06-17 03:30 3.58 653 4130 (2000) 86 (1976) 635 104 158 206 226 358 735 830 1150 3080
2020-06-17 02:30 3.58 653 4130 (2000) 86 (1976) 635 104 158 206 226 358 735 830 1150 3080
2020-06-17 01:30 3.57 648 4130 (2000) 86 (1976) 635 104 158 206 226 358 735 830 1150 3080
2020-06-17 00:30 3.57 648 4130 (2000) 86 (1976) 635 104 158 206 226 358 735 830 1150 3080
2020-06-16 23:30 3.58 653 19700 (1982) 57 (1976) 803 107 119 195 212 347 768 875 1190 1390
2020-06-16 22:30 3.58 653 19700 (1982) 57 (1976) 803 107 119 195 212 347 768 875 1190 1390
2020-06-16 21:30 3.58 653 19700 (1982) 57 (1976) 803 107 119 195 212 347 768 875 1190 1390
2020-06-16 20:30 3.59 657 19700 (1982) 57 (1976) 803 107 119 195 212 347 768 875 1190 1390
2020-06-16 19:30 3.59 657 19700 (1982) 57 (1976) 803 107 119 195 212 347 768 875 1190 1390
2020-06-16 18:30 3.59 657 19700 (1982) 57 (1976) 803 107 119 195 212 347 768 875 1190 1390
2020-06-16 17:30 3.60 662 19700 (1982) 57 (1976) 803 107 119 195 212 347 768 875 1190 1390
2020-06-16 16:30 3.60 662 19700 (1982) 57 (1976) 803 107 119 195 212 347 768 875 1190 1390
2020-06-16 15:30 3.60 662 19700 (1982) 57 (1976) 803 107 119 195 212 347 768 875 1190 1390
2020-06-16 14:30 3.60 662 19700 (1982) 57 (1976) 803 107 119 195 212 347 768 875 1190 1390
2020-06-16 13:30 3.60 662 19700 (1982) 57 (1976) 803 107 119 195 212 347 768 875 1190 1390
2020-06-16 12:30 3.60 662 19700 (1982) 57 (1976) 803 107 119 195 212 347 768 875 1190 1390
2020-06-16 11:30 3.61 667 19700 (1982) 57 (1976) 803 107 119 195 212 347 768 875 1190 1390
2020-06-16 10:30 3.61 667 19700 (1982) 57 (1976) 803 107 119 195 212 347 768 875 1190 1390
2020-06-16 09:30 3.61 667 19700 (1982) 57 (1976) 803 107 119 195 212 347 768 875 1190 1390
2020-06-16 08:30 3.61 667 19700 (1982) 57 (1976) 803 107 119 195 212 347 768 875 1190 1390
2020-06-16 07:30 3.61 667 19700 (1982) 57 (1976) 803 107 119 195 212 347 768 875 1190 1390
2020-06-16 06:30 3.61 667 19700 (1982) 57 (1976) 803 107 119 195 212 347 768 875 1190 1390
2020-06-16 05:30 3.62 672 19700 (1982) 57 (1976) 803 107 119 195 212 347 768 875 1190 1390
2020-06-16 04:30 3.62 672 19700 (1982) 57 (1976) 803 107 119 195 212 347 768 875 1190 1390
2020-06-16 03:30 3.62 672 19700 (1982) 57 (1976) 803 107 119 195 212 347 768 875 1190 1390
2020-06-16 02:30 3.63 677 19700 (1982) 57 (1976) 803 107 119 195 212 347 768 875 1190 1390
2020-06-16 01:30 3.63 677 19700 (1982) 57 (1976) 803 107 119 195 212 347 768 875 1190 1390
2020-06-16 00:30 3.63 677 19700 (1982) 57 (1976) 803 107 119 195 212 347 768 875 1190 1390
2020-06-15 23:30 3.62 672 3240 (2001) 98 (1963) 612 112 145 200 220 374 846 917 1470 1900
2020-06-15 22:30 3.63 677 3240 (2001) 98 (1963) 612 112 145 200 220 374 846 917 1470 1900
2020-06-15 21:30 3.63 677 3240 (2001) 98 (1963) 612 112 145 200 220 374 846 917 1470 1900
2020-06-15 20:30 3.64 682 3240 (2001) 98 (1963) 612 112 145 200 220 374 846 917 1470 1900
2020-06-15 19:30 3.64 682 3240 (2001) 98 (1963) 612 112 145 200 220 374 846 917 1470 1900
2020-06-15 18:30 3.65 687 3240 (2001) 98 (1963) 612 112 145 200 220 374 846 917 1470 1900
2020-06-15 17:30 3.65 687 3240 (2001) 98 (1963) 612 112 145 200 220 374 846 917 1470 1900
2020-06-15 16:30 3.65 687 3240 (2001) 98 (1963) 612 112 145 200 220 374 846 917 1470 1900
2020-06-15 15:30 3.66 692 3240 (2001) 98 (1963) 612 112 145 200 220 374 846 917 1470 1900
2020-06-15 14:30 3.66 692 3240 (2001) 98 (1963) 612 112 145 200 220 374 846 917 1470 1900
2020-06-15 13:30 3.66 692 3240 (2001) 98 (1963) 612 112 145 200 220 374 846 917 1470 1900
2020-06-15 12:30 3.66 692 3240 (2001) 98 (1963) 612 112 145 200 220 374 846 917 1470 1900
2020-06-15 11:30 3.66 692 3240 (2001) 98 (1963) 612 112 145 200 220 374 846 917 1470 1900
2020-06-15 10:30 3.66 692 3240 (2001) 98 (1963) 612 112 145 200 220 374 846 917 1470 1900
2020-06-15 09:30 3.65 687 3240 (2001) 98 (1963) 612 112 145 200 220 374 846 917 1470 1900
2020-06-15 08:30 3.65 687 3240 (2001) 98 (1963) 612 112 145 200 220 374 846 917 1470 1900
2020-06-15 07:30 3.65 687 3240 (2001) 98 (1963) 612 112 145 200 220 374 846 917 1470 1900
2020-06-15 06:30 3.65 687 3240 (2001) 98 (1963) 612 112 145 200 220 374 846 917 1470 1900
2020-06-15 05:30 3.65 687 3240 (2001) 98 (1963) 612 112 145 200 220 374 846 917 1470 1900
2020-06-15 04:30 3.65 687 3240 (2001) 98 (1963) 612 112 145 200 220 374 846 917 1470 1900
2020-06-15 03:30 3.66 692 3240 (2001) 98 (1963) 612 112 145 200 220 374 846 917 1470 1900
2020-06-15 02:30 3.66 692 3240 (2001) 98 (1963) 612 112 145 200 220 374 846 917 1470 1900
2020-06-15 01:30 3.66 692 3240 (2001) 98 (1963) 612 112 145 200 220 374 846 917 1470 1900
2020-06-15 00:30 3.67 697 3240 (2001) 98 (1963) 612 112 145 200 220 374 846 917 1470 1900
2020-06-14 23:30 3.67 697 4630 (1989) 96 (1963) 573 108 148 206 235 401 645 813 1040 1690
2020-06-14 22:30 3.68 702 4630 (1989) 96 (1963) 573 108 148 206 235 401 645 813 1040 1690
2020-06-14 21:30 3.68 702 4630 (1989) 96 (1963) 573 108 148 206 235 401 645 813 1040 1690
2020-06-14 20:30 3.69 707 4630 (1989) 96 (1963) 573 108 148 206 235 401 645 813 1040 1690
2020-06-14 19:30 3.69 707 4630 (1989) 96 (1963) 573 108 148 206 235 401 645 813 1040 1690
2020-06-14 18:30 3.70 712 4630 (1989) 96 (1963) 573 108 148 206 235 401 645 813 1040 1690
2020-06-14 17:30 3.70 712 4630 (1989) 96 (1963) 573 108 148 206 235 401 645 813 1040 1690
2020-06-14 16:30 3.70 712 4630 (1989) 96 (1963) 573 108 148 206 235 401 645 813 1040 1690
2020-06-14 15:30 3.70 712 4630 (1989) 96 (1963) 573 108 148 206 235 401 645 813 1040 1690
2020-06-14 14:30 3.71 717 4630 (1989) 96 (1963) 573 108 148 206 235 401 645 813 1040 1690
2020-06-14 13:30 3.71 717 4630 (1989) 96 (1963) 573 108 148 206 235 401 645 813 1040 1690
2020-06-14 12:30 3.71 717 4630 (1989) 96 (1963) 573 108 148 206 235 401 645 813 1040 1690
2020-06-14 11:30 3.71 717 4630 (1989) 96 (1963) 573 108 148 206 235 401 645 813 1040 1690
2020-06-14 10:30 3.72 723 4630 (1989) 96 (1963) 573 108 148 206 235 401 645 813 1040 1690
2020-06-14 09:30 3.71 717 4630 (1989) 96 (1963) 573 108 148 206 235 401 645 813 1040 1690
2020-06-14 08:30 3.72 723 4630 (1989) 96 (1963) 573 108 148 206 235 401 645 813 1040 1690
2020-06-14 07:30 3.72 723 4630 (1989) 96 (1963) 573 108 148 206 235 401 645 813 1040 1690
2020-06-14 06:30 3.72 723 4630 (1989) 96 (1963) 573 108 148 206 235 401 645 813 1040 1690
2020-06-14 05:30 3.72 723 4630 (1989) 96 (1963) 573 108 148 206 235 401 645 813 1040 1690
2020-06-14 04:30 3.72 723 4630 (1989) 96 (1963) 573 108 148 206 235 401 645 813 1040 1690
2020-06-14 03:30 3.72 723 4630 (1989) 96 (1963) 573 108 148 206 235 401 645 813 1040 1690
2020-06-14 02:30 3.72 723 4630 (1989) 96 (1963) 573 108 148 206 235 401 645 813 1040 1690
2020-06-14 01:30 3.73 728 4630 (1989) 96 (1963) 573 108 148 206 235 401 645 813 1040 1690
2020-06-14 00:30 3.73 728 4630 (1989) 96 (1963) 573 108 148 206 235 401 645 813 1040 1690
2020-06-13 23:30 3.73 728 3990 (1989) 86 (1977) 611 103 152 218 238 426 733 786 1120 2240
2020-06-13 22:30 3.74 733 3990 (1989) 86 (1977) 611 103 152 218 238 426 733 786 1120 2240
2020-06-13 21:30 3.74 733 3990 (1989) 86 (1977) 611 103 152 218 238 426 733 786 1120 2240
2020-06-13 20:30 3.75 738 3990 (1989) 86 (1977) 611 103 152 218 238 426 733 786 1120 2240
2020-06-13 19:30 3.75 738 3990 (1989) 86 (1977) 611 103 152 218 238 426 733 786 1120 2240
2020-06-13 18:30 3.75 738 3990 (1989) 86 (1977) 611 103 152 218 238 426 733 786 1120 2240
2020-06-13 17:30 3.76 743 3990 (1989) 86 (1977) 611 103 152 218 238 426 733 786 1120 2240
2020-06-13 16:30 3.76 743 3990 (1989) 86 (1977) 611 103 152 218 238 426 733 786 1120 2240
2020-06-13 15:30 3.76 743 3990 (1989) 86 (1977) 611 103 152 218 238 426 733 786 1120 2240
2020-06-13 14:30 3.76 743 3990 (1989) 86 (1977) 611 103 152 218 238 426 733 786 1120 2240
2020-06-13 13:30 3.76 743 3990 (1989) 86 (1977) 611 103 152 218 238 426 733 786 1120 2240
2020-06-13 12:30 3.76 743 3990 (1989) 86 (1977) 611 103 152 218 238 426 733 786 1120 2240
2020-06-13 11:30 3.77 749 3990 (1989) 86 (1977) 611 103 152 218 238 426 733 786 1120 2240
2020-06-13 10:30 3.77 749 3990 (1989) 86 (1977) 611 103 152 218 238 426 733 786 1120 2240
2020-06-13 09:30 3.77 749 3990 (1989) 86 (1977) 611 103 152 218 238 426 733 786 1120 2240
2020-06-13 08:30 3.77 749 3990 (1989) 86 (1977) 611 103 152 218 238 426 733 786 1120 2240
2020-06-13 07:30 3.77 749 3990 (1989) 86 (1977) 611 103 152 218 238 426 733 786 1120 2240
2020-06-13 06:30 3.78 754 3990 (1989) 86 (1977) 611 103 152 218 238 426 733 786 1120 2240
2020-06-13 05:30 3.78 754 3990 (1989) 86 (1977) 611 103 152 218 238 426 733 786 1120 2240
2020-06-13 04:30 3.78 754 3990 (1989) 86 (1977) 611 103 152 218 238 426 733 786 1120 2240
2020-06-13 03:30 3.79 759 3990 (1989) 86 (1977) 611 103 152 218 238 426 733 786 1120 2240
2020-06-13 02:30 3.79 759 3990 (1989) 86 (1977) 611 103 152 218 238 426 733 786 1120 2240
2020-06-13 01:30 3.79 759 3990 (1989) 86 (1977) 611 103 152 218 238 426 733 786 1120 2240
2020-06-13 00:30 3.80 764 3990 (1989) 86 (1977) 611 103 152 218 238 426 733 786 1120 2240
2020-06-12 23:30 3.80 764 3440 (1995) 71 (1964) 629 98 151 227 246 402 768 913 1230 2300
2020-06-12 22:30 3.80 764 3440 (1995) 71 (1964) 629 98 151 227 246 402 768 913 1230 2300
2020-06-12 21:30 3.81 770 3440 (1995) 71 (1964) 629 98 151 227 246 402 768 913 1230 2300
2020-06-12 20:30 3.82 775 3440 (1995) 71 (1964) 629 98 151 227 246 402 768 913 1230 2300
2020-06-12 19:30 3.82 775 3440 (1995) 71 (1964) 629 98 151 227 246 402 768 913 1230 2300
2020-06-12 18:30 3.83 780 3440 (1995) 71 (1964) 629 98 151 227 246 402 768 913 1230 2300
2020-06-12 17:30 3.84 786 3440 (1995) 71 (1964) 629 98 151 227 246 402 768 913 1230 2300
2020-06-12 16:30 3.83 780 3440 (1995) 71 (1964) 629 98 151 227 246 402 768 913 1230 2300
2020-06-12 15:30 3.84 786 3440 (1995) 71 (1964) 629 98 151 227 246 402 768 913 1230 2300
2020-06-12 14:30 3.84 786 3440 (1995) 71 (1964) 629 98 151 227 246 402 768 913 1230 2300
2020-06-12 13:30 3.84 786 3440 (1995) 71 (1964) 629 98 151 227 246 402 768 913 1230 2300
2020-06-12 12:30 3.84 786 3440 (1995) 71 (1964) 629 98 151 227 246 402 768 913 1230 2300
2020-06-12 11:30 3.84 786 3440 (1995) 71 (1964) 629 98 151 227 246 402 768 913 1230 2300
2020-06-12 10:30 3.85 791 3440 (1995) 71 (1964) 629 98 151 227 246 402 768 913 1230 2300
2020-06-12 09:30 3.86 797 3440 (1995) 71 (1964) 629 98 151 227 246 402 768 913 1230 2300
2020-06-12 08:30 3.85 791 3440 (1995) 71 (1964) 629 98 151 227 246 402 768 913 1230 2300
2020-06-12 07:30 3.85 791 3440 (1995) 71 (1964) 629 98 151 227 246 402 768 913 1230 2300
2020-06-12 06:30 3.85 791 3440 (1995) 71 (1964) 629 98 151 227 246 402 768 913 1230 2300
2020-06-12 05:30 3.85 791 3440 (1995) 71 (1964) 629 98 151 227 246 402 768 913 1230 2300
2020-06-12 04:30 3.85 791 3440 (1995) 71 (1964) 629 98 151 227 246 402 768 913 1230 2300
2020-06-12 03:30 3.86 797 3440 (1995) 71 (1964) 629 98 151 227 246 402 768 913 1230 2300
2020-06-12 02:30 3.86 797 3440 (1995) 71 (1964) 629 98 151 227 246 402 768 913 1230 2300
2020-06-12 01:30 3.86 797 3440 (1995) 71 (1964) 629 98 151 227 246 402 768 913 1230 2300
2020-06-12 00:30 3.87 802 3440 (1995) 71 (1964) 629 98 151 227 246 402 768 913 1230 2300
2020-06-11 23:30 3.87 802 10500 (1995) 61 (1964) 760 100 152 222 252 373 683 934 1400 2990
2020-06-11 22:30 3.88 807 10500 (1995) 61 (1964) 760 100 152 222 252 373 683 934 1400 2990
2020-06-11 21:30 3.88 807 10500 (1995) 61 (1964) 760 100 152 222 252 373 683 934 1400 2990
2020-06-11 20:30 3.89 813 10500 (1995) 61 (1964) 760 100 152 222 252 373 683 934 1400 2990
2020-06-11 19:30 3.90 818 10500 (1995) 61 (1964) 760 100 152 222 252 373 683 934 1400 2990
2020-06-11 18:30 3.90 818 10500 (1995) 61 (1964) 760 100 152 222 252 373 683 934 1400 2990
2020-06-11 17:30 3.90 818 10500 (1995) 61 (1964) 760 100 152 222 252 373 683 934 1400 2990
2020-06-11 16:30 3.90 818 10500 (1995) 61 (1964) 760 100 152 222 252 373 683 934 1400 2990
2020-06-11 15:30 3.91 824 10500 (1995) 61 (1964) 760 100 152 222 252 373 683 934 1400 2990
2020-06-11 14:30 3.91 824 10500 (1995) 61 (1964) 760 100 152 222 252 373 683 934 1400 2990
2020-06-11 13:30 3.92 830 10500 (1995) 61 (1964) 760 100 152 222 252 373 683 934 1400 2990
2020-06-11 12:30 3.91 824 10500 (1995) 61 (1964) 760 100 152 222 252 373 683 934 1400 2990
2020-06-11 11:30 3.91 824 10500 (1995) 61 (1964) 760 100 152 222 252 373 683 934 1400 2990
2020-06-11 10:30 3.92 830 10500 (1995) 61 (1964) 760 100 152 222 252 373 683 934 1400 2990
2020-06-11 09:30 3.92 830 10500 (1995) 61 (1964) 760 100 152 222 252 373 683 934 1400 2990
2020-06-11 08:30 3.92 830 10500 (1995) 61 (1964) 760 100 152 222 252 373 683 934 1400 2990
2020-06-11 07:30 3.93 835 10500 (1995) 61 (1964) 760 100 152 222 252 373 683 934 1400 2990
2020-06-11 06:30 3.93 835 10500 (1995) 61 (1964) 760 100 152 222 252 373 683 934 1400 2990
2020-06-11 05:30 3.93 835 10500 (1995) 61 (1964) 760 100 152 222 252 373 683 934 1400 2990
2020-06-11 04:30 3.94 841 10500 (1995) 61 (1964) 760 100 152 222 252 373 683 934 1400 2990
2020-06-11 03:30 3.94 841 10500 (1995) 61 (1964) 760 100 152 222 252 373 683 934 1400 2990
2020-06-11 02:30 3.95 846 10500 (1995) 61 (1964) 760 100 152 222 252 373 683 934 1400 2990
2020-06-11 01:30 3.95 846 10500 (1995) 61 (1964) 760 100 152 222 252 373 683 934 1400 2990
2020-06-11 00:30 3.96 852 10500 (1995) 61 (1964) 760 100 152 222 252 373 683 934 1400 2990
2020-06-10 23:30 3.96 852 8030 (1974) 65 (1964) 775 93 136 234 252 379 654 737 1570 3810
2020-06-10 22:30 3.96 852 8030 (1974) 65 (1964) 775 93 136 234 252 379 654 737 1570 3810
2020-06-10 21:30 3.97 858 8030 (1974) 65 (1964) 775 93 136 234 252 379 654 737 1570 3810
2020-06-10 20:30 3.97 858 8030 (1974) 65 (1964) 775 93 136 234 252 379 654 737 1570 3810
2020-06-10 19:30 3.98 863 8030 (1974) 65 (1964) 775 93 136 234 252 379 654 737 1570 3810
2020-06-10 18:30 3.99 869 8030 (1974) 65 (1964) 775 93 136 234 252 379 654 737 1570 3810
2020-06-10 17:30 3.99 869 8030 (1974) 65 (1964) 775 93 136 234 252 379 654 737 1570 3810
2020-06-10 16:30 4.00 875 8030 (1974) 65 (1964) 775 93 136 234 252 379 654 737 1570 3810
2020-06-10 15:30 4.01 880 8030 (1974) 65 (1964) 775 93 136 234 252 379 654 737 1570 3810
2020-06-10 14:30 4.01 880 8030 (1974) 65 (1964) 775 93 136 234 252 379 654 737 1570 3810
2020-06-10 13:30 4.02 886 8030 (1974) 65 (1964) 775 93 136 234 252 379 654 737 1570 3810
2020-06-10 12:30 4.02 886 8030 (1974) 65 (1964) 775 93 136 234 252 379 654 737 1570 3810
2020-06-10 11:30 4.02 886 8030 (1974) 65 (1964) 775 93 136 234 252 379 654 737 1570 3810
2020-06-10 10:30 4.03 892 8030 (1974) 65 (1964) 775 93 136 234 252 379 654 737 1570 3810
2020-06-10 09:30 4.03 892 8030 (1974) 65 (1964) 775 93 136 234 252 379 654 737 1570 3810
2020-06-10 08:30 4.03 892 8030 (1974) 65 (1964) 775 93 136 234 252 379 654 737 1570 3810
2020-06-10 07:30 4.04 898 8030 (1974) 65 (1964) 775 93 136 234 252 379 654 737 1570 3810
2020-06-10 06:30 4.05 903 8030 (1974) 65 (1964) 775 93 136 234 252 379 654 737 1570 3810
2020-06-10 05:30 4.05 903 8030 (1974) 65 (1964) 775 93 136 234 252 379 654 737 1570 3810
2020-06-10 04:30 4.05 903 8030 (1974) 65 (1964) 775 93 136 234 252 379 654 737 1570 3810
2020-06-10 03:30 4.06 909 8030 (1974) 65 (1964) 775 93 136 234 252 379 654 737 1570 3810
2020-06-10 02:30 4.06 909 8030 (1974) 65 (1964) 775 93 136 234 252 379 654 737 1570 3810
2020-06-10 01:30 4.06 909 8030 (1974) 65 (1964) 775 93 136 234 252 379 654 737 1570 3810
2020-06-10 00:30 4.07 915 8030 (1974) 65 (1964) 775 93 136 234 252 379 654 737 1570 3810
2020-06-09 23:30 4.08 921 24700 (1974) 83 (1964) 953 98 137 226 252 419 703 807 1500 2400
2020-06-09 22:30 4.09 927 24700 (1974) 83 (1964) 953 98 137 226 252 419 703 807 1500 2400
2020-06-09 21:30 4.09 927 24700 (1974) 83 (1964) 953 98 137 226 252 419 703 807 1500 2400
2020-06-09 05:00 4.13 951 24700 (1974) 83 (1964) 953 98 137 226 252 419 703 807 1500 2400
2020-06-09 04:30 4.13 951 24700 (1974) 83 (1964) 953 98 137 226 252 419 703 807 1500 2400
2020-06-09 03:30 4.13 951 24700 (1974) 83 (1964) 953 98 137 226 252 419 703 807 1500 2400
2020-06-09 02:30 4.12 945 24700 (1974) 83 (1964) 953 98 137 226 252 419 703 807 1500 2400
2020-06-09 01:30 4.12 945 24700 (1974) 83 (1964) 953 98 137 226 252 419 703 807 1500 2400
2020-06-09 00:30 4.12 945 24700 (1974) 83 (1964) 953 98 137 226 252 419 703 807 1500 2400
2020-06-08 23:30 4.12 945 18200 (1974) 91 (1977) 891 108 140 238 259 443 686 784 1570 2290
2020-06-08 22:30 4.12 945 18200 (1974) 91 (1977) 891 108 140 238 259 443 686 784 1570 2290
2020-06-08 21:30 4.13 951 18200 (1974) 91 (1977) 891 108 140 238 259 443 686 784 1570 2290
2020-06-08 20:30 4.14 957 18200 (1974) 91 (1977) 891 108 140 238 259 443 686 784 1570 2290
2020-06-08 19:30 4.14 957 18200 (1974) 91 (1977) 891 108 140 238 259 443 686 784 1570 2290
2020-06-08 18:30 4.15 963 18200 (1974) 91 (1977) 891 108 140 238 259 443 686 784 1570 2290
2020-06-08 17:30 4.15 963 18200 (1974) 91 (1977) 891 108 140 238 259 443 686 784 1570 2290
2020-06-08 16:30 4.16 969 18200 (1974) 91 (1977) 891 108 140 238 259 443 686 784 1570 2290
2020-06-08 15:30 4.16 969 18200 (1974) 91 (1977) 891 108 140 238 259 443 686 784 1570 2290
2020-06-08 14:30 4.17 975 18200 (1974) 91 (1977) 891 108 140 238 259 443 686 784 1570 2290
2020-06-08 13:30 4.17 909 18200 (1974) 91 (1977) 891 108 140 238 259 443 686 784 1570 2290
2020-06-08 12:30 4.13 886 18200 (1974) 91 (1977) 891 108 140 238 259 443 686 784 1570 2290
2020-06-08 11:30 4.14 892 18200 (1974) 91 (1977) 891 108 140 238 259 443 686 784 1570 2290
2020-06-08 10:30 4.14 892 18200 (1974) 91 (1977) 891 108 140 238 259 443 686 784 1570 2290
2020-06-08 09:30 4.14 892 18200 (1974) 91 (1977) 891 108 140 238 259 443 686 784 1570 2290
2020-06-08 08:30 4.15 898 18200 (1974) 91 (1977) 891 108 140 238 259 443 686 784 1570 2290
2020-06-08 07:30 4.15 898 18200 (1974) 91 (1977) 891 108 140 238 259 443 686 784 1570 2290
2020-06-08 06:30 4.16 903 18200 (1974) 91 (1977) 891 108 140 238 259 443 686 784 1570 2290
2020-06-08 05:30 4.16 903 18200 (1974) 91 (1977) 891 108 140 238 259 443 686 784 1570 2290
2020-06-08 04:30 4.16 903 18200 (1974) 91 (1977) 891 108 140 238 259 443 686 784 1570 2290
2020-06-08 03:30 4.17 909 18200 (1974) 91 (1977) 891 108 140 238 259 443 686 784 1570 2290
2020-06-08 02:30 4.17 909 18200 (1974) 91 (1977) 891 108 140 238 259 443 686 784 1570 2290
2020-06-08 01:30 4.18 915 18200 (1974) 91 (1977) 891 108 140 238 259 443 686 784 1570 2290
2020-06-08 00:30 4.19 921 18200 (1974) 91 (1977) 891 108 140 238 259 443 686 784 1570 2290
2020-06-07 23:30 4.19 921 15000 (1974) 94 (1977) 1100 106 145 261 271 432 803 922 1640 6780
2020-06-07 22:30 4.21 933 15000 (1974) 94 (1977) 1100 106 145 261 271 432 803 922 1640 6780
2020-06-07 21:30 4.21 933 15000 (1974) 94 (1977) 1100 106 145 261 271 432 803 922 1640 6780
2020-06-07 20:30 4.23 945 15000 (1974) 94 (1977) 1100 106 145 261 271 432 803 922 1640 6780
2020-06-07 19:30 4.24 951 15000 (1974) 94 (1977) 1100 106 145 261 271 432 803 922 1640 6780
2020-06-07 18:30 4.25 957 15000 (1974) 94 (1977) 1100 106 145 261 271 432 803 922 1640 6780
2020-06-07 17:30 4.26 963 15000 (1974) 94 (1977) 1100 106 145 261 271 432 803 922 1640 6780
2020-06-07 16:30 4.26 963 15000 (1974) 94 (1977) 1100 106 145 261 271 432 803 922 1640 6780
2020-06-07 15:30 4.28 975 15000 (1974) 94 (1977) 1100 106 145 261 271 432 803 922 1640 6780
2020-06-07 14:30 4.29 981 15000 (1974) 94 (1977) 1100 106 145 261 271 432 803 922 1640 6780
2020-06-07 13:30 4.29 981 15000 (1974) 94 (1977) 1100 106 145 261 271 432 803 922 1640 6780
2020-06-07 12:30 4.30 987 15000 (1974) 94 (1977) 1100 106 145 261 271 432 803 922 1640 6780
2020-06-07 11:30 4.31 993 15000 (1974) 94 (1977) 1100 106 145 261 271 432 803 922 1640 6780
2020-06-07 10:30 4.32 999 15000 (1974) 94 (1977) 1100 106 145 261 271 432 803 922 1640 6780
2020-06-07 09:30 4.33 1010 15000 (1974) 94 (1977) 1100 106 145 261 271 432 803 922 1640 6780
2020-06-07 08:30 4.34 1010 15000 (1974) 94 (1977) 1100 106 145 261 271 432 803 922 1640 6780
2020-06-07 07:30 4.34 1010 15000 (1974) 94 (1977) 1100 106 145 261 271 432 803 922 1640 6780
2020-06-07 06:30 4.35 1020 15000 (1974) 94 (1977) 1100 106 145 261 271 432 803 922 1640 6780
2020-06-07 05:30 4.36 1020 15000 (1974) 94 (1977) 1100 106 145 261 271 432 803 922 1640 6780
2020-06-07 04:30 4.36 1020 15000 (1974) 94 (1977) 1100 106 145 261 271 432 803 922 1640 6780
2020-06-07 03:30 4.38 1040 15000 (1974) 94 (1977) 1100 106 145 261 271 432 803 922 1640 6780
2020-06-07 02:30 4.39 1040 15000 (1974) 94 (1977) 1100 106 145 261 271 432 803 922 1640 6780
2020-06-07 01:30 4.39 1040 15000 (1974) 94 (1977) 1100 106 145 261 271 432 803 922 1640 6780
2020-06-07 00:30 4.41 1060 15000 (1974) 94 (1977) 1100 106 145 261 271 432 803 922 1640 6780
2020-06-06 23:30 4.42 1060 4690 (1985) 98 (1977) 748 110 152 272 284 420 796 935 1990 2790
2020-06-06 22:30 4.43 1070 4690 (1985) 98 (1977) 748 110 152 272 284 420 796 935 1990 2790
2020-06-06 21:30 4.45 1080 4690 (1985) 98 (1977) 748 110 152 272 284 420 796 935 1990 2790
2020-06-06 20:30 4.46 1090 4690 (1985) 98 (1977) 748 110 152 272 284 420 796 935 1990 2790
2020-06-06 19:30 4.48 1100 4690 (1985) 98 (1977) 748 110 152 272 284 420 796 935 1990 2790
2020-06-06 18:30 4.49 1110 4690 (1985) 98 (1977) 748 110 152 272 284 420 796 935 1990 2790
2020-06-06 17:00 4.53 1130 4690 (1985) 98 (1977) 748 110 152 272 284 420 796 935 1990 2790
2020-06-06 16:30 4.54 1140 4690 (1985) 98 (1977) 748 110 152 272 284 420 796 935 1990 2790
2020-06-06 15:30 4.56 1150 4690 (1985) 98 (1977) 748 110 152 272 284 420 796 935 1990 2790
2020-06-06 14:30 4.57 1160 4690 (1985) 98 (1977) 748 110 152 272 284 420 796 935 1990 2790
2020-06-06 13:30 4.58 1170 4690 (1985) 98 (1977) 748 110 152 272 284 420 796 935 1990 2790
2020-06-06 12:30 4.61 1190 4690 (1985) 98 (1977) 748 110 152 272 284 420 796 935 1990 2790
2020-06-06 11:30 4.62 1190 4690 (1985) 98 (1977) 748 110 152 272 284 420 796 935 1990 2790
2020-06-06 10:30 4.64 1210 4690 (1985) 98 (1977) 748 110 152 272 284 420 796 935 1990 2790
2020-06-06 09:30 4.65 1210 4690 (1985) 98 (1977) 748 110 152 272 284 420 796 935 1990 2790
2020-06-06 08:30 4.66 1220 4690 (1985) 98 (1977) 748 110 152 272 284 420 796 935 1990 2790
2020-06-06 07:30 4.69 1240 4690 (1985) 98 (1977) 748 110 152 272 284 420 796 935 1990 2790
2020-06-06 06:30 4.70 1250 4690 (1985) 98 (1977) 748 110 152 272 284 420 796 935 1990 2790
2020-06-06 05:30 4.72 1260 4690 (1985) 98 (1977) 748 110 152 272 284 420 796 935 1990 2790
2020-06-06 04:30 4.74 1280 4690 (1985) 98 (1977) 748 110 152 272 284 420 796 935 1990 2790
2020-06-06 03:30 4.77 1300 4690 (1985) 98 (1977) 748 110 152 272 284 420 796 935 1990 2790
2020-06-06 02:30 4.79 1310 4690 (1985) 98 (1977) 748 110 152 272 284 420 796 935 1990 2790
2020-06-06 01:30 4.82 1330 4690 (1985) 98 (1977) 748 110 152 272 284 420 796 935 1990 2790
2020-06-06 00:30 4.85 1360 4690 (1985) 98 (1977) 748 110 152 272 284 420 796 935 1990 2790
2020-06-05 23:30 4.88 1380 4740 (1985) 102 (1964) 750 120 161 266 296 437 791 801 1700 3260
2020-06-05 22:30 4.90 1390 4740 (1985) 102 (1964) 750 120 161 266 296 437 791 801 1700 3260
2020-06-05 21:30 4.94 1420 4740 (1985) 102 (1964) 750 120 161 266 296 437 791 801 1700 3260
2020-06-05 20:30 4.97 1440 4740 (1985) 102 (1964) 750 120 161 266 296 437 791 801 1700 3260
2020-06-05 19:30 5.01 1480 4740 (1985) 102 (1964) 750 120 161 266 296 437 791 801 1700 3260
2020-06-05 18:30 5.05 1510 4740 (1985) 102 (1964) 750 120 161 266 296 437 791 801 1700 3260
2020-06-05 17:30 5.08 1530 4740 (1985) 102 (1964) 750 120 161 266 296 437 791 801 1700 3260
2020-06-05 16:30 5.13 1570 4740 (1985) 102 (1964) 750 120 161 266 296 437 791 801 1700 3260
2020-06-05 15:30 5.19 1610 4740 (1985) 102 (1964) 750 120 161 266 296 437 791 801 1700 3260
2020-06-05 14:30 5.24 1650 4740 (1985) 102 (1964) 750 120 161 266 296 437 791 801 1700 3260
2020-06-05 13:30 5.31 1710 4740 (1985) 102 (1964) 750 120 161 266 296 437 791 801 1700 3260
2020-06-05 12:30 5.36 1750 4740 (1985) 102 (1964) 750 120 161 266 296 437 791 801 1700 3260
2020-06-05 11:30 5.45 1820 4740 (1985) 102 (1964) 750 120 161 266 296 437 791 801 1700 3260
2020-06-05 10:30 5.52 1880 4740 (1985) 102 (1964) 750 120 161 266 296 437 791 801 1700 3260
2020-06-05 09:30 5.61 1960 4740 (1985) 102 (1964) 750 120 161 266 296 437 791 801 1700 3260
2020-06-05 08:30 5.73 2070 4740 (1985) 102 (1964) 750 120 161 266 296 437 791 801 1700 3260
2020-06-05 07:30 5.85 2180 4740 (1985) 102 (1964) 750 120 161 266 296 437 791 801 1700 3260
2020-06-05 06:30 5.99 2310 4740 (1985) 102 (1964) 750 120 161 266 296 437 791 801 1700 3260
2020-06-05 05:30 6.16 2470 4740 (1985) 102 (1964) 750 120 161 266 296 437 791 801 1700 3260
2020-06-05 04:30 6.30 2600 4740 (1985) 102 (1964) 750 120 161 266 296 437 791 801 1700 3260
2020-06-05 03:30 6.50 2790 4740 (1985) 102 (1964) 750 120 161 266 296 437 791 801 1700 3260
2020-06-05 02:30 6.71 2990 4740 (1985) 102 (1964) 750 120 161 266 296 437 791 801 1700 3260
2020-06-05 01:30 6.92 3190 4740 (1985) 102 (1964) 750 120 161 266 296 437 791 801 1700 3260
2020-06-05 00:30 7.14 3410 4740 (1985) 102 (1964) 750 120 161 266 296 437 791 801 1700 3260
2020-06-04 23:30 7.20 3470 6920 (1973) 103 (1977) 736 129 168 296 322 490 796 885 1170 2820
2020-06-04 22:30 7.13 3400 6920 (1973) 103 (1977) 736 129 168 296 322 490 796 885 1170 2820
2020-06-04 21:30 6.76 3040 6920 (1973) 103 (1977) 736 129 168 296 322 490 796 885 1170 2820
2020-06-04 20:30 6.25 2550 6920 (1973) 103 (1977) 736 129 168 296 322 490 796 885 1170 2820
2020-06-04 19:30 5.41 1790 6920 (1973) 103 (1977) 736 129 168 296 322 490 796 885 1170 2820
2020-06-04 18:30 4.79 1310 6920 (1973) 103 (1977) 736 129 168 296 322 490 796 885 1170 2820
2020-06-04 17:30 4.60 1180 6920 (1973) 103 (1977) 736 129 168 296 322 490 796 885 1170 2820
2020-06-04 16:30 4.54 1140 6920 (1973) 103 (1977) 736 129 168 296 322 490 796 885 1170 2820
2020-06-04 15:30 4.50 1110 6920 (1973) 103 (1977) 736 129 168 296 322 490 796 885 1170 2820
2020-06-04 14:30 4.47 1090 6920 (1973) 103 (1977) 736 129 168 296 322 490 796 885 1170 2820
2020-06-04 13:30 4.46 1090 6920 (1973) 103 (1977) 736 129 168 296 322 490 796 885 1170 2820
2020-06-04 12:30 4.44 1070 6920 (1973) 103 (1977) 736 129 168 296 322 490 796 885 1170 2820
2020-06-04 11:30 4.42 1060 6920 (1973) 103 (1977) 736 129 168 296 322 490 796 885 1170 2820
2020-06-04 10:30 4.40 1050 6920 (1973) 103 (1977) 736 129 168 296 322 490 796 885 1170 2820
2020-06-04 09:30 4.40 1050 6920 (1973) 103 (1977) 736 129 168 296 322 490 796 885 1170 2820
2020-06-04 08:30 4.36 1020 6920 (1973) 103 (1977) 736 129 168 296 322 490 796 885 1170 2820
2020-06-04 07:30 4.31 993 6920 (1973) 103 (1977) 736 129 168 296 322 490 796 885 1170 2820
2020-06-04 06:30 4.31 993 6920 (1973) 103 (1977) 736 129 168 296 322 490 796 885 1170 2820
2020-06-04 05:30 4.32 999 6920 (1973) 103 (1977) 736 129 168 296 322 490 796 885 1170 2820
2020-06-04 04:30 4.32 999 6920 (1973) 103 (1977) 736 129 168 296 322 490 796 885 1170 2820
2020-06-04 03:30 4.33 1010 6920 (1973) 103 (1977) 736 129 168 296 322 490 796 885 1170 2820
2020-06-04 02:30 4.33 1010 6920 (1973) 103 (1977) 736 129 168 296 322 490 796 885 1170 2820
2020-06-04 01:30 4.34 1010 6920 (1973) 103 (1977) 736 129 168 296 322 490 796 885 1170 2820
2020-06-04 00:30 4.34 1010 6920 (1973) 103 (1977) 736 129 168 296 322 490 796 885 1170 2820
2020-06-03 23:30 4.35 1020 8400 (1973) 101 (1964) 778 135 176 311 325 490 869 934 1220 1690
2020-06-03 22:30 4.35 1020 8400 (1973) 101 (1964) 778 135 176 311 325 490 869 934 1220 1690
2020-06-03 21:30 4.35 1020 8400 (1973) 101 (1964) 778 135 176 311 325 490 869 934 1220 1690
2020-06-03 20:30 4.36 1020 8400 (1973) 101 (1964) 778 135 176 311 325 490 869 934 1220 1690
2020-06-03 19:30 4.38 1040 8400 (1973) 101 (1964) 778 135 176 311 325 490 869 934 1220 1690
2020-06-03 18:30 4.39 1040 8400 (1973) 101 (1964) 778 135 176 311 325 490 869 934 1220 1690
2020-06-03 17:30 4.39 1040 8400 (1973) 101 (1964) 778 135 176 311 325 490 869 934 1220 1690
2020-06-03 16:30 4.40 1050 8400 (1973) 101 (1964) 778 135 176 311 325 490 869 934 1220 1690
2020-06-03 15:30 4.41 1060 8400 (1973) 101 (1964) 778 135 176 311 325 490 869 934 1220 1690
2020-06-03 14:30 4.42 1060 8400 (1973) 101 (1964) 778 135 176 311 325 490 869 934 1220 1690
2020-06-03 13:30 4.42 1060 8400 (1973) 101 (1964) 778 135 176 311 325 490 869 934 1220 1690
2020-06-03 12:30 4.43 1070 8400 (1973) 101 (1964) 778 135 176 311 325 490 869 934 1220 1690
2020-06-03 11:30 4.44 1070 8400 (1973) 101 (1964) 778 135 176 311 325 490 869 934 1220 1690
2020-06-03 10:30 4.44 1070 8400 (1973) 101 (1964) 778 135 176 311 325 490 869 934 1220 1690
2020-06-03 09:30 4.44 1070 8400 (1973) 101 (1964) 778 135 176 311 325 490 869 934 1220 1690
2020-06-03 08:30 4.44 1070 8400 (1973) 101 (1964) 778 135 176 311 325 490 869 934 1220 1690
2020-06-03 07:30 4.44 1070 8400 (1973) 101 (1964) 778 135 176 311 325 490 869 934 1220 1690
2020-06-03 06:30 4.45 1080 8400 (1973) 101 (1964) 778 135 176 311 325 490 869 934 1220 1690
2020-06-03 05:30 4.45 1080 8400 (1973) 101 (1964) 778 135 176 311 325 490 869 934 1220 1690
2020-06-03 04:30 4.46 1090 8400 (1973) 101 (1964) 778 135 176 311 325 490 869 934 1220 1690
2020-06-03 03:30 4.47 1090 8400 (1973) 101 (1964) 778 135 176 311 325 490 869 934 1220 1690
2020-06-03 02:30 4.48 1100 8400 (1973) 101 (1964) 778 135 176 311 325 490 869 934 1220 1690
2020-06-03 01:30 4.49 1110 8400 (1973) 101 (1964) 778 135 176 311 325 490 869 934 1220 1690
2020-06-03 00:30 4.49 1110 8400 (1973) 101 (1964) 778 135 176 311 325 490 869 934 1220 1690
2020-06-02 23:30 4.50 1110 8110 (1957) 107 (1977) 748 142 194 285 305 442 853 1070 1410 1680
2020-06-02 22:30 4.50 1110 8110 (1957) 107 (1977) 748 142 194 285 305 442 853 1070 1410 1680
2020-06-02 21:30 4.50 1110 8110 (1957) 107 (1977) 748 142 194 285 305 442 853 1070 1410 1680
2020-06-02 20:30 4.51 1120 8110 (1957) 107 (1977) 748 142 194 285 305 442 853 1070 1410 1680
2020-06-02 19:30 4.52 1130 8110 (1957) 107 (1977) 748 142 194 285 305 442 853 1070 1410 1680
2020-06-02 18:30 4.54 1140 8110 (1957) 107 (1977) 748 142 194 285 305 442 853 1070 1410 1680
2020-06-02 17:30 4.54 1140 8110 (1957) 107 (1977) 748 142 194 285 305 442 853 1070 1410 1680
2020-06-02 16:30 4.55 1150 8110 (1957) 107 (1977) 748 142 194 285 305 442 853 1070 1410 1680
2020-06-02 15:30 4.56 1150 8110 (1957) 107 (1977) 748 142 194 285 305 442 853 1070 1410 1680
2020-06-02 14:30 4.57 1160 8110 (1957) 107 (1977) 748 142 194 285 305 442 853 1070 1410 1680
2020-06-02 13:30 4.58 1170 8110 (1957) 107 (1977) 748 142 194 285 305 442 853 1070 1410 1680
2020-06-02 12:30 4.58 1170 8110 (1957) 107 (1977) 748 142 194 285 305 442 853 1070 1410 1680
2020-06-02 11:30 4.59 1170 8110 (1957) 107 (1977) 748 142 194 285 305 442 853 1070 1410 1680
2020-06-02 10:30 4.60 1180 8110 (1957) 107 (1977) 748 142 194 285 305 442 853 1070 1410 1680
2020-06-02 09:30 4.61 1190 8110 (1957) 107 (1977) 748 142 194 285 305 442 853 1070 1410 1680
2020-06-02 08:30 4.61 1190 8110 (1957) 107 (1977) 748 142 194 285 305 442 853 1070 1410 1680
2020-06-02 07:30 4.62 1190 8110 (1957) 107 (1977) 748 142 194 285 305 442 853 1070 1410 1680
2020-06-02 06:30 4.62 1190 8110 (1957) 107 (1977) 748 142 194 285 305 442 853 1070 1410 1680
2020-06-02 05:30 4.63 1200 8110 (1957) 107 (1977) 748 142 194 285 305 442 853 1070 1410 1680
2020-06-02 04:30 4.63 1200 8110 (1957) 107 (1977) 748 142 194 285 305 442 853 1070 1410 1680
2020-06-02 03:30 4.64 1210 8110 (1957) 107 (1977) 748 142 194 285 305 442 853 1070 1410 1680
2020-06-02 02:30 4.64 1210 8110 (1957) 107 (1977) 748 142 194 285 305 442 853 1070 1410 1680
2020-06-02 01:30 4.65 1210 8110 (1957) 107 (1977) 748 142 194 285 305 442 853 1070 1410 1680
2020-06-02 00:30 4.66 1220 8110 (1957) 107 (1977) 748 142 194 285 305 442 853 1070 1410 1680
2020-06-01 23:30 4.67 1230 2940 (1957) 110 (1977) 688 152 206 242 293 476 837 993 1580 2140
2020-06-01 22:30 4.67 1230 2940 (1957) 110 (1977) 688 152 206 242 293 476 837 993 1580 2140
2020-06-01 21:30 4.68 1230 2940 (1957) 110 (1977) 688 152 206 242 293 476 837 993 1580 2140
2020-06-01 20:30 4.69 1240 2940 (1957) 110 (1977) 688 152 206 242 293 476 837 993 1580 2140
2020-06-01 19:30 4.71 1260 2940 (1957) 110 (1977) 688 152 206 242 293 476 837 993 1580 2140
2020-06-01 18:30 4.72 1260 2940 (1957) 110 (1977) 688 152 206 242 293 476 837 993 1580 2140
2020-06-01 17:30 4.73 1270 2940 (1957) 110 (1977) 688 152 206 242 293 476 837 993 1580 2140
2020-06-01 16:30 4.75 1280 2940 (1957) 110 (1977) 688 152 206 242 293 476 837 993 1580 2140
2020-06-01 15:30 4.76 1290 2940 (1957) 110 (1977) 688 152 206 242 293 476 837 993 1580 2140
2020-06-01 14:30 4.78 1310 2940 (1957) 110 (1977) 688 152 206 242 293 476 837 993 1580 2140
2020-06-01 13:30 4.79 1310 2940 (1957) 110 (1977) 688 152 206 242 293 476 837 993 1580 2140
2020-06-01 12:30 4.81 1330 2940 (1957) 110 (1977) 688 152 206 242 293 476 837 993 1580 2140
2020-06-01 11:30 4.82 1330 2940 (1957) 110 (1977) 688 152 206 242 293 476 837 993 1580 2140
2020-06-01 10:30 4.83 1340 2940 (1957) 110 (1977) 688 152 206 242 293 476 837 993 1580 2140
2020-06-01 09:30 4.83 1340 2940 (1957) 110 (1977) 688 152 206 242 293 476 837 993 1580 2140
2020-06-01 08:30 4.83 1340 2940 (1957) 110 (1977) 688 152 206 242 293 476 837 993 1580 2140
2020-06-01 07:30 4.85 1360 2940 (1957) 110 (1977) 688 152 206 242 293 476 837 993 1580 2140
2020-06-01 06:30 4.86 1360 2940 (1957) 110 (1977) 688 152 206 242 293 476 837 993 1580 2140
2020-06-01 05:30 4.87 1370 2940 (1957) 110 (1977) 688 152 206 242 293 476 837 993 1580 2140
2020-06-01 04:30 4.88 1380 2940 (1957) 110 (1977) 688 152 206 242 293 476 837 993 1580 2140
2020-06-01 03:30 4.89 1380 2940 (1957) 110 (1977) 688 152 206 242 293 476 837 993 1580 2140
2020-06-01 02:30 4.90 1390 2940 (1957) 110 (1977) 688 152 206 242 293 476 837 993 1580 2140
2020-06-01 01:30 4.91 1400 2940 (1957) 110 (1977) 688 152 206 242 293 476 837 993 1580 2140
2020-06-01 00:30 4.92 1410 2940 (1957) 110 (1977) 688 152 206 242 293 476 837 993 1580 2140
2020-05-31 23:30 4.93 1410 3200 (1990) 114 (1977) 702 165 195 247 290 513 849 988 1630 2360
2020-05-31 22:30 4.94 1420 3200 (1990) 114 (1977) 702 165 195 247 290 513 849 988 1630 2360
2020-05-31 21:30 4.96 1440 3200 (1990) 114 (1977) 702 165 195 247 290 513 849 988 1630 2360
2020-05-31 20:30 4.98 1450 3200 (1990) 114 (1977) 702 165 195 247 290 513 849 988 1630 2360
2020-05-31 19:30 5.00 1470 3200 (1990) 114 (1977) 702 165 195 247 290 513 849 988 1630 2360
2020-05-31 18:30 5.02 1480 3200 (1990) 114 (1977) 702 165 195 247 290 513 849 988 1630 2360
2020-05-31 17:30 5.03 1490 3200 (1990) 114 (1977) 702 165 195 247 290 513 849 988 1630 2360
2020-05-31 16:30 5.05 1510 3200 (1990) 114 (1977) 702 165 195 247 290 513 849 988 1630 2360
2020-05-31 15:30 5.07 1520 3200 (1990) 114 (1977) 702 165 195 247 290 513 849 988 1630 2360
2020-05-31 14:30 5.09 1540 3200 (1990) 114 (1977) 702 165 195 247 290 513 849 988 1630 2360
2020-05-31 13:30 5.11 1550 3200 (1990) 114 (1977) 702 165 195 247 290 513 849 988 1630 2360
2020-05-31 12:30 5.13 1570 3200 (1990) 114 (1977) 702 165 195 247 290 513 849 988 1630 2360
2020-05-31 11:30 5.14 1570 3200 (1990) 114 (1977) 702 165 195 247 290 513 849 988 1630 2360
2020-05-31 10:30 5.16 1590 3200 (1990) 114 (1977) 702 165 195 247 290 513 849 988 1630 2360
2020-05-31 09:30 5.17 1600 3200 (1990) 114 (1977) 702 165 195 247 290 513 849 988 1630 2360
2020-05-31 08:30 5.19 1610 3200 (1990) 114 (1977) 702 165 195 247 290 513 849 988 1630 2360
2020-05-31 07:30 5.20 1620 3200 (1990) 114 (1977) 702 165 195 247 290 513 849 988 1630 2360
2020-05-31 06:30 5.22 1640 3200 (1990) 114 (1977) 702 165 195 247 290 513 849 988 1630 2360
2020-05-31 05:30 5.24 1650 3200 (1990) 114 (1977) 702 165 195 247 290 513 849 988 1630 2360
2020-05-31 04:30 5.26 1670 3200 (1990) 114 (1977) 702 165 195 247 290 513 849 988 1630 2360
2020-05-31 03:30 5.27 1680 3200 (1990) 114 (1977) 702 165 195 247 290 513 849 988 1630 2360
2020-05-31 02:30 5.29 1690 3200 (1990) 114 (1977) 702 165 195 247 290 513 849 988 1630 2360
2020-05-31 01:30 5.30 1700 3200 (1990) 114 (1977) 702 165 195 247 290 513 849 988 1630 2360
2020-05-31 00:30 5.32 1720 3200 (1990) 114 (1977) 702 165 195 247 290 513 849 988 1630 2360
2020-05-30 23:30 5.34 1730 5530 (2015) 89 (1974) 747 119 214 255 286 467 766 950 1340 2250
2020-05-30 22:30 5.36 1750 5530 (2015) 89 (1974) 747 119 214 255 286 467 766 950 1340 2250
2020-05-30 21:30 5.37 1760 5530 (2015) 89 (1974) 747 119 214 255 286 467 766 950 1340 2250
2020-05-30 20:30 5.40 1780 5530 (2015) 89 (1974) 747 119 214 255 286 467 766 950 1340 2250
2020-05-30 19:30 5.42 1800 5530 (2015) 89 (1974) 747 119 214 255 286 467 766 950 1340 2250
2020-05-30 18:30 5.45 1820 5530 (2015) 89 (1974) 747 119 214 255 286 467 766 950 1340 2250
2020-05-30 17:30 5.47 1840 5530 (2015) 89 (1974) 747 119 214 255 286 467 766 950 1340 2250
2020-05-30 16:30 5.49 1860 5530 (2015) 89 (1974) 747 119 214 255 286 467 766 950 1340 2250
2020-05-30 15:30 5.51 1880 5530 (2015) 89 (1974) 747 119 214 255 286 467 766 950 1340 2250
2020-05-30 14:30 5.54 1900 5530 (2015) 89 (1974) 747 119 214 255 286 467 766 950 1340 2250
2020-05-30 13:30 5.57 1930 5530 (2015) 89 (1974) 747 119 214 255 286 467 766 950 1340 2250
2020-05-30 12:30 5.59 1940 5530 (2015) 89 (1974) 747 119 214 255 286 467 766 950 1340 2250
2020-05-30 11:30 5.61 1960 5530 (2015) 89 (1974) 747 119 214 255 286 467 766 950 1340 2250
2020-05-30 10:30 5.64 1990 5530 (2015) 89 (1974) 747 119 214 255 286 467 766 950 1340 2250
2020-05-30 09:30 5.67 2010 5530 (2015) 89 (1974) 747 119 214 255 286 467 766 950 1340 2250
2020-05-30 08:30 5.69 2030 5530 (2015) 89 (1974) 747 119 214 255 286 467 766 950 1340 2250
2020-05-30 07:30 5.72 2060 5530 (2015) 89 (1974) 747 119 214 255 286 467 766 950 1340 2250
2020-05-30 06:30 5.74 2080 5530 (2015) 89 (1974) 747 119 214 255 286 467 766 950 1340 2250
2020-05-30 05:30 5.77 2100 5530 (2015) 89 (1974) 747 119 214 255 286 467 766 950 1340 2250
2020-05-30 04:30 5.80 2130 5530 (2015) 89 (1974) 747 119 214 255 286 467 766 950 1340 2250
2020-05-30 03:30 5.82 2150 5530 (2015) 89 (1974) 747 119 214 255 286 467 766 950 1340 2250
2020-05-30 02:30 5.85 2180 5530 (2015) 89 (1974) 747 119 214 255 286 467 766 950 1340 2250
2020-05-30 01:30 5.88 2200 5530 (2015) 89 (1974) 747 119 214 255 286 467 766 950 1340 2250
2020-05-30 00:30 5.92 2240 5530 (2015) 89 (1974) 747 119 214 255 286 467 766 950 1340 2250
2020-05-29 23:30 5.94 2260 2960 (2015) 46 (1974) 710 123 188 257 275 485 1020 1110 1600 2070
2020-05-29 22:30 5.98 2300 2960 (2015) 46 (1974) 710 123 188 257 275 485 1020 1110 1600 2070
2020-05-29 21:30 6.02 2340 2960 (2015) 46 (1974) 710 123 188 257 275 485 1020 1110 1600 2070
2020-05-29 20:30 6.06 2370 2960 (2015) 46 (1974) 710 123 188 257 275 485 1020 1110 1600 2070
2020-05-29 19:30 6.10 2410 2960 (2015) 46 (1974) 710 123 188 257 275 485 1020 1110 1600 2070
2020-05-29 18:30 6.15 2460 2960 (2015) 46 (1974) 710 123 188 257 275 485 1020 1110 1600 2070
2020-05-29 17:30 6.20 2510 2960 (2015) 46 (1974) 710 123 188 257 275 485 1020 1110 1600 2070
2020-05-29 16:30 6.25 2550 2960 (2015) 46 (1974) 710 123 188 257 275 485 1020 1110 1600 2070
2020-05-29 15:30 6.30 2600 2960 (2015) 46 (1974) 710 123 188 257 275 485 1020 1110 1600 2070
2020-05-29 14:30 6.34 2640 2960 (2015) 46 (1974) 710 123 188 257 275 485 1020 1110 1600 2070
2020-05-29 13:30 6.39 2690 2960 (2015) 46 (1974) 710 123 188 257 275 485 1020 1110 1600 2070
2020-05-29 12:30 6.43 2730 2960 (2015) 46 (1974) 710 123 188 257 275 485 1020 1110 1600 2070
2020-05-29 11:30 6.47 2760 2960 (2015) 46 (1974) 710 123 188 257 275 485 1020 1110 1600 2070
2020-05-29 10:30 6.51 2800 2960 (2015) 46 (1974) 710 123 188 257 275 485 1020 1110 1600 2070
2020-05-29 09:30 6.56 2850 2960 (2015) 46 (1974) 710 123 188 257 275 485 1020 1110 1600 2070
2020-05-29 08:30 6.58 2870 2960 (2015) 46 (1974) 710 123 188 257 275 485 1020 1110 1600 2070
2020-05-29 07:30 6.65 2940 2960 (2015) 46 (1974) 710 123 188 257 275 485 1020 1110 1600 2070
2020-05-29 06:30 6.69 2970 2960 (2015) 46 (1974) 710 123 188 257 275 485 1020 1110 1600 2070
2020-05-29 05:30 6.76 3040 2960 (2015) 46 (1974) 710 123 188 257 275 485 1020 1110 1600 2070
2020-05-29 04:30 6.81 3090 2960 (2015) 46 (1974) 710 123 188 257 275 485 1020 1110 1600 2070
2020-05-29 03:30 6.87 3150 2960 (2015) 46 (1974) 710 123 188 257 275 485 1020 1110 1600 2070
2020-05-29 02:30 6.93 3200 2960 (2015) 46 (1974) 710 123 188 257 275 485 1020 1110 1600 2070
2020-05-29 01:30 6.98 3250 2960 (2015) 46 (1974) 710 123 188 257 275 485 1020 1110 1600 2070
2020-05-29 00:30 7.12 3390 2960 (2015) 46 (1974) 710 123 188 257 275 485 1020 1110 1600 2070
2020-05-28 23:30 7.18 3450 3500 (2000) 108 (1964) 808 140 184 268 293 490 1080 1240 1940 2670
2020-05-28 22:30 7.22 3490 3500 (2000) 108 (1964) 808 140 184 268 293 490 1080 1240 1940 2670
2020-05-28 21:30 7.29 3560 3500 (2000) 108 (1964) 808 140 184 268 293 490 1080 1240 1940 2670
2020-05-28 20:30 7.35 3610 3500 (2000) 108 (1964) 808 140 184 268 293 490 1080 1240 1940 2670
2020-05-28 19:30 7.42 3680 3500 (2000) 108 (1964) 808 140 184 268 293 490 1080 1240 1940 2670
2020-05-28 18:30 7.49 3750 3500 (2000) 108 (1964) 808 140 184 268 293 490 1080 1240 1940 2670
2020-05-28 17:30 7.58 3840 3500 (2000) 108 (1964) 808 140 184 268 293 490 1080 1240 1940 2670
2020-05-28 16:30 7.65 3910 3500 (2000) 108 (1964) 808 140 184 268 293 490 1080 1240 1940 2670
2020-05-28 15:30 7.73 3990 3500 (2000) 108 (1964) 808 140 184 268 293 490 1080 1240 1940 2670
2020-05-28 14:30 7.82 4090 3500 (2000) 108 (1964) 808 140 184 268 293 490 1080 1240 1940 2670
2020-05-28 13:30 7.92 4190 3500 (2000) 108 (1964) 808 140 184 268 293 490 1080 1240 1940 2670
2020-05-28 12:30 8.03 4300 3500 (2000) 108 (1964) 808 140 184 268 293 490 1080 1240 1940 2670
2020-05-28 11:30 8.15 4430 3500 (2000) 108 (1964) 808 140 184 268 293 490 1080 1240 1940 2670
2020-05-28 10:30 8.30 4590 3500 (2000) 108 (1964) 808 140 184 268 293 490 1080 1240 1940 2670
2020-05-28 09:30 8.47 4780 3500 (2000) 108 (1964) 808 140 184 268 293 490 1080 1240 1940 2670
2020-05-28 08:30 8.69 5020 3500 (2000) 108 (1964) 808 140 184 268 293 490 1080 1240 1940 2670
2020-05-28 07:30 8.91 5270 3500 (2000) 108 (1964) 808 140 184 268 293 490 1080 1240 1940 2670
2020-05-28 06:30 9.17 5570 3500 (2000) 108 (1964) 808 140 184 268 293 490 1080 1240 1940 2670
2020-05-28 05:30 9.43 5880 3500 (2000) 108 (1964) 808 140 184 268 293 490 1080 1240 1940 2670
2020-05-28 04:30 9.61 6100 3500 (2000) 108 (1964) 808 140 184 268 293 490 1080 1240 1940 2670
2020-05-28 03:30 9.69 6200 3500 (2000) 108 (1964) 808 140 184 268 293 490 1080 1240 1940 2670
2020-05-28 02:30 9.65 6150 3500 (2000) 108 (1964) 808 140 184 268 293 490 1080 1240 1940 2670
2020-05-28 01:30 9.46 5920 3500 (2000) 108 (1964) 808 140 184 268 293 490 1080 1240 1940 2670
2020-05-28 00:30 9.18 5590 3500 (2000) 108 (1964) 808 140 184 268 293 490 1080 1240 1940 2670
2020-05-27 23:30 8.87 5230 5040 (1990) 116 (1977) 878 148 199 287 305 559 1060 1270 1960 3260
2020-05-27 22:30 8.59 4910 5040 (1990) 116 (1977) 878 148 199 287 305 559 1060 1270 1960 3260
2020-05-27 21:30 8.37 4670 5040 (1990) 116 (1977) 878 148 199 287 305 559 1060 1270 1960 3260
2020-05-27 20:30 8.20 4480 5040 (1990) 116 (1977) 878 148 199 287 305 559 1060 1270 1960 3260
2020-05-27 19:30 7.99 4260 5040 (1990) 116 (1977) 878 148 199 287 305 559 1060 1270 1960 3260
2020-05-27 18:30 7.68 3940 5040 (1990) 116 (1977) 878 148 199 287 305 559 1060 1270 1960 3260
2020-05-27 17:30 7.50 3760 5040 (1990) 116 (1977) 878 148 199 287 305 559 1060 1270 1960 3260
2020-05-27 16:30 7.48 3740 5040 (1990) 116 (1977) 878 148 199 287 305 559 1060 1270 1960 3260
2020-05-27 15:30 7.48 3740 5040 (1990) 116 (1977) 878 148 199 287 305 559 1060 1270 1960 3260
2020-05-27 14:30 7.46 3720 5040 (1990) 116 (1977) 878 148 199 287 305 559 1060 1270 1960 3260
2020-05-27 13:30 7.54 3800 5040 (1990) 116 (1977) 878 148 199 287 305 559 1060 1270 1960 3260
2020-05-27 12:30 7.69 3950 5040 (1990) 116 (1977) 878 148 199 287 305 559 1060 1270 1960 3260
2020-05-27 11:30 7.73 3990 5040 (1990) 116 (1977) 878 148 199 287 305 559 1060 1270 1960 3260
2020-05-27 10:30 7.86 4130 5040 (1990) 116 (1977) 878 148 199 287 305 559 1060 1270 1960 3260
2020-05-27 09:30 7.97 4240 5040 (1990) 116 (1977) 878 148 199 287 305 559 1060 1270 1960 3260
2020-05-27 08:30 8.11 4390 5040 (1990) 116 (1977) 878 148 199 287 305 559 1060 1270 1960 3260
2020-05-27 07:30 8.26 4550 5040 (1990) 116 (1977) 878 148 199 287 305 559 1060 1270 1960 3260
2020-05-27 06:30 8.43 4730 5040 (1990) 116 (1977) 878 148 199 287 305 559 1060 1270 1960 3260
2020-05-27 05:30 8.62 4940 5040 (1990) 116 (1977) 878 148 199 287 305 559 1060 1270 1960 3260
2020-05-27 04:30 8.83 5180 5040 (1990) 116 (1977) 878 148 199 287 305 559 1060 1270 1960 3260
2020-05-27 03:30 9.07 5460 5040 (1990) 116 (1977) 878 148 199 287 305 559 1060 1270 1960 3260
2020-05-27 02:30 9.38 5820 5040 (1990) 116 (1977) 878 148 199 287 305 559 1060 1270 1960 3260
2020-05-27 01:30 9.75 6280 5040 (1990) 116 (1977) 878 148 199 287 305 559 1060 1270 1960 3260
2020-05-27 00:30 10.21 6860 5040 (1990) 116 (1977) 878 148 199 287 305 559 1060 1270 1960 3260
2020-05-26 23:30 10.75 7570 9080 (1957) 118 (1977) 1000 141 191 288 309 536 1030 1170 2660 4780
2020-05-26 22:30 11.38 8440 9080 (1957) 118 (1977) 1000 141 191 288 309 536 1030 1170 2660 4780
2020-05-26 21:30 11.99 9320 9080 (1957) 118 (1977) 1000 141 191 288 309 536 1030 1170 2660 4780
2020-05-26 20:30 12.51 10100 9080 (1957) 118 (1977) 1000 141 191 288 309 536 1030 1170 2660 4780
2020-05-26 19:30 12.92 10700 9080 (1957) 118 (1977) 1000 141 191 288 309 536 1030 1170 2660 4780
2020-05-26 18:30 13.20 11200 9080 (1957) 118 (1977) 1000 141 191 288 309 536 1030 1170 2660 4780
2020-05-26 17:30 13.30 11300 9080 (1957) 118 (1977) 1000 141 191 288 309 536 1030 1170 2660 4780
2020-05-26 16:30 13.28 11300 9080 (1957) 118 (1977) 1000 141 191 288 309 536 1030 1170 2660 4780
2020-05-26 15:30 13.12 11100 9080 (1957) 118 (1977) 1000 141 191 288 309 536 1030 1170 2660 4780
2020-05-26 14:30 12.85 10600 9080 (1957) 118 (1977) 1000 141 191 288 309 536 1030 1170 2660 4780
2020-05-26 13:30 12.51 10100 9080 (1957) 118 (1977) 1000 141 191 288 309 536 1030 1170 2660 4780
2020-05-26 12:30 12.07 9440 9080 (1957) 118 (1977) 1000 141 191 288 309 536 1030 1170 2660 4780
2020-05-26 11:30 11.55 8680 9080 (1957) 118 (1977) 1000 141 191 288 309 536 1030 1170 2660 4780
2020-05-26 10:30 10.96 7860 9080 (1957) 118 (1977) 1000 141 191 288 309 536 1030 1170 2660 4780
2020-05-26 09:30 10.21 6860 9080 (1957) 118 (1977) 1000 141 191 288 309 536 1030 1170 2660 4780
2020-05-26 08:30 9.28 5700 9080 (1957) 118 (1977) 1000 141 191 288 309 536 1030 1170 2660 4780
2020-05-26 07:30 8.38 4680 9080 (1957) 118 (1977) 1000 141 191 288 309 536 1030 1170 2660 4780
2020-05-26 06:30 7.73 3990 9080 (1957) 118 (1977) 1000 141 191 288 309 536 1030 1170 2660 4780
2020-05-26 05:30 7.43 3690 9080 (1957) 118 (1977) 1000 141 191 288 309 536 1030 1170 2660 4780
2020-05-26 04:30 7.18 3450 9080 (1957) 118 (1977) 1000 141 191 288 309 536 1030 1170 2660 4780
2020-05-26 03:30 6.79 3070 9080 (1957) 118 (1977) 1000 141 191 288 309 536 1030 1170 2660 4780
2020-05-26 02:30 6.49 2780 9080 (1957) 118 (1977) 1000 141 191 288 309 536 1030 1170 2660 4780
2020-05-26 01:30 6.05 2360 9080 (1957) 118 (1977) 1000 141 191 288 309 536 1030 1170 2660 4780
2020-05-26 00:30 5.41 1790 9080 (1957) 118 (1977) 1000 141 191 288 309 536 1030 1170 2660 4780
2020-05-25 23:30 5.16 1590 20100 (1957) 104 (1963) 1280 135 183 268 320 467 971 1110 1630 8770
2020-05-25 22:30 4.99 1460 20100 (1957) 104 (1963) 1280 135 183 268 320 467 971 1110 1630 8770
2020-05-25 21:30 4.90 1390 20100 (1957) 104 (1963) 1280 135 183 268 320 467 971 1110 1630 8770
2020-05-25 20:30 4.85 1360 20100 (1957) 104 (1963) 1280 135 183 268 320 467 971 1110 1630 8770
2020-05-25 19:30 4.80 1320 20100 (1957) 104 (1963) 1280 135 183 268 320 467 971 1110 1630 8770
2020-05-25 18:30 4.81 1330 20100 (1957) 104 (1963) 1280 135 183 268 320 467 971 1110 1630 8770
2020-05-25 17:30 4.83 1340 20100 (1957) 104 (1963) 1280 135 183 268 320 467 971 1110 1630 8770
2020-05-25 16:30 4.86 1360 20100 (1957) 104 (1963) 1280 135 183 268 320 467 971 1110 1630 8770
2020-05-25 15:30 4.89 1380 20100 (1957) 104 (1963) 1280 135 183 268 320 467 971 1110 1630 8770
2020-05-25 14:30 4.92 1410 20100 (1957) 104 (1963) 1280 135 183 268 320 467 971 1110 1630 8770
2020-05-25 13:30 4.95 1430 20100 (1957) 104 (1963) 1280 135 183 268 320 467 971 1110 1630 8770
2020-05-25 12:30 4.97 1440 20100 (1957) 104 (1963) 1280 135 183 268 320 467 971 1110 1630 8770
2020-05-25 11:30 4.97 1440 20100 (1957) 104 (1963) 1280 135 183 268 320 467 971 1110 1630 8770
2020-05-25 10:30 4.94 1420 20100 (1957) 104 (1963) 1280 135 183 268 320 467 971 1110 1630 8770
2020-05-25 09:30 4.90 1390 20100 (1957) 104 (1963) 1280 135 183 268 320 467 971 1110 1630 8770
2020-05-25 08:30 4.86 1360 20100 (1957) 104 (1963) 1280 135 183 268 320 467 971 1110 1630 8770
2020-05-25 07:30 4.81 1330 20100 (1957) 104 (1963) 1280 135 183 268 320 467 971 1110 1630 8770
2020-05-25 06:30 4.78 1310 20100 (1957) 104 (1963) 1280 135 183 268 320 467 971 1110 1630 8770
2020-05-25 05:30 4.75 1280 20100 (1957) 104 (1963) 1280 135 183 268 320 467 971 1110 1630 8770
2020-05-25 04:30 4.73 1270 20100 (1957) 104 (1963) 1280 135 183 268 320 467 971 1110 1630 8770
2020-05-25 03:30 4.73 1270 20100 (1957) 104 (1963) 1280 135 183 268 320 467 971 1110 1630 8770
2020-05-25 02:30 4.73 1270 20100 (1957) 104 (1963) 1280 135 183 268 320 467 971 1110 1630 8770
2020-05-25 01:30 4.75 1280 20100 (1957) 104 (1963) 1280 135 183 268 320 467 971 1110 1630 8770
2020-05-25 00:30 4.76 1290 20100 (1957) 104 (1963) 1280 135 183 268 320 467 971 1110 1630 8770
2020-05-24 23:30 4.77 1300 33600 (2011) 96 (1963) 1370 142 186 268 319 470 938 1050 1940 4950
2020-05-24 22:30 4.79 1310 33600 (2011) 96 (1963) 1370 142 186 268 319 470 938 1050 1940 4950
2020-05-24 21:30 4.80 1320 33600 (2011) 96 (1963) 1370 142 186 268 319 470 938 1050 1940 4950
2020-05-24 20:30 4.82 1330 33600 (2011) 96 (1963) 1370 142 186 268 319 470 938 1050 1940 4950
2020-05-24 19:30 4.84 1350 33600 (2011) 96 (1963) 1370 142 186 268 319 470 938 1050 1940 4950
2020-05-24 18:30 4.86 1360 33600 (2011) 96 (1963) 1370 142 186 268 319 470 938 1050 1940 4950
2020-05-24 17:30 4.88 1380 33600 (2011) 96 (1963) 1370 142 186 268 319 470 938 1050 1940 4950
2020-05-24 16:30 4.91 1400 33600 (2011) 96 (1963) 1370 142 186 268 319 470 938 1050 1940 4950
2020-05-24 15:30 4.93 1410 33600 (2011) 96 (1963) 1370 142 186 268 319 470 938 1050 1940 4950
2020-05-24 14:30 4.95 1430 33600 (2011) 96 (1963) 1370 142 186 268 319 470 938 1050 1940 4950
2020-05-24 13:30 4.98 1450 33600 (2011) 96 (1963) 1370 142 186 268 319 470 938 1050 1940 4950
2020-05-24 12:30 5.01 1480 33600 (2011) 96 (1963) 1370 142 186 268 319 470 938 1050 1940 4950
2020-05-24 11:30 5.02 1480 33600 (2011) 96 (1963) 1370 142 186 268 319 470 938 1050 1940 4950
2020-05-24 10:30 5.04 1500 33600 (2011) 96 (1963) 1370 142 186 268 319 470 938 1050 1940 4950
2020-05-24 09:30 5.07 1520 33600 (2011) 96 (1963) 1370 142 186 268 319 470 938 1050 1940 4950
2020-05-24 08:30 5.09 1540 33600 (2011) 96 (1963) 1370 142 186 268 319 470 938 1050 1940 4950
2020-05-24 07:30 5.11 1550 33600 (2011) 96 (1963) 1370 142 186 268 319 470 938 1050 1940 4950
2020-05-24 06:30 5.14 1570 33600 (2011) 96 (1963) 1370 142 186 268 319 470 938 1050 1940 4950
2020-05-24 05:30 5.16 1590 33600 (2011) 96 (1963) 1370 142 186 268 319 470 938 1050 1940 4950
2020-05-24 04:30 5.19 1610 33600 (2011) 96 (1963) 1370 142 186 268 319 470 938 1050 1940 4950
2020-05-24 03:30 5.22 1640 33600 (2011) 96 (1963) 1370 142 186 268 319 470 938 1050 1940 4950
2020-05-24 02:30 5.25 1660 33600 (2011) 96 (1963) 1370 142 186 268 319 470 938 1050 1940 4950
2020-05-24 01:30 5.29 1690 33600 (2011) 96 (1963) 1370 142 186 268 319 470 938 1050 1940 4950
2020-05-24 00:30 5.32 1720 33600 (2011) 96 (1963) 1370 142 186 268 319 470 938 1050 1940 4950
2020-05-23 23:30 5.36 1750 19100 (1957) 95 (1963) 1040 160 185 290 309 506 873 997 1880 3070
2020-05-23 22:30 5.40 1780 19100 (1957) 95 (1963) 1040 160 185 290 309 506 873 997 1880 3070
2020-05-23 21:30 5.44 1820 19100 (1957) 95 (1963) 1040 160 185 290 309 506 873 997 1880 3070
2020-05-23 20:30 5.48 1850 19100 (1957) 95 (1963) 1040 160 185 290 309 506 873 997 1880 3070
2020-05-23 19:30 5.53 1890 19100 (1957) 95 (1963) 1040 160 185 290 309 506 873 997 1880 3070
2020-05-23 18:30 5.59 1940 19100 (1957) 95 (1963) 1040 160 185 290 309 506 873 997 1880 3070
2020-05-23 17:30 5.66 2010 19100 (1957) 95 (1963) 1040 160 185 290 309 506 873 997 1880 3070
2020-05-23 16:30 5.71 2050 19100 (1957) 95 (1963) 1040 160 185 290 309 506 873 997 1880 3070
2020-05-23 15:30 5.79 2120 19100 (1957) 95 (1963) 1040 160 185 290 309 506 873 997 1880 3070
2020-05-23 14:30 5.86 2190 19100 (1957) 95 (1963) 1040 160 185 290 309 506 873 997 1880 3070
2020-05-23 13:30 5.95 2270 19100 (1957) 95 (1963) 1040 160 185 290 309 506 873 997 1880 3070
2020-05-23 12:30 6.04 2350 19100 (1957) 95 (1963) 1040 160 185 290 309 506 873 997 1880 3070
2020-05-23 11:30 6.15 2460 19100 (1957) 95 (1963) 1040 160 185 290 309 506 873 997 1880 3070
2020-05-23 10:30 6.27 2570 19100 (1957) 95 (1963) 1040 160 185 290 309 506 873 997 1880 3070
2020-05-23 09:30 6.40 2700 19100 (1957) 95 (1963) 1040 160 185 290 309 506 873 997 1880 3070
2020-05-23 08:30 6.54 2830 19100 (1957) 95 (1963) 1040 160 185 290 309 506 873 997 1880 3070
2020-05-23 07:30 6.77 3050 19100 (1957) 95 (1963) 1040 160 185 290 309 506 873 997 1880 3070
2020-05-23 06:30 6.92 3190 19100 (1957) 95 (1963) 1040 160 185 290 309 506 873 997 1880 3070
2020-05-23 05:30 7.26 3530 19100 (1957) 95 (1963) 1040 160 185 290 309 506 873 997 1880 3070
2020-05-23 04:30 7.45 3710 19100 (1957) 95 (1963) 1040 160 185 290 309 506 873 997 1880 3070
2020-05-23 03:30 7.60 3860 19100 (1957) 95 (1963) 1040 160 185 290 309 506 873 997 1880 3070
2020-05-23 02:30 7.63 3890 19100 (1957) 95 (1963) 1040 160 185 290 309 506 873 997 1880 3070
2020-05-23 01:30 7.47 3730 19100 (1957) 95 (1963) 1040 160 185 290 309 506 873 997 1880 3070
2020-05-23 00:30 7.19 3460 19100 (1957) 95 (1963) 1040 160 185 290 309 506 873 997 1880 3070
2020-05-22 23:30 6.66 2950 5940 (2013) 95 (1963) 887 143 193 284 317 505 923 1210 2170 3650
2020-05-22 22:30 6.12 2430 5940 (2013) 95 (1963) 887 143 193 284 317 505 923 1210 2170 3650
2020-05-22 21:30 5.58 1940 5940 (2013) 95 (1963) 887 143 193 284 317 505 923 1210 2170 3650
2020-05-22 20:30 5.23 1650 5940 (2013) 95 (1963) 887 143 193 284 317 505 923 1210 2170 3650
2020-05-22 19:30 5.06 1510 5940 (2013) 95 (1963) 887 143 193 284 317 505 923 1210 2170 3650
2020-05-22 18:30 5.01 1480 5940 (2013) 95 (1963) 887 143 193 284 317 505 923 1210 2170 3650
2020-05-22 17:30 4.99 1460 5940 (2013) 95 (1963) 887 143 193 284 317 505 923 1210 2170 3650
2020-05-22 16:30 5.00 1470 5940 (2013) 95 (1963) 887 143 193 284 317 505 923 1210 2170 3650
2020-05-22 15:30 5.00 1470 5940 (2013) 95 (1963) 887 143 193 284 317 505 923 1210 2170 3650
2020-05-22 14:30 5.00 1470 5940 (2013) 95 (1963) 887 143 193 284 317 505 923 1210 2170 3650
2020-05-22 13:30 5.01 1480 5940 (2013) 95 (1963) 887 143 193 284 317 505 923 1210 2170 3650
2020-05-22 12:30 5.01 1480 5940 (2013) 95 (1963) 887 143 193 284 317 505 923 1210 2170 3650
2020-05-22 11:30 4.99 1460 5940 (2013) 95 (1963) 887 143 193 284 317 505 923 1210 2170 3650
2020-05-22 10:30 4.96 1440 5940 (2013) 95 (1963) 887 143 193 284 317 505 923 1210 2170 3650
2020-05-22 09:30 4.88 1380 5940 (2013) 95 (1963) 887 143 193 284 317 505 923 1210 2170 3650
2020-05-22 08:30 4.78 1310 5940 (2013) 95 (1963) 887 143 193 284 317 505 923 1210 2170 3650
2020-05-22 07:30 4.71 1260 5940 (2013) 95 (1963) 887 143 193 284 317 505 923 1210 2170 3650
2020-05-22 06:30 4.67 1230 5940 (2013) 95 (1963) 887 143 193 284 317 505 923 1210 2170 3650
2020-05-22 05:30 4.63 1200 5940 (2013) 95 (1963) 887 143 193 284 317 505 923 1210 2170 3650
2020-05-22 04:30 4.60 1180 5940 (2013) 95 (1963) 887 143 193 284 317 505 923 1210 2170 3650
2020-05-22 03:30 4.58 1170 5940 (2013) 95 (1963) 887 143 193 284 317 505 923 1210 2170 3650
2020-05-22 02:30 4.57 1160 5940 (2013) 95 (1963) 887 143 193 284 317 505 923 1210 2170 3650
2020-05-22 01:30 4.57 1160 5940 (2013) 95 (1963) 887 143 193 284 317 505 923 1210 2170 3650
2020-05-22 00:30 4.57 1160 5940 (2013) 95 (1963) 887 143 193 284 317 505 923 1210 2170 3650
2020-05-21 23:30 4.58 1170 7150 (1960) 95 (1963) 973 158 207 286 329 519 915 1010 2500 4100
2020-05-21 22:30 4.59 1170 7150 (1960) 95 (1963) 973 158 207 286 329 519 915 1010 2500 4100
2020-05-21 21:30 4.59 1170 7150 (1960) 95 (1963) 973 158 207 286 329 519 915 1010 2500 4100
2020-05-21 20:30 4.61 1190 7150 (1960) 95 (1963) 973 158 207 286 329 519 915 1010 2500 4100
2020-05-21 19:30 4.61 1190 7150 (1960) 95 (1963) 973 158 207 286 329 519 915 1010 2500 4100
2020-05-21 18:30 4.63 1200 7150 (1960) 95 (1963) 973 158 207 286 329 519 915 1010 2500 4100
2020-05-21 17:30 4.64 1210 7150 (1960) 95 (1963) 973 158 207 286 329 519 915 1010 2500 4100
2020-05-21 16:30 4.65 1210 7150 (1960) 95 (1963) 973 158 207 286 329 519 915 1010 2500 4100
2020-05-21 15:30 4.66 1220 7150 (1960) 95 (1963) 973 158 207 286 329 519 915 1010 2500 4100
2020-05-21 14:30 4.68 1230 7150 (1960) 95 (1963) 973 158 207 286 329 519 915 1010 2500 4100
2020-05-21 13:30 4.69 1240 7150 (1960) 95 (1963) 973 158 207 286 329 519 915 1010 2500 4100
2020-05-21 12:30 4.70 1250 7150 (1960) 95 (1963) 973 158 207 286 329 519 915 1010 2500 4100
2020-05-21 11:30 4.71 1260 7150 (1960) 95 (1963) 973 158 207 286 329 519 915 1010 2500 4100
2020-05-21 10:30 4.72 1260 7150 (1960) 95 (1963) 973 158 207 286 329 519 915 1010 2500 4100
2020-05-21 09:30 4.73 1270 7150 (1960) 95 (1963) 973 158 207 286 329 519 915 1010 2500 4100
2020-05-21 08:30 4.74 1280 7150 (1960) 95 (1963) 973 158 207 286 329 519 915 1010 2500 4100
2020-05-21 07:30 4.75 1280 7150 (1960) 95 (1963) 973 158 207 286 329 519 915 1010 2500 4100
2020-05-21 06:30 4.77 1300 7150 (1960) 95 (1963) 973 158 207 286 329 519 915 1010 2500 4100
2020-05-21 05:30 4.77 1300 7150 (1960) 95 (1963) 973 158 207 286 329 519 915 1010 2500 4100
2020-05-21 04:30 4.79 1310 7150 (1960) 95 (1963) 973 158 207 286 329 519 915 1010 2500 4100
2020-05-21 03:30 4.79 1310 7150 (1960) 95 (1963) 973 158 207 286 329 519 915 1010 2500 4100
2020-05-21 02:30 4.80 1320 7150 (1960) 95 (1963) 973 158 207 286 329 519 915 1010 2500 4100
2020-05-21 01:30 4.81 1330 7150 (1960) 95 (1963) 973 158 207 286 329 519 915 1010 2500 4100
2020-05-21 00:30 4.82 1330 7150 (1960) 95 (1963) 973 158 207 286 329 519 915 1010 2500 4100
2020-05-20 23:30 4.83 1340 12600 (1961) 84 (1972) 1070 143 211 293 340 551 888 1030 1480 4840
2020-05-20 22:30 4.85 1360 12600 (1961) 84 (1972) 1070 143 211 293 340 551 888 1030 1480 4840
2020-05-20 21:30 4.86 1360 12600 (1961) 84 (1972) 1070 143 211 293 340 551 888 1030 1480 4840
2020-05-20 20:30 4.87 1370 12600 (1961) 84 (1972) 1070 143 211 293 340 551 888 1030 1480 4840
2020-05-20 19:30 4.89 1380 12600 (1961) 84 (1972) 1070 143 211 293 340 551 888 1030 1480 4840
2020-05-20 18:30 4.91 1400 12600 (1961) 84 (1972) 1070 143 211 293 340 551 888 1030 1480 4840
2020-05-20 17:30 4.93 1410 12600 (1961) 84 (1972) 1070 143 211 293 340 551 888 1030 1480 4840
2020-05-20 16:30 4.94 1420 12600 (1961) 84 (1972) 1070 143 211 293 340 551 888 1030 1480 4840
2020-05-20 15:30 4.96 1440 12600 (1961) 84 (1972) 1070 143 211 293 340 551 888 1030 1480 4840
2020-05-20 14:30 4.98 1450 12600 (1961) 84 (1972) 1070 143 211 293 340 551 888 1030 1480 4840
2020-05-20 13:30 4.99 1460 12600 (1961) 84 (1972) 1070 143 211 293 340 551 888 1030 1480 4840
2020-05-20 12:30 5.00 1470 12600 (1961) 84 (1972) 1070 143 211 293 340 551 888 1030 1480 4840
2020-05-20 11:30 5.02 1480 12600 (1961) 84 (1972) 1070 143 211 293 340 551 888 1030 1480 4840
2020-05-20 10:30 5.03 1490 12600 (1961) 84 (1972) 1070 143 211 293 340 551 888 1030 1480 4840
2020-05-20 09:30 5.05 1510 12600 (1961) 84 (1972) 1070 143 211 293 340 551 888 1030 1480 4840
2020-05-20 08:30 5.06 1510 12600 (1961) 84 (1972) 1070 143 211 293 340 551 888 1030 1480 4840
2020-05-20 07:30 5.08 1530 12600 (1961) 84 (1972) 1070 143 211 293 340 551 888 1030 1480 4840
2020-05-20 06:30 5.09 1540 12600 (1961) 84 (1972) 1070 143 211 293 340 551 888 1030 1480 4840
2020-05-20 05:30 5.11 1550 12600 (1961) 84 (1972) 1070 143 211 293 340 551 888 1030 1480 4840
2020-05-20 04:30 5.12 1560 12600 (1961) 84 (1972) 1070 143 211 293 340 551 888 1030 1480 4840
2020-05-20 03:30 5.14 1570 12600 (1961) 84 (1972) 1070 143 211 293 340 551 888 1030 1480 4840
2020-05-20 02:30 5.16 1590 12600 (1961) 84 (1972) 1070 143 211 293 340 551 888 1030 1480 4840
2020-05-20 01:30 5.18 1610 12600 (1961) 84 (1972) 1070 143 211 293 340 551 888 1030 1480 4840
2020-05-20 00:30 5.19 1610 12600 (1961) 84 (1972) 1070 143 211 293 340 551 888 1030 1480 4840
2020-05-19 23:30 5.20 1620 5620 (1961) 101 (1963) 845 146 233 299 324 602 1040 1150 1530 1690
2020-05-19 22:30 5.21 1630 5620 (1961) 101 (1963) 845 146 233 299 324 602 1040 1150 1530 1690
2020-05-19 21:30 5.23 1650 5620 (1961) 101 (1963) 845 146 233 299 324 602 1040 1150 1530 1690
2020-05-19 20:30 5.25 1660 5620 (1961) 101 (1963) 845 146 233 299 324 602 1040 1150 1530 1690
2020-05-19 19:30 5.26 1670 5620 (1961) 101 (1963) 845 146 233 299 324 602 1040 1150 1530 1690
2020-05-19 18:30 5.28 1690 5620 (1961) 101 (1963) 845 146 233 299 324 602 1040 1150 1530 1690
2020-05-19 17:30 5.31 1710 5620 (1961) 101 (1963) 845 146 233 299 324 602 1040 1150 1530 1690
2020-05-19 16:30 5.33 1730 5620 (1961) 101 (1963) 845 146 233 299 324 602 1040 1150 1530 1690
2020-05-19 15:30 5.36 1750 5620 (1961) 101 (1963) 845 146 233 299 324 602 1040 1150 1530 1690
2020-05-19 14:30 5.38 1770 5620 (1961) 101 (1963) 845 146 233 299 324 602 1040 1150 1530 1690
2020-05-19 13:30 5.40 1780 5620 (1961) 101 (1963) 845 146 233 299 324 602 1040 1150 1530 1690
2020-05-19 12:30 5.41 1790 5620 (1961) 101 (1963) 845 146 233 299 324 602 1040 1150 1530 1690
2020-05-19 11:30 5.44 1820 5620 (1961) 101 (1963) 845 146 233 299 324 602 1040 1150 1530 1690
2020-05-19 10:30 5.47 1840 5620 (1961) 101 (1963) 845 146 233 299 324 602 1040 1150 1530 1690
2020-05-19 09:30 5.50 1870 5620 (1961) 101 (1963) 845 146 233 299 324 602 1040 1150 1530 1690
2020-05-19 08:30 5.52 1880 5620 (1961) 101 (1963) 845 146 233 299 324 602 1040 1150 1530 1690
2020-05-19 07:30 5.54 1900 5620 (1961) 101 (1963) 845 146 233 299 324 602 1040 1150 1530 1690
2020-05-19 06:30 5.56 1920 5620 (1961) 101 (1963) 845 146 233 299 324 602 1040 1150 1530 1690
2020-05-19 05:30 5.60 1950 5620 (1961) 101 (1963) 845 146 233 299 324 602 1040 1150 1530 1690
2020-05-19 04:30 5.62 1970 5620 (1961) 101 (1963) 845 146 233 299 324 602 1040 1150 1530 1690
2020-05-19 03:30 5.64 1990 5620 (1961) 101 (1963) 845 146 233 299 324 602 1040 1150 1530 1690
2020-05-19 02:30 5.68 2020 5620 (1961) 101 (1963) 845 146 233 299 324 602 1040 1150 1530 1690
2020-05-19 01:30 5.70 2040 5620 (1961) 101 (1963) 845 146 233 299 324 602 1040 1150 1530 1690
2020-05-19 00:30 5.73 2070 5620 (1961) 101 (1963) 845 146 233 299 324 602 1040 1150 1530 1690
2020-05-18 23:30 5.75 2090 11300 (1957) 102 (1963) 964 160 265 309 350 575 1030 1290 1950 2560
2020-05-18 22:30 5.78 2110 11300 (1957) 102 (1963) 964 160 265 309 350 575 1030 1290 1950 2560
2020-05-18 21:30 5.81 2140 11300 (1957) 102 (1963) 964 160 265 309 350 575 1030 1290 1950 2560
2020-05-18 20:30 5.84 2170 11300 (1957) 102 (1963) 964 160 265 309 350 575 1030 1290 1950 2560
2020-05-18 19:30 5.86 2190 11300 (1957) 102 (1963) 964 160 265 309 350 575 1030 1290 1950 2560
2020-05-18 18:30 5.89 2210 11300 (1957) 102 (1963) 964 160 265 309 350 575 1030 1290 1950 2560
2020-05-18 17:30 5.93 2250 11300 (1957) 102 (1963) 964 160 265 309 350 575 1030 1290 1950 2560
2020-05-18 16:30 5.97 2290 11300 (1957) 102 (1963) 964 160 265 309 350 575 1030 1290 1950 2560
2020-05-18 15:30 6.00 2320 11300 (1957) 102 (1963) 964 160 265 309 350 575 1030 1290 1950 2560
2020-05-18 14:30 6.06 2370 11300 (1957) 102 (1963) 964 160 265 309 350 575 1030 1290 1950 2560
2020-05-18 13:30 6.10 2410 11300 (1957) 102 (1963) 964 160 265 309 350 575 1030 1290 1950 2560
2020-05-18 12:30 6.16 2470 11300 (1957) 102 (1963) 964 160 265 309 350 575 1030 1290 1950 2560
2020-05-18 11:30 6.20 2510 11300 (1957) 102 (1963) 964 160 265 309 350 575 1030 1290 1950 2560
2020-05-18 10:30 6.26 2560 11300 (1957) 102 (1963) 964 160 265 309 350 575 1030 1290 1950 2560
2020-05-18 09:30 6.32 2620 11300 (1957) 102 (1963) 964 160 265 309 350 575 1030 1290 1950 2560
2020-05-18 08:30 6.37 2670 11300 (1957) 102 (1963) 964 160 265 309 350 575 1030 1290 1950 2560
2020-05-18 07:30 6.45 2750 11300 (1957) 102 (1963) 964 160 265 309 350 575 1030 1290 1950 2560
2020-05-18 06:30 6.52 2810 11300 (1957) 102 (1963) 964 160 265 309 350 575 1030 1290 1950 2560
2020-05-18 05:30 6.56 2850 11300 (1957) 102 (1963) 964 160 265 309 350 575 1030 1290 1950 2560
2020-05-18 04:30 6.67 2960 11300 (1957) 102 (1963) 964 160 265 309 350 575 1030 1290 1950 2560
2020-05-18 03:30 6.78 3060 11300 (1957) 102 (1963) 964 160 265 309 350 575 1030 1290 1950 2560
2020-05-18 02:30 6.85 3130 11300 (1957) 102 (1963) 964 160 265 309 350 575 1030 1290 1950 2560
2020-05-18 01:30 6.94 3210 11300 (1957) 102 (1963) 964 160 265 309 350 575 1030 1290 1950 2560
2020-05-18 00:30 7.17 3440 11300 (1957) 102 (1963) 964 160 265 309 350 575 1030 1290 1950 2560
2020-05-17 23:30 7.29 3560 8590 (1957) 101 (1963) 904 152 264 306 329 600 1030 1170 1860 2190
2020-05-17 22:30 7.40 3660 8590 (1957) 101 (1963) 904 152 264 306 329 600 1030 1170 1860 2190
2020-05-17 21:30 7.49 3750 8590 (1957) 101 (1963) 904 152 264 306 329 600 1030 1170 1860 2190
2020-05-17 20:30 7.55 3810 8590 (1957) 101 (1963) 904 152 264 306 329 600 1030 1170 1860 2190
2020-05-17 19:30 7.55 3810 8590 (1957) 101 (1963) 904 152 264 306 329 600 1030 1170 1860 2190
2020-05-17 18:30 7.44 3700 8590 (1957) 101 (1963) 904 152 264 306 329 600 1030 1170 1860 2190
2020-05-17 17:30 7.25 3520 8590 (1957) 101 (1963) 904 152 264 306 329 600 1030 1170 1860 2190
2020-05-17 16:30 6.95 3220 8590 (1957) 101 (1963) 904 152 264 306 329 600 1030 1170 1860 2190
2020-05-17 15:30 6.80 3080 8590 (1957) 101 (1963) 904 152 264 306 329 600 1030 1170 1860 2190
2020-05-17 14:30 6.69 2970 8590 (1957) 101 (1963) 904 152 264 306 329 600 1030 1170 1860 2190
2020-05-17 13:30 6.71 2990 8590 (1957) 101 (1963) 904 152 264 306 329 600 1030 1170 1860 2190
2020-05-17 12:30 6.72 3000 8590 (1957) 101 (1963) 904 152 264 306 329 600 1030 1170 1860 2190
2020-05-17 11:30 6.75 3030 8590 (1957) 101 (1963) 904 152 264 306 329 600 1030 1170 1860 2190
2020-05-17 10:30 6.79 3070 8590 (1957) 101 (1963) 904 152 264 306 329 600 1030 1170 1860 2190
2020-05-17 09:30 6.83 3110 8590 (1957) 101 (1963) 904 152 264 306 329 600 1030 1170 1860 2190
2020-05-17 08:30 6.89 3170 8590 (1957) 101 (1963) 904 152 264 306 329 600 1030 1170 1860 2190
2020-05-17 07:30 6.92 3190 8590 (1957) 101 (1963) 904 152 264 306 329 600 1030 1170 1860 2190
2020-05-17 06:30 6.99 3260 8590 (1957) 101 (1963) 904 152 264 306 329 600 1030 1170 1860 2190
2020-05-17 05:30 7.17 3440 8590 (1957) 101 (1963) 904 152 264 306 329 600 1030 1170 1860 2190
2020-05-17 04:30 7.26 3530 8590 (1957) 101 (1963) 904 152 264 306 329 600 1030 1170 1860 2190
2020-05-17 03:30 7.29 3560 8590 (1957) 101 (1963) 904 152 264 306 329 600 1030 1170 1860 2190
2020-05-17 02:30 7.37 3630 8590 (1957) 101 (1963) 904 152 264 306 329 600 1030 1170 1860 2190
2020-05-17 01:30 7.53 3790 8590 (1957) 101 (1963) 904 152 264 306 329 600 1030 1170 1860 2190
2020-05-17 00:30 7.67 3930 8590 (1957) 101 (1963) 904 152 264 306 329 600 1030 1170 1860 2190
2020-05-16 23:30 7.80 4060 3450 (1956) 99 (1963) 805 204 244 317 344 635 1020 1130 1470 2530
2020-05-16 22:30 7.91 4180 3450 (1956) 99 (1963) 805 204 244 317 344 635 1020 1130 1470 2530
2020-05-16 21:30 8.00 4270 3450 (1956) 99 (1963) 805 204 244 317 344 635 1020 1130 1470 2530
2020-05-16 20:30 8.02 4290 3450 (1956) 99 (1963) 805 204 244 317 344 635 1020 1130 1470 2530
2020-05-16 19:30 8.06 4340 3450 (1956) 99 (1963) 805 204 244 317 344 635 1020 1130 1470 2530
2020-05-16 18:30 8.13 4410 3450 (1956) 99 (1963) 805 204 244 317 344 635 1020 1130 1470 2530
2020-05-16 17:30 8.19 4470 3450 (1956) 99 (1963) 805 204 244 317 344 635 1020 1130 1470 2530
2020-05-16 16:30 8.39 4690 3450 (1956) 99 (1963) 805 204 244 317 344 635 1020 1130 1470 2530
2020-05-16 15:30 8.58 4900 3450 (1956) 99 (1963) 805 204 244 317 344 635 1020 1130 1470 2530
2020-05-16 14:30 8.88 5240 3450 (1956) 99 (1963) 805 204 244 317 344 635 1020 1130 1470 2530
2020-05-16 13:30 9.26 5680 3450 (1956) 99 (1963) 805 204 244 317 344 635 1020 1130 1470 2530
2020-05-16 12:30 9.75 6280 3450 (1956) 99 (1963) 805 204 244 317 344 635 1020 1130 1470 2530
2020-05-16 11:30 10.37 7070 3450 (1956) 99 (1963) 805 204 244 317 344 635 1020 1130 1470 2530
2020-05-16 10:30 11.09 8040 3450 (1956) 99 (1963) 805 204 244 317 344 635 1020 1130 1470 2530
2020-05-16 09:30 11.72 8930 3450 (1956) 99 (1963) 805 204 244 317 344 635 1020 1130 1470 2530
2020-05-16 08:30 12.17 9590 3450 (1956) 99 (1963) 805 204 244 317 344 635 1020 1130 1470 2530
2020-05-16 07:30 12.31 9800 3450 (1956) 99 (1963) 805 204 244 317 344 635 1020 1130 1470 2530
2020-05-16 06:30 12.26 9730 3450 (1956) 99 (1963) 805 204 244 317 344 635 1020 1130 1470 2530
2020-05-16 05:30 12.04 9400 3450 (1956) 99 (1963) 805 204 244 317 344 635 1020 1130 1470 2530
2020-05-16 04:30 11.73 8940 3450 (1956) 99 (1963) 805 204 244 317 344 635 1020 1130 1470 2530
2020-05-16 03:30 11.34 8380 3450 (1956) 99 (1963) 805 204 244 317 344 635 1020 1130 1470 2530
2020-05-16 02:30 10.91 7790 3450 (1956) 99 (1963) 805 204 244 317 344 635 1020 1130 1470 2530
2020-05-16 01:30 10.38 7080 3450 (1956) 99 (1963) 805 204 244 317 344 635 1020 1130 1470 2530
2020-05-16 00:30 9.80 6340 3450 (1956) 99 (1963) 805 204 244 317 344 635 1020 1130 1470 2530
2020-05-15 23:30 9.19 5600 4690 (1956) 101 (1963) 936 191 289 350 371 648 1150 1430 1820 2670
2020-05-15 22:30 8.65 4980 4690 (1956) 101 (1963) 936 191 289 350 371 648 1150 1430 1820 2670
2020-05-15 21:30 8.20 4480 4690 (1956) 101 (1963) 936 191 289 350 371 648 1150 1430 1820 2670
2020-05-15 20:30 7.68 3940 4690 (1956) 101 (1963) 936 191 289 350 371 648 1150 1430 1820 2670
2020-05-15 19:30 6.82 3100 4690 (1956) 101 (1963) 936 191 289 350 371 648 1150 1430 1820 2670
2020-05-15 18:30 5.84 2170 4690 (1956) 101 (1963) 936 191 289 350 371 648 1150 1430 1820 2670
2020-05-15 17:30 5.16 1590 4690 (1956) 101 (1963) 936 191 289 350 371 648 1150 1430 1820 2670
2020-05-15 16:30 4.87 1370 4690 (1956) 101 (1963) 936 191 289 350 371 648 1150 1430 1820 2670
2020-05-15 15:30 4.67 1230 4690 (1956) 101 (1963) 936 191 289 350 371 648 1150 1430 1820 2670
2020-05-15 14:30 4.57 1160 4690 (1956) 101 (1963) 936 191 289 350 371 648 1150 1430 1820 2670
2020-05-15 13:30 4.48 1100 4690 (1956) 101 (1963) 936 191 289 350 371 648 1150 1430 1820 2670
2020-05-15 12:30 4.40 1050 4690 (1956) 101 (1963) 936 191 289 350 371 648 1150 1430 1820 2670
2020-05-15 11:30 4.35 1020 4690 (1956) 101 (1963) 936 191 289 350 371 648 1150 1430 1820 2670
2020-05-15 10:30 4.35 1020 4690 (1956) 101 (1963) 936 191 289 350 371 648 1150 1430 1820 2670
2020-05-15 09:30 4.34 1010 4690 (1956) 101 (1963) 936 191 289 350 371 648 1150 1430 1820 2670
2020-05-15 08:30 4.33 1010 4690 (1956) 101 (1963) 936 191 289 350 371 648 1150 1430 1820 2670
2020-05-15 07:30 4.33 1010 4690 (1956) 101 (1963) 936 191 289 350 371 648 1150 1430 1820 2670
2020-05-15 06:30 4.31 993 4690 (1956) 101 (1963) 936 191 289 350 371 648 1150 1430 1820 2670
2020-05-15 05:30 4.28 975 4690 (1956) 101 (1963) 936 191 289 350 371 648 1150 1430 1820 2670
2020-05-15 04:30 4.30 987 4690 (1956) 101 (1963) 936 191 289 350 371 648 1150 1430 1820 2670
2020-05-15 03:30 4.31 993 4690 (1956) 101 (1963) 936 191 289 350 371 648 1150 1430 1820 2670
2020-05-15 02:30 4.32 999 4690 (1956) 101 (1963) 936 191 289 350 371 648 1150 1430 1820 2670
2020-05-15 01:30 4.33 1010 4690 (1956) 101 (1963) 936 191 289 350 371 648 1150 1430 1820 2670
2020-05-15 00:30 4.33 1010 4690 (1956) 101 (1963) 936 191 289 350 371 648 1150 1430 1820 2670
2020-05-14 23:30 4.34 1010 3550 (1968) 107 (1963) 904 199 279 372 400 633 1250 1360 1760 2620
2020-05-14 22:30 4.35 1020 3550 (1968) 107 (1963) 904 199 279 372 400 633 1250 1360 1760 2620
2020-05-14 21:30 4.36 1020 3550 (1968) 107 (1963) 904 199 279 372 400 633 1250 1360 1760 2620
2020-05-14 20:30 4.37 1030 3550 (1968) 107 (1963) 904 199 279 372 400 633 1250 1360 1760 2620
2020-05-14 19:30 4.39 1040 3550 (1968) 107 (1963) 904 199 279 372 400 633 1250 1360 1760 2620
2020-05-14 18:30 4.40 1050 3550 (1968) 107 (1963) 904 199 279 372 400 633 1250 1360 1760 2620
2020-05-14 17:30 4.42 1060 3550 (1968) 107 (1963) 904 199 279 372 400 633 1250 1360 1760 2620
2020-05-14 16:30 4.43 1070 3550 (1968) 107 (1963) 904 199 279 372 400 633 1250 1360 1760 2620
2020-05-14 15:30 4.44 1070 3550 (1968) 107 (1963) 904 199 279 372 400 633 1250 1360 1760 2620
2020-05-14 14:30 4.45 1080 3550 (1968) 107 (1963) 904 199 279 372 400 633 1250 1360 1760 2620
2020-05-14 13:30 4.47 1090 3550 (1968) 107 (1963) 904 199 279 372 400 633 1250 1360 1760 2620
2020-05-14 12:30 4.48 1100 3550 (1968) 107 (1963) 904 199 279 372 400 633 1250 1360 1760 2620
2020-05-14 11:30 4.49 1110 3550 (1968) 107 (1963) 904 199 279 372 400 633 1250 1360 1760 2620
2020-05-14 10:30 4.51 1120 3550 (1968) 107 (1963) 904 199 279 372 400 633 1250 1360 1760 2620
2020-05-14 09:30 4.53 1130 3550 (1968) 107 (1963) 904 199 279 372 400 633 1250 1360 1760 2620
2020-05-14 08:30 4.54 1140 3550 (1968) 107 (1963) 904 199 279 372 400 633 1250 1360 1760 2620
2020-05-14 07:30 4.56 1150 3550 (1968) 107 (1963) 904 199 279 372 400 633 1250 1360 1760 2620
2020-05-14 06:30 4.58 1170 3550 (1968) 107 (1963) 904 199 279 372 400 633 1250 1360 1760 2620
2020-05-14 05:30 4.59 1170 3550 (1968) 107 (1963) 904 199 279 372 400 633 1250 1360 1760 2620
2020-05-14 04:30 4.60 1180 3550 (1968) 107 (1963) 904 199 279 372 400 633 1250 1360 1760 2620
2020-05-14 03:30 4.62 1190 3550 (1968) 107 (1963) 904 199 279 372 400 633 1250 1360 1760 2620
2020-05-14 02:30 4.64 1210 3550 (1968) 107 (1963) 904 199 279 372 400 633 1250 1360 1760 2620
2020-05-14 01:30 4.66 3550 (1968) 107 (1963) 904 199 279 372 400 633 1250 1360 1760 2620
2020-05-13 23:00 4.71 1260 3670 (1999) 123 (1956) 882 149 207 349 398 603 1270 1540 1810 2560
2020-05-13 22:30 4.71 1260 3670 (1999) 123 (1956) 882 149 207 349 398 603 1270 1540 1810 2560
2020-05-13 21:30 4.72 1260 3670 (1999) 123 (1956) 882 149 207 349 398 603 1270 1540 1810 2560
2020-05-13 20:30 4.74 1280 3670 (1999) 123 (1956) 882 149 207 349 398 603 1270 1540 1810 2560
2020-05-13 19:30 4.75 1280 3670 (1999) 123 (1956) 882 149 207 349 398 603 1270 1540 1810 2560
2020-05-13 18:30 4.76 1290 3670 (1999) 123 (1956) 882 149 207 349 398 603 1270 1540 1810 2560
2020-05-13 17:30 4.77 1300 3670 (1999) 123 (1956) 882 149 207 349 398 603 1270 1540 1810 2560
2020-05-13 16:30 4.78 1310 3670 (1999) 123 (1956) 882 149 207 349 398 603 1270 1540 1810 2560
2020-05-13 15:30 4.79 1310 3670 (1999) 123 (1956) 882 149 207 349 398 603 1270 1540 1810 2560
2020-05-13 14:30 4.81 1330 3670 (1999) 123 (1956) 882 149 207 349 398 603 1270 1540 1810 2560
2020-05-13 13:30 4.82 1330 3670 (1999) 123 (1956) 882 149 207 349 398 603 1270 1540 1810 2560
2020-05-13 12:30 4.83 1340 3670 (1999) 123 (1956) 882 149 207 349 398 603 1270 1540 1810 2560
2020-05-13 11:30 4.84 1350 3670 (1999) 123 (1956) 882 149 207 349 398 603 1270 1540 1810 2560
2020-05-13 10:30 4.84 1350 3670 (1999) 123 (1956) 882 149 207 349 398 603 1270 1540 1810 2560
2020-05-13 09:30 4.83 1340 3670 (1999) 123 (1956) 882 149 207 349 398 603 1270 1540 1810 2560
2020-05-13 08:30 4.81 1330 3670 (1999) 123 (1956) 882 149 207 349 398 603 1270 1540 1810 2560
2020-05-13 07:30 4.76 1290 3670 (1999) 123 (1956) 882 149 207 349 398 603 1270 1540 1810 2560
2020-05-13 06:30 4.69 1240 3670 (1999) 123 (1956) 882 149 207 349 398 603 1270 1540 1810 2560
2020-05-13 05:30 4.60 1180 3670 (1999) 123 (1956) 882 149 207 349 398 603 1270 1540 1810 2560
2020-05-13 04:30 4.51 1120 3670 (1999) 123 (1956) 882 149 207 349 398 603 1270 1540 1810 2560
2020-05-13 03:30 4.43 1070 3670 (1999) 123 (1956) 882 149 207 349 398 603 1270 1540 1810 2560
2020-05-13 02:30 4.37 1030 3670 (1999) 123 (1956) 882 149 207 349 398 603 1270 1540 1810 2560
2020-05-13 01:30 4.32 999 3670 (1999) 123 (1956) 882 149 207 349 398 603 1270 1540 1810 2560
2020-05-13 00:30 4.28 975 3670 (1999) 123 (1956) 882 149 207 349 398 603 1270 1540 1810 2560
2020-05-12 23:30 4.26 963 3910 (1973) 142 (1963) 989 149 197 386 417 585 1410 1780 2480 3140
2020-05-12 22:30 4.25 957 3910 (1973) 142 (1963) 989 149 197 386 417 585 1410 1780 2480 3140
2020-05-12 21:30 4.23 945 3910 (1973) 142 (1963) 989 149 197 386 417 585 1410 1780 2480 3140
2020-05-12 20:30 4.23 945 3910 (1973) 142 (1963) 989 149 197 386 417 585 1410 1780 2480 3140
2020-05-12 19:30 4.22 939 3910 (1973) 142 (1963) 989 149 197 386 417 585 1410 1780 2480 3140
2020-05-12 18:30 4.21 933 3910 (1973) 142 (1963) 989 149 197 386 417 585 1410 1780 2480 3140
2020-05-12 17:30 4.21 933 3910 (1973) 142 (1963) 989 149 197 386 417 585 1410 1780 2480 3140
2020-05-12 16:30 4.21 933 3910 (1973) 142 (1963) 989 149 197 386 417 585 1410 1780 2480 3140
2020-05-12 15:30 4.20 927 3910 (1973) 142 (1963) 989 149 197 386 417 585 1410 1780 2480 3140
2020-05-12 14:30 4.20 927 3910 (1973) 142 (1963) 989 149 197 386 417 585 1410 1780 2480 3140
2020-05-12 13:30 4.18 915 3910 (1973) 142 (1963) 989 149 197 386 417 585 1410 1780 2480 3140
2020-05-12 12:30 4.16 903 3910 (1973) 142 (1963) 989 149 197 386 417 585 1410 1780 2480 3140
2020-05-12 11:30 4.15 898 3910 (1973) 142 (1963) 989 149 197 386 417 585 1410 1780 2480 3140
2020-05-12 10:30 4.15 898 3910 (1973) 142 (1963) 989 149 197 386 417 585 1410 1780 2480 3140
2020-05-12 09:30 4.14 892 3910 (1973) 142 (1963) 989 149 197 386 417 585 1410 1780 2480 3140
2020-05-12 08:30 4.15 927 3910 (1973) 142 (1963) 989 149 197 386 417 585 1410 1780 2480 3140
2020-05-12 07:30 4.05 869 3910 (1973) 142 (1963) 989 149 197 386 417 585 1410 1780 2480 3140
2020-05-12 06:30 4.04 863 3910 (1973) 142 (1963) 989 149 197 386 417 585 1410 1780 2480 3140
2020-05-12 05:30 4.04 863 3910 (1973) 142 (1963) 989 149 197 386 417 585 1410 1780 2480 3140
2020-05-12 04:30 4.04 863 3910 (1973) 142 (1963) 989 149 197 386 417 585 1410 1780 2480 3140
2020-05-12 03:30 4.04 863 3910 (1973) 142 (1963) 989 149 197 386 417 585 1410 1780 2480 3140
2020-05-12 02:30 4.03 858 3910 (1973) 142 (1963) 989 149 197 386 417 585 1410 1780 2480 3140
2020-05-12 01:30 4.04 863 3910 (1973) 142 (1963) 989 149 197 386 417 585 1410 1780 2480 3140
2020-05-12 00:30 4.05 869 3910 (1973) 142 (1963) 989 149 197 386 417 585 1410 1780 2480 3140
2020-05-11 23:30 4.05 869 7320 (1996) 137 (1982) 1210 153 193 364 389 597 1430 1750 2580 5760
2020-05-11 22:30 4.05 869 7320 (1996) 137 (1982) 1210 153 193 364 389 597 1430 1750 2580 5760
2020-05-11 21:30 4.06 875 7320 (1996) 137 (1982) 1210 153 193 364 389 597 1430 1750 2580 5760
2020-05-11 20:30 4.07 880 7320 (1996) 137 (1982) 1210 153 193 364 389 597 1430 1750 2580 5760
2020-05-11 19:30 4.08 886 7320 (1996) 137 (1982) 1210 153 193 364 389 597 1430 1750 2580 5760
2020-05-11 18:30 4.09 892 7320 (1996) 137 (1982) 1210 153 193 364 389 597 1430 1750 2580 5760
2020-05-11 17:30 4.10 898 7320 (1996) 137 (1982) 1210 153 193 364 389 597 1430 1750 2580 5760
2020-05-11 16:30 4.11 903 7320 (1996) 137 (1982) 1210 153 193 364 389 597 1430 1750 2580 5760
2020-05-11 15:30 4.12 909 7320 (1996) 137 (1982) 1210 153 193 364 389 597 1430 1750 2580 5760
2020-05-11 14:30 4.12 909 7320 (1996) 137 (1982) 1210 153 193 364 389 597 1430 1750 2580 5760
2020-05-11 13:30 4.14 921 7320 (1996) 137 (1982) 1210 153 193 364 389 597 1430 1750 2580 5760
2020-05-11 12:30 4.15 927 7320 (1996) 137 (1982) 1210 153 193 364 389 597 1430 1750 2580 5760
2020-05-11 11:30 4.16 933 7320 (1996) 137 (1982) 1210 153 193 364 389 597 1430 1750 2580 5760
2020-05-11 10:30 4.17 939 7320 (1996) 137 (1982) 1210 153 193 364 389 597 1430 1750 2580 5760
2020-05-11 09:30 4.18 945 7320 (1996) 137 (1982) 1210 153 193 364 389 597 1430 1750 2580 5760
2020-05-11 08:30 4.18 945 7320 (1996) 137 (1982) 1210 153 193 364 389 597 1430 1750 2580 5760
2020-05-11 07:30 4.18 945 7320 (1996) 137 (1982) 1210 153 193 364 389 597 1430 1750 2580 5760
2020-05-11 06:30 4.18 945 7320 (1996) 137 (1982) 1210 153 193 364 389 597 1430 1750 2580 5760
2020-05-11 05:30 4.19 951 7320 (1996) 137 (1982) 1210 153 193 364 389 597 1430 1750 2580 5760
2020-05-11 04:30 4.19 951 7320 (1996) 137 (1982) 1210 153 193 364 389 597 1430 1750 2580 5760
2020-05-11 03:30 4.20 957 7320 (1996) 137 (1982) 1210 153 193 364 389 597 1430 1750 2580 5760
2020-05-11 02:30 4.21 963 7320 (1996) 137 (1982) 1210 153 193 364 389 597 1430 1750 2580 5760
2020-05-11 01:30 4.22 969 7320 (1996) 137 (1982) 1210 153 193 364 389 597 1430 1750 2580 5760
2020-05-11 00:30 4.23 975 7320 (1996) 137 (1982) 1210 153 193 364 389 597 1430 1750 2580 5760
2020-05-10 23:30 4.24 981 13700 (1993) 144 (1964) 1210 156 185 302 377 601 1080 1280 2520 3460
2020-05-10 22:30 4.25 987 13700 (1993) 144 (1964) 1210 156 185 302 377 601 1080 1280 2520 3460
2020-05-10 21:30 4.27 999 13700 (1993) 144 (1964) 1210 156 185 302 377 601 1080 1280 2520 3460
2020-05-10 20:30 4.29 1010 13700 (1993) 144 (1964) 1210 156 185 302 377 601 1080 1280 2520 3460
2020-05-10 19:30 4.30 1020 13700 (1993) 144 (1964) 1210 156 185 302 377 601 1080 1280 2520 3460
2020-05-10 18:30 4.32 1030 13700 (1993) 144 (1964) 1210 156 185 302 377 601 1080 1280 2520 3460
2020-05-10 17:30 4.33 1040 13700 (1993) 144 (1964) 1210 156 185 302 377 601 1080 1280 2520 3460
2020-05-10 16:30 4.35 1050 13700 (1993) 144 (1964) 1210 156 185 302 377 601 1080 1280 2520 3460
2020-05-10 15:30 4.36 1060 13700 (1993) 144 (1964) 1210 156 185 302 377 601 1080 1280 2520 3460
2020-05-10 14:30 4.38 1070 13700 (1993) 144 (1964) 1210 156 185 302 377 601 1080 1280 2520 3460
2020-05-10 13:30 4.39 1070 13700 (1993) 144 (1964) 1210 156 185 302 377 601 1080 1280 2520 3460
2020-05-10 12:30 4.41 1090 13700 (1993) 144 (1964) 1210 156 185 302 377 601 1080 1280 2520 3460
2020-05-10 11:30 4.43 1100 13700 (1993) 144 (1964) 1210 156 185 302 377 601 1080 1280 2520 3460
2020-05-10 10:30 4.44 1110 13700 (1993) 144 (1964) 1210 156 185 302 377 601 1080 1280 2520 3460
2020-05-10 09:30 4.46 1120 13700 (1993) 144 (1964) 1210 156 185 302 377 601 1080 1280 2520 3460
2020-05-10 08:30 4.48 1130 13700 (1993) 144 (1964) 1210 156 185 302 377 601 1080 1280 2520 3460
2020-05-10 07:30 4.49 1140 13700 (1993) 144 (1964) 1210 156 185 302 377 601 1080 1280 2520 3460
2020-05-10 06:30 4.50 1150 13700 (1993) 144 (1964) 1210 156 185 302 377 601 1080 1280 2520 3460
2020-05-10 05:30 4.52 1160 13700 (1993) 144 (1964) 1210 156 185 302 377 601 1080 1280 2520 3460
2020-05-10 04:30 4.53 1170 13700 (1993) 144 (1964) 1210 156 185 302 377 601 1080 1280 2520 3460
2020-05-10 03:30 4.55 1180 13700 (1993) 144 (1964) 1210 156 185 302 377 601 1080 1280 2520 3460
2020-05-10 02:30 4.57 1190 13700 (1993) 144 (1964) 1210 156 185 302 377 601 1080 1280 2520 3460
2020-05-10 01:30 4.59 1210 13700 (1993) 144 (1964) 1210 156 185 302 377 601 1080 1280 2520 3460
2020-05-10 00:30 4.61 1220 13700 (1993) 144 (1964) 1210 156 185 302 377 601 1080 1280 2520 3460
2020-05-09 23:30 4.63 1230 9850 (1995) 117 (1964) 1140 162 192 272 363 592 1140 1260 2250 6170
2020-05-09 22:30 4.65 1250 9850 (1995) 117 (1964) 1140 162 192 272 363 592 1140 1260 2250 6170
2020-05-09 21:30 4.68 1270 9850 (1995) 117 (1964) 1140 162 192 272 363 592 1140 1260 2250 6170
2020-05-09 20:30 4.71 1290 9850 (1995) 117 (1964) 1140 162 192 272 363 592 1140 1260 2250 6170
2020-05-09 19:30 4.74 1310 9850 (1995) 117 (1964) 1140 162 192 272 363 592 1140 1260 2250 6170
2020-05-09 18:30 4.77 1330 9850 (1995) 117 (1964) 1140 162 192 272 363 592 1140 1260 2250 6170
2020-05-09 17:30 4.81 1360 9850 (1995) 117 (1964) 1140 162 192 272 363 592 1140 1260 2250 6170
2020-05-09 16:30 4.85 1390 9850 (1995) 117 (1964) 1140 162 192 272 363 592 1140 1260 2250 6170
2020-05-09 15:30 4.89 1420 9850 (1995) 117 (1964) 1140 162 192 272 363 592 1140 1260 2250 6170
2020-05-09 14:30 4.93 1450 9850 (1995) 117 (1964) 1140 162 192 272 363 592 1140 1260 2250 6170
2020-05-09 13:30 4.98 1490 9850 (1995) 117 (1964) 1140 162 192 272 363 592